GFSSGP_con_3kmhel_000.txt.gz
Helicity
49 60 3 11 18 13 16 -6 33 43 17 41 46 -25 -15 31 23 -70 48 40 7 17 19 -4 -7 -7 -4 3 -1 0 -13 -15 -11 -1 0 3 2 0 3 8 14 16 18 23 28 32 31 12 -19
32 46 17 46 -40 -18 7 20 -12 40 51 13 16 -13 25 9 65 -22 -7 13 11 17 3 -14 2 6 5 8 10 1 5 -1 -1 6 4 8 11 4 7 12 11 16 25 23 11 5 -4 -5 -10
34 7 40 88 -10 -42 -72 18 38 14 16 10 15 16 47 69 38 17 7 -20 0 -3 -11 -2 6 13 16 21 18 12 5 -3 7 2 5 -1 -2 -1 1 7 19 27 24 16 13 7 -11 -11 -8
0 -3 36 -31 -73 -81 -106 0 60 40 18 -12 15 48 102 32 35 26 -22 -24 -14 -12 -15 -4 3 8 10 10 9 2 -4 -14 -12 -14 -9 -14 -9 2 4 11 15 14 9 12 13 6 0 -9 -2
11 9 -7 -33 -61 -58 -91 1 67 31 30 22 62 29 46 37 15 -16 -26 -37 -30 -18 -17 -15 -3 -9 0 1 -1 -18 -28 -32 -27 -14 -5 -2 3 7 9 10 5 4 9 14 15 13 5 14 12
7 0 38 -56 -6 0 4 75 21 32 15 7 53 64 48 -36 8 -39 -28 -42 -28 -25 -27 -31 -18 -7 -2 0 -12 -19 -16 -7 -4 -1 -1 5 7 13 15 16 14 12 16 21 13 13 13 18 25
57 31 87 47 44 27 1 52 40 3 48 38 89 68 25 -30 -33 -30 -48 -60 -60 -54 -51 -51 -47 -21 -6 -3 1 0 0 1 0 3 5 4 1 5 18 29 24 21 25 24 20 21 20 23 18
35 9 45 59 116 48 11 3 11 27 13 82 81 82 19 -36 -18 -6 -18 -39 -60 -48 -48 -44 -40 -40 -33 -32 1 8 1 5 9 7 4 2 10 17 25 26 24 21 32 34 34 22 12 -14 -9
28 1 22 88 146 78 46 27 -3 -12 26 52 30 51 1 27 20 15 -6 -41 -53 -45 -44 -37 -27 -28 -21 -25 -17 -12 -3 -4 -5 -3 5 4 -2 0 9 10 29 21 21 15 12 -1 -3 10 18
-10 -10 34 30 88 116 105 57 47 -2 24 22 17 63 127 85 60 53 27 5 -25 -26 -32 -25 -22 -18 -23 -23 -25 -22 -26 -26 -15 -11 -9 -13 -2 -5 11 4 19 23 6 1 -2 2 20 18 6
28 91 15 9 72 143 103 71 33 44 -13 7 141 176 190 117 60 50 30 32 32 -10 -10 -13 -21 -16 -14 -18 -24 -22 -22 -18 -15 -13 -13 -17 -17 -17 -9 -8 -8 -1 -4 13 16 16 23 25 15
59 75 35 19 49 182 204 85 1 61 11 15 112 234 191 144 91 56 41 13 21 5 -12 -30 -22 -15 -15 -24 -24 -30 -13 -22 -16 -10 -3 -6 -12 -12 -5 -4 -6 -15 -11 7 5 7 -6 -13 -37
30 72 28 51 83 198 197 108 8 0 -22 47 120 192 152 113 74 31 31 19 27 29 4 -19 -21 -17 -17 -28 -39 -33 -21 -18 -16 -8 -4 0 5 -4 -22 -23 -26 -23 -13 -16 -11 0 -12 -26 -35
-34 -18 26 57 48 166 226 133 91 -11 35 56 111 122 112 90 44 15 22 24 26 17 11 -16 -13 -9 -17 -33 -37 -36 -20 -17 1 4 8 24 12 2 -5 -14 -13 -6 -6 -10 -21 -30 -39 -53 -52
18 73 137 138 117 119 171 177 112 92 69 67 67 54 58 33 32 44 23 16 9 22 13 9 0 -9 8 -6 -18 -9 2 5 10 13 18 18 20 25 19 6 -5 -1 -2 -3 -13 -18 -20 -26 -23
86 97 67 98 120 54 56 118 64 229 186 94 48 19 39 24 34 13 -5 0 10 3 26 8 8 -6 -15 9 -5 -9 -16 -5 -2 4 4 2 5 17 18 23 7 16 23 20 15 33 31 46 32
86 37 2 76 66 89 74 54 112 239 240 151 87 55 21 10 -4 -11 8 18 36 43 21 28 31 8 1 -1 13 9 2 -6 -8 -9 2 8 12 9 26 39 40 51 45 53 65 82 74 54 46
22 16 70 26 81 89 156 41 173 175 223 237 104 74 64 30 49 15 10 25 46 58 37 39 25 23 20 16 20 0 -20 -5 17 18 10 18 19 23 38 30 31 61 67 62 70 63 58 49 41
42 28 144 -15 58 76 92 54 157 142 147 208 170 88 70 65 27 32 18 46 50 37 40 48 39 31 40 48 50 40 39 32 33 38 27 47 55 55 52 31 52 88 76 78 73 64 57 63 38
74 74 70 66 26 87 57 33 106 134 137 148 142 100 97 43 19 15 19 35 50 69 72 77 62 60 89 99 94 80 97 69 61 62 71 64 63 90 86 77 63 57 59 57 54 63 74 55 51
105 66 46 88 182 199 170 97 119 90 51 54 27 34 42 57 41 9 30 56 60 78 99 99 104 90 63 75 78 59 39 25 37 68 73 78 93 96 90 65 54 62 61 62 59 61 67 66 53
140 80 98 108 135 51 209 29 68 161 142 104 52 82 21 -5 -2 20 20 10 45 76 68 84 83 47 6 40 58 85 72 49 -1 -7 10 48 75 84 79 79 70 60 62 64 57 56 58 66 67
89 115 138 114 120 143 165 149 87 158 132 132 160 132 49 49 35 10 33 60 76 56 59 42 19 -33 -16 -4 14 37 -2 -20 -59 -55 -34 29 65 70 83 88 88 82 82 68 60 57 63 64 65
55 130 191 175 152 75 1 168 75 220 231 194 228 156 124 69 72 49 67 90 60 83 73 35 0 -63 -32 -29 -20 7 -10 -32 -35 -27 0 50 43 43 69 95 102 102 94 78 54 42 45 56 62
156 143 112 106 147 14 77 177 105 102 185 225 324 367 248 142 117 108 103 80 76 90 75 44 4 -63 -28 -7 -4 23 31 32 26 40 88 102 92 69 64 116 131 110 96 77 59 50 48 54 65
79 106 87 66 80 58 129 74 82 151 74 28 133 231 255 223 205 171 164 145 118 111 67 59 24 -16 9 30 9 28 48 45 34 56 81 112 95 71 93 103 117 94 98 84 69 61 59 67 60
102 54 55 128 98 87 82 72 96 50 -7 50 103 191 201 231 260 261 214 214 175 135 126 124 86 34 68 78 44 65 64 76 84 90 100 103 86 77 90 107 120 92 84 77 76 59 60 74 70
70 58 110 202 152 110 128 152 94 70 -10 77 23 210 150 167 204 253 273 271 255 212 185 159 125 122 142 143 129 137 124 126 139 152 116 111 98 93 104 111 98 84 69 71 78 63 59 61 54
205 156 145 94 159 146 133 138 89 49 46 61 51 165 165 141 160 288 306 304 310 295 246 217 177 169 151 175 205 236 218 194 206 187 143 135 129 116 115 115 99 81 66 62 70 64 59 71 67
138 118 136 157 168 153 136 149 26 52 108 56 46 80 87 108 141 236 261 287 284 255 250 263 242 227 228 195 225 278 268 273 245 211 182 148 138 141 121 111 96 77 65 57 66 62 60 59 58

GFSSGP_con_3kmhel_003.txt.gz
Helicity
34 63 64 51 39 3 -0 42 15 26 25 37 -29 -6 -5 17 34 -48 -0 -2 -65 -20 10 -1 -5 8 14 13 19 10 1 -6 3 -1 -5 3 3 11 21 5 -10 -6 6 4 -8 -18 -23 -18 -9
58 41 46 48 6 -15 -7 27 -2 46 -3 -16 5 -2 16 2 37 -57 -115 -41 -1 15 23 3 -0 12 16 18 14 -2 5 -0 -1 -7 -2 4 10 15 15 8 -8 -2 -5 -18 -11 -16 -19 -13 -8
35 28 49 81 43 18 -23 20 30 4 22 14 3 31 31 -40 -18 -68 -40 -33 -3 3 7 11 12 13 8 4 -2 -8 -16 -19 -17 -8 -3 -2 -0 4 2 1 6 2 -14 -16 -13 -19 -15 -9 -1
16 32 29 10 5 -7 -28 32 62 3 10 5 8 20 47 6 -21 22 -34 -11 -4 -7 2 9 18 12 3 7 -1 -13 -21 -18 -14 -7 -10 -9 -5 12 9 9 6 -4 -8 -8 -9 -12 -7 2 2
-10 34 -23 -9 -32 -52 -53 -12 14 19 17 15 32 -10 -12 20 1 -39 -31 -42 -32 -27 -10 -5 5 8 12 5 -20 -26 -17 -5 -6 -10 -6 -8 5 14 15 9 2 -4 -6 -5 -11 -4 6 15 13
-5 13 -53 -36 -41 -59 -35 99 4 -10 6 32 37 47 -0 -63 -49 -52 -50 -45 -49 -34 -30 -29 -4 11 6 -2 -15 -14 -16 -12 -8 -13 -7 1 11 19 10 -0 -8 -4 -5 -0 -2 8 11 14 24
14 15 -12 -47 -42 -57 32 74 14 -33 -12 14 75 43 -0 -31 -48 -47 -44 -44 -51 -53 -50 -42 -18 -1 4 -3 -11 -11 -7 -4 -7 -0 5 16 21 17 12 13 4 8 9 13 12 8 14 11 4
-1 18 35 55 95 24 41 55 47 47 12 26 48 58 12 -15 -31 -32 -36 -36 -51 -49 -39 -29 -18 -11 -8 -16 -10 -10 -14 -13 -6 1 5 3 2 7 10 8 8 6 16 14 14 -0 3 1 4
-14 28 18 74 88 44 91 63 7 10 55 44 34 13 19 29 1 -3 -11 -30 -49 -47 -33 -22 -20 -13 -9 -14 -12 -17 -19 -10 -6 -6 -7 -4 -5 -4 -7 -26 -0 4 3 16 -0 -0 14 13 11
-14 12 39 27 75 83 102 63 69 1 56 40 23 -2 87 83 45 46 34 5 -17 -13 -17 -14 -13 -8 -4 -16 -16 -15 -9 -8 -4 -4 -4 -9 -11 -19 -8 -5 -4 6 -1 -9 -14 14 22 19 16
-18 53 19 35 30 58 123 77 45 14 50 78 120 120 163 124 74 52 42 28 15 4 -4 -4 -6 -11 -10 -21 -21 -20 -18 -14 -9 -0 -2 -13 -17 -18 -14 -12 -18 -14 -10 -8 -5 -7 -1 -7 -1
34 33 48 23 65 136 167 108 32 49 15 50 90 175 180 132 86 54 42 27 21 9 2 -1 -3 -7 -10 -18 -14 -14 -12 -11 -6 -6 -7 -11 -11 -12 -12 -17 -16 -17 -17 -4 -11 -14 -18 -36 -45
44 41 31 82 91 77 167 137 30 11 -7 18 115 175 207 130 86 45 33 30 26 26 16 9 2 -1 -5 -4 -10 -9 -13 -8 -5 -7 -8 -12 -9 -9 -13 -15 -13 -21 -22 -18 -17 -30 -33 -45 -47
13 7 11 26 73 71 146 78 49 -17 -29 6 88 126 142 130 94 46 43 38 38 22 20 13 10 5 2 -3 -2 -10 -14 -14 -5 -6 -6 5 -6 -8 -12 -2 -9 -8 -12 -19 -19 -20 -36 -50 -57
33 -0 64 41 119 42 169 106 112 3 -7 -10 21 40 82 80 66 61 50 40 23 23 11 32 19 13 18 12 -15 -14 -9 1 -1 -4 -4 5 6 12 -0 -5 6 11 6 -7 -13 -9 -4 -16 -27
37 24 -3 20 50 31 104 153 119 81 84 20 17 6 33 50 76 52 33 22 13 1 15 9 6 17 9 10 2 -9 -9 -1 -1 -3 -5 16 5 3 3 11 13 21 36 31 18 23 26 42 40
54 -40 17 -38 22 15 90 77 76 165 122 93 43 24 7 15 16 29 30 12 8 16 7 13 19 26 15 4 4 7 -6 -10 -14 -14 -16 -14 -18 -3 12 2 2 15 36 61 58 63 50 57 45
-44 12 19 2 4 -1 87 94 -29 121 167 130 71 30 1 13 29 12 4 -3 6 9 1 -0 13 21 25 20 5 -1 -8 -15 -17 -18 -13 -2 11 22 9 -0 14 46 55 78 80 58 53 48 37
-6 25 19 24 30 58 74 66 12 82 118 99 103 58 29 24 15 -14 -16 -20 -23 -15 -4 -1 21 19 7 13 18 2 7 -5 -0 -0 1 16 9 22 28 25 39 50 60 63 55 47 43 43 34
8 -9 -13 49 72 26 18 66 27 52 152 98 94 87 41 -7 -20 -17 -18 -6 -7 -14 -4 1 13 21 23 22 12 7 12 6 3 3 7 12 29 35 33 61 63 58 47 48 51 49 39 25 23
51 -33 -51 7 125 156 33 25 51 40 55 69 44 15 4 14 53 37 16 10 1 -1 4 13 22 29 9 -5 -35 -34 -38 -41 -54 -44 -17 30 40 44 64 67 56 52 47 54 53 46 42 40 38
13 17 29 45 59 34 53 35 15 87 97 111 71 70 34 18 19 19 32 27 14 9 6 15 14 7 -26 -30 -24 1 1 -6 -36 -54 -58 -31 2 40 52 46 41 59 55 53 52 44 40 36 32
71 63 56 54 68 86 47 38 35 49 35 108 160 97 46 29 35 30 16 8 15 -11 -14 -0 2 -25 -52 -42 -30 -22 -34 -60 -89 -90 -75 -41 -5 25 37 45 51 52 49 51 45 45 37 35 29
129 122 139 164 115 47 -9 11 -15 54 96 139 153 143 86 38 40 4 -12 -24 -27 -19 -12 -21 -12 -29 -56 -57 -49 -44 -59 -65 -76 -71 -54 -34 13 73 71 73 66 57 51 52 52 46 43 33 29
127 105 146 127 147 92 93 37 5 3 92 174 100 227 226 121 35 23 12 -9 -33 -29 -13 -7 -5 -39 -60 -63 -78 -70 -52 -42 -49 -33 -24 -9 39 62 71 91 92 82 55 58 56 46 38 38 34
117 75 176 144 132 73 143 85 -44 -8 -21 49 25 82 114 178 114 46 33 38 10 -2 7 10 2 -32 -54 -61 -67 -50 -29 -30 -16 3 16 27 42 73 94 94 96 108 92 88 73 58 46 49 50
243 198 94 111 164 119 85 78 59 36 4 39 51 70 134 121 138 123 70 46 49 35 33 41 34 -6 -12 -34 -33 -26 -24 -15 -3 29 47 50 70 98 116 109 109 105 111 94 86 68 58 60 62
179 133 142 168 97 51 77 72 27 44 10 -5 21 100 103 150 113 129 130 122 87 51 38 48 60 45 29 4 -1 16 19 16 27 74 85 57 85 104 129 132 109 108 106 94 81 67 56 56 60
192 191 215 175 174 104 47 9 43 7 -9 19 17 101 111 182 144 117 171 140 131 95 65 67 61 60 36 39 58 80 84 56 45 62 192 128 82 173 133 139 110 107 95 93 72 49 34 34 33
169 88 96 184 188 193 160 91 80 33 -29 11 -9 23 57 136 142 73 105 99 48 42 42 50 69 81 100 121 99 119 147 179 169 177 130 185 141 74 136 123 111 110 89 76 62 37 20 26 23

GFSSGP_con_3kmhel_006.txt.gz
Helicity
153 173 92 127 84 5 8 84 -6 -1 5 -17 8 13 6 21 51 -41 -73 -55 -66 -44 -26 -8 28 37 32 31 38 14 -2 2 21 35 38 41 46 40 24 20 11 12 8 8 -8 -13 -12 -9 -6
106 97 90 96 41 -7 9 15 12 17 -6 -21 -1 -15 4 -17 9 -12 -51 -61 -55 -61 -17 -20 24 31 23 24 23 -11 -35 -13 20 20 29 35 35 22 16 11 6 -5 -7 -11 -13 -9 -8 -6 0
86 89 87 57 32 45 15 -12 -13 -11 -22 8 18 20 0 -38 -15 -39 -24 -38 -51 -41 -26 -53 14 17 13 14 -1 -43 -43 14 6 10 12 21 19 15 12 13 -4 -8 -13 -10 -9 -7 -3 0 12
55 90 97 32 11 20 -8 -4 1 -13 -14 18 7 -9 21 -36 -3 -32 -37 -39 -49 -33 -7 -40 17 13 -7 -16 -13 -47 -36 -2 -25 -32 -47 -20 1 8 -1 -4 -21 -21 -14 -14 -15 -9 3 7 7
60 45 -2 -12 -4 -5 -8 -1 -9 -1 5 13 -16 -6 -1 -43 -8 -25 -44 -27 -36 -18 -16 -4 13 2 -12 -23 -14 -12 -7 -22 -15 -13 -14 -10 6 14 1 6 -4 -16 -11 -9 -4 2 8 10 9
75 23 -21 -4 -17 -34 -34 -24 -30 -4 -2 5 -4 28 1 -61 -46 -48 -37 -29 -27 -28 -21 -20 -11 -13 -14 -17 -9 -6 0 -6 -6 -5 -3 0 10 13 1 -1 -5 -4 -4 4 8 14 11 10 3
51 47 5 -5 -12 -20 -25 -27 -47 -11 -11 -15 30 13 0 -28 -48 -47 -34 -28 -38 -38 -41 -25 -6 -11 -15 -17 -14 -11 -4 -5 -3 0 -2 0 8 8 8 0 -2 4 1 9 8 1 1 7 -9
47 53 27 46 5 18 19 19 -28 -25 6 15 3 3 20 16 -17 -23 -30 -33 -36 -33 -29 -31 -27 -7 -7 -16 -18 -16 -15 -8 -9 -7 -6 2 5 3 16 26 -4 -6 -4 -5 -4 1 8 6 -2
13 65 1 9 44 48 54 -10 -28 -13 14 14 -6 8 56 50 14 7 -2 -26 -34 -39 -32 -25 -15 -15 -5 -20 -20 -13 -10 -13 -14 -5 -4 11 8 2 3 -44 -13 4 2 -4 0 2 8 21 31
41 69 23 11 -2 61 71 24 45 23 46 28 -4 15 74 68 39 30 17 4 -7 -20 -23 -12 -11 -9 -20 -16 -23 -14 -12 -9 -2 -1 -10 2 -13 -8 4 -1 -4 2 3 2 0 3 14 36 -13
-1 69 17 -10 -8 53 108 43 27 -25 44 59 57 33 88 81 45 29 19 17 16 0 -11 -18 -16 -15 -12 -26 -19 -25 -20 -18 -11 -8 -6 -9 -6 -11 -7 -8 -3 -2 8 10 16 11 -6 -20 -23
36 12 28 20 -12 14 97 80 38 -6 25 39 46 65 114 80 50 23 7 3 6 7 1 0 -9 -13 -12 -35 -20 -14 -16 -14 -12 -8 -5 -3 2 -5 -8 -15 -17 -9 -20 -16 -9 -18 -25 -27 -29
40 32 21 11 -13 -17 46 60 38 -4 -20 23 44 73 91 80 51 26 18 8 3 6 6 5 0 -6 -6 -10 -17 -17 -11 -9 -8 -10 -1 0 -1 -12 -10 -16 -14 -15 -9 -18 -21 -26 -30 -29 -30
16 18 26 2 -19 -2 32 27 13 -11 -8 -14 52 78 68 71 56 25 18 11 9 3 4 3 6 1 1 -2 -1 -13 -15 -15 -10 -8 -7 -1 -5 -24 -18 -22 -17 -10 -10 -11 -9 -15 -17 -21 -27
8 24 9 15 23 15 2 69 47 4 -20 -44 9 41 60 56 55 51 36 24 7 5 4 7 2 8 5 4 -5 -4 -9 -8 -7 -11 -13 -8 -9 -13 -10 -16 -8 -4 1 7 15 8 -2 -17 -6
-19 12 21 28 44 25 21 67 75 79 16 -44 -27 3 12 32 48 41 39 26 14 4 7 3 1 20 10 5 -1 -8 -9 -3 0 -9 -15 -12 -8 -10 -11 -13 -6 -4 8 11 19 3 16 19 14
-19 11 5 49 3 10 29 26 75 61 47 -11 -39 -30 -8 -1 27 38 26 20 16 12 11 11 12 19 19 8 6 9 5 -19 -25 -13 -8 6 -6 -6 -6 -1 0 24 3 2 -8 14 37 25 27
-11 8 28 -10 -34 -9 35 26 18 35 74 53 9 -22 -38 -17 15 29 22 22 14 19 13 6 7 8 20 14 7 -10 -6 -9 -15 -12 7 -3 2 17 11 7 -4 5 15 -14 12 59 62 44 34
0 -1 9 28 31 4 49 45 2 -10 40 63 62 38 9 -13 6 6 9 18 27 31 35 29 23 18 14 6 12 12 2 -11 -18 -23 -18 2 7 1 3 2 18 20 -10 40 53 28 33 28 51
18 -29 -8 22 40 14 13 44 18 11 63 68 88 79 38 -7 -23 -4 5 10 27 43 40 36 15 15 15 -4 -9 -25 -20 -17 6 -8 1 0 8 18 14 8 10 35 30 23 34 30 20 28 37
-39 -16 -35 16 18 10 36 27 26 4 11 56 54 78 43 34 48 32 15 16 29 49 46 33 21 7 4 -14 -16 -27 -33 -30 -14 -17 -12 -8 -10 -4 -7 -1 3 27 2 41 36 31 23 26 48
-48 -33 32 38 45 16 27 13 17 14 34 62 91 89 73 88 92 33 33 43 53 54 37 35 3 -16 -20 -11 -27 -10 -35 -28 -24 -34 -45 -65 -56 -44 -13 6 15 7 19 58 51 41 21 22 42
-69 -1 27 39 42 40 68 39 39 69 -1 28 93 126 113 108 89 111 100 83 59 54 46 22 -11 -29 -33 -28 -54 -39 -47 -45 -61 -56 -67 -86 -47 -17 17 38 41 28 26 63 38 41 32 34 23
44 36 60 40 47 -1 -7 67 17 36 -3 0 35 80 113 114 107 84 82 81 55 40 33 -4 -14 -36 -45 -49 -45 -55 -59 -64 -58 -43 -40 -40 -9 18 27 47 54 55 52 55 37 35 28 16 16
83 72 87 92 80 24 67 -7 3 32 34 -4 9 59 57 103 129 114 86 81 49 44 22 2 -8 -31 -47 -56 -62 -57 -51 -52 -60 -59 -34 -41 -8 14 61 56 61 57 55 58 36 39 29 24 9
84 60 69 61 75 72 28 21 -44 26 18 10 10 3 64 50 117 148 121 105 76 58 24 7 -3 -24 -22 -45 -67 -75 -68 -72 -60 -46 -44 -2 5 29 44 52 59 50 72 61 72 54 18 36 25
105 117 41 26 42 42 36 96 -7 29 24 4 6 23 32 51 44 123 132 112 112 68 36 24 -4 -2 16 -16 -54 -68 -71 -51 -41 -37 -2 17 27 49 69 81 76 67 66 70 75 33 54 42 40
82 111 97 72 56 43 39 34 43 5 9 5 21 35 24 56 49 61 115 152 159 103 45 34 24 19 21 20 -10 -33 -26 -26 -18 1 44 55 72 57 90 78 83 113 89 72 69 48 61 48 42
124 116 112 74 79 53 48 23 13 31 29 32 26 17 11 52 81 60 72 115 178 118 65 51 39 25 23 27 26 18 29 42 35 43 54 57 147 92 79 67 100 93 95 81 71 40 43 56 45
49 89 98 163 117 78 35 5 29 26 14 -16 -1 21 27 46 79 80 61 65 138 130 99 57 46 27 24 61 74 60 80 96 109 82 74 202 108 148 121 89 72 54 58 85 73 61 47 50 40

GFSSGP_con_3kmhel_009.txt.gz
Helicity
214 217 62 48 10 -73 4 -4 -14 -40 10 -1 2 15 -49 5 75 -30 -4 14 -28 -24 -36 -46 -41 -60 -31 -43 -2 -14 15 34 45 33 28 35 31 18 21 15 11 9 7 2 -9 -7 -6 -9 1
180 100 242 67 -23 -59 -16 2 15 18 10 -33 -20 0 -5 18 -14 -6 -44 -41 -3 -28 -20 -42 4 -9 1 -21 -34 -18 -41 -19 4 11 13 15 16 13 15 10 7 8 -2 -7 -9 -11 -4 0 2
136 98 206 63 -16 -8 20 -5 27 8 -15 -12 0 14 -11 -22 0 -21 -25 -14 -19 -24 -17 -48 -4 -11 -17 -36 -45 -39 -42 -41 -18 -5 2 5 7 10 9 5 6 3 -5 -7 -5 -3 -2 -3 -1
69 97 79 26 19 20 11 33 -6 -15 5 15 29 30 7 -2 23 -2 -22 -9 3 -31 -29 -28 -22 -23 -23 -37 -35 -36 -37 -36 -29 -25 -12 0 9 12 8 6 7 0 -13 -2 2 5 7 2 -5
90 101 98 -14 8 16 23 8 -17 -5 14 -14 37 32 31 -2 31 -5 -21 -34 -21 -21 -16 -12 -28 -29 -29 -32 -31 -32 -25 -26 -40 -42 -33 -18 9 6 10 15 -11 -11 -3 9 16 15 13 4 -9
48 46 62 45 12 3 16 -17 -6 42 22 2 57 26 14 -10 1 -12 2 -41 -12 -10 -4 -17 -28 -32 -34 -31 -31 -28 -19 -36 -32 -31 -21 1 6 0 18 15 5 -4 8 24 25 17 8 3 -11
54 95 42 54 12 7 8 -10 2 12 7 11 26 39 19 6 -7 -13 15 -30 1 -3 -14 -11 -18 -32 -45 -31 -20 -19 -12 -7 1 -5 4 7 10 5 8 16 12 -7 0 4 6 0 -4 -7 -17
46 71 20 85 19 34 21 -16 16 10 34 39 -5 25 38 28 -4 -14 -5 -18 -23 -2 -11 5 -11 -23 -20 -22 -17 -9 1 -2 -1 3 4 13 19 16 27 24 19 13 -2 -8 2 10 11 32 33
45 61 47 42 134 42 8 32 -5 34 38 -2 27 48 55 44 3 22 20 -10 -29 -43 -3 -19 -18 -28 -26 -25 -24 -16 -9 -6 -1 6 7 29 26 33 25 45 29 13 20 10 16 25 33 22 20
15 87 89 46 59 61 5 34 35 11 30 29 18 86 95 39 24 46 17 17 -1 -6 16 16 10 -10 -11 -22 -21 -12 -8 0 5 8 5 26 -16 -16 1 18 12 12 15 22 6 24 24 37 94
41 113 187 18 43 38 27 25 27 23 22 45 33 66 66 51 28 24 12 3 4 -5 -6 23 19 -21 -6 16 -30 -26 -17 -13 -10 -4 -6 8 -24 8 40 34 48 42 52 39 -2 64 11 -31 -19
23 -13 -10 21 33 5 37 35 15 -4 43 42 32 61 61 47 33 9 10 1 6 -5 -11 -14 -1 -9 -25 -20 -16 1 -2 -4 -1 7 1 1 -7 21 5 -44 -6 -68 8 -32 -12 -20 -39 -15 -19
3 29 6 4 34 2 42 50 28 10 24 31 65 61 32 27 26 2 -6 -5 -8 2 0 5 3 -14 -16 -21 -11 -15 -10 -14 -7 -21 -5 -6 5 -34 -28 -19 -11 -22 -31 -27 -24 -26 -25 -12 6
3 1 17 13 -2 28 -8 52 35 48 16 57 70 48 22 19 24 8 -4 -8 -9 -1 1 -2 7 -1 -14 -18 4 -24 -34 -19 -14 -13 -5 -19 -9 -31 -19 -13 -12 -19 -17 -24 -12 -8 -22 -11 9
33 9 14 10 7 34 -38 44 11 79 31 54 44 31 24 16 23 21 11 6 3 -4 -4 -2 -1 14 5 -7 -14 -18 -14 -7 -10 -11 -48 -11 -5 -4 -10 -14 -11 -7 57 23 23 11 47 16 15
0 21 23 49 29 45 -8 53 49 41 42 35 9 10 14 22 23 15 11 9 15 11 12 -3 -1 22 17 4 -8 -6 0 -22 -17 -25 11 26 -5 -5 -6 0 -1 37 16 34 14 11 -16 14 20
3 0 34 81 35 57 16 37 29 41 27 22 2 -21 -2 9 16 26 21 10 7 5 28 17 10 16 53 20 -5 1 -17 -20 -18 -16 -43 -6 5 -2 -7 -10 -33 3 -5 44 32 25 40 80 27
-18 11 13 88 63 23 5 25 36 38 18 21 13 -9 -37 -17 8 25 15 19 5 35 25 26 20 4 31 33 -1 -18 -5 -26 -19 -24 -18 31 -10 6 13 -6 48 2 32 15 31 69 74 52 18
11 7 8 12 97 5 18 9 58 39 6 13 39 3 10 -25 0 12 21 22 30 38 43 49 42 50 22 43 24 -7 -9 -1 -3 -8 97 41 23 20 44 0 46 28 6 79 89 63 31 40 71
0 -6 -9 11 93 7 7 10 54 74 5 0 16 31 23 12 -7 -3 26 21 50 58 86 98 91 87 60 43 3 -21 -2 10 -5 -8 31 20 49 22 51 23 35 66 43 62 63 39 39 37 69
-35 -27 -35 -8 131 -25 11 4 31 50 73 11 6 17 34 22 20 69 26 28 47 67 84 121 117 105 89 0 15 -4 -51 -26 18 16 53 23 8 16 22 24 15 65 32 36 63 32 32 17 70
-35 -33 35 -3 107 47 25 -6 53 30 49 69 48 42 47 86 36 71 97 51 46 72 98 88 122 91 78 40 -6 56 29 13 5 15 23 51 12 16 15 0 10 18 -6 65 48 33 9 19 29
-35 -32 -37 8 69 63 40 6 40 -7 62 64 43 53 37 44 69 103 188 138 75 89 100 106 126 103 52 74 -5 45 0 5 -8 -11 20 -18 -11 -21 -5 8 16 10 7 52 20 34 12 21 10
-7 19 7 8 28 11 24 61 -1 173 -22 49 56 55 63 29 62 99 95 156 124 91 106 109 146 119 70 71 33 -21 27 -35 -10 -29 -31 -29 -22 -1 13 32 41 30 20 53 26 20 4 -12 16
22 14 49 38 71 18 19 77 23 32 59 26 6 54 85 102 69 114 138 157 177 120 151 135 154 111 73 49 38 18 -19 -9 -62 -55 -39 -27 -8 18 87 48 60 50 46 60 51 47 11 13 5
34 20 72 64 46 60 22 30 -20 39 30 34 33 23 49 87 71 91 104 114 222 179 158 142 141 104 69 44 36 26 1 -33 -35 -40 -53 -23 -13 24 122 83 77 43 76 57 75 66 35 40 29
23 72 16 16 25 37 43 46 21 70 52 46 31 12 41 81 51 91 101 118 149 165 174 149 128 95 58 51 59 40 10 -41 -26 -35 -5 -21 20 55 126 90 66 76 69 69 72 47 84 47 43
-2 61 61 61 49 42 32 23 71 72 45 24 51 12 31 29 48 60 114 129 125 147 144 114 106 93 63 63 68 48 13 -4 -38 1 13 29 63 47 179 132 96 122 118 157 100 52 79 68 37
58 25 78 67 58 52 50 34 38 58 51 22 2 -2 31 43 52 31 128 129 149 140 155 118 93 77 77 99 99 74 54 49 40 33 61 72 67 140 160 187 155 176 119 136 262 43 43 105 72
13 36 36 78 78 75 16 27 61 50 72 33 23 41 44 60 72 49 51 106 119 121 169 152 102 78 84 124 140 135 107 105 112 111 132 116 158 195 169 188 190 249 209 272 254 100 63 83 81

GFSSGP_con_3kmhel_012.txt.gz
Helicity
189 96 12 39 74 66 47 4 67 8 27 7 18 -10 10 40 -19 -12 -26 -27 -34 -43 -46 -54 -49 -51 -53 -38 -20 -17 -17 3 10 27 27 12 7 20 12 8 3 7 5 -0 -1 -14 -13 -12 -14
147 90 42 17 127 45 -19 -79 -20 12 -23 14 -22 -62 18 -7 22 -5 -47 -23 -13 -19 -37 -40 -42 -48 -53 -50 -33 -28 -31 -9 1 11 10 1 14 15 8 5 3 5 1 -1 -4 -8 -8 -9 -10
62 136 105 -28 -29 -101 -25 -50 -4 19 -39 48 11 51 7 20 12 -4 -28 -13 -26 -28 -27 -28 -23 -33 -44 -45 -33 -37 -37 -34 -22 -9 -5 1 13 7 9 9 7 11 -4 -5 -4 -2 -2 -3 -5
3 -40 78 171 -63 -41 -11 20 30 5 40 -8 -6 23 25 8 26 -5 -13 -22 -13 -11 -14 -17 -20 -30 -40 -40 -35 -36 -39 -37 -29 -18 -7 -0 2 6 8 7 15 16 -3 -5 -2 -1 -1 -5 2
-0 123 207 5 34 -13 24 56 64 11 74 76 103 74 41 37 1 24 3 -2 -13 -19 -13 -13 -21 -29 -35 -32 -30 -31 -34 -32 -26 -17 -8 2 2 9 19 18 21 19 18 11 -0 -5 -10 -19 -31
137 75 215 46 9 20 19 25 -0 54 14 102 77 77 -9 23 63 5 3 -13 4 -2 -4 -11 -21 -30 -30 -24 -26 -29 -30 -25 -26 -21 -9 5 13 21 30 28 22 28 16 16 14 12 -4 -13 -18
125 203 66 49 32 24 9 42 -9 67 89 45 137 30 24 28 42 22 -8 -43 5 12 10 -12 -20 -30 -24 -23 -21 -27 -26 -24 -19 -8 4 13 19 23 43 45 30 18 -7 -13 -10 -22 -6 28 45
212 114 31 15 39 47 -18 47 3 24 123 47 56 46 79 4 114 40 13 -4 -16 40 -5 -19 -23 -21 -24 -18 -14 -21 -16 -13 -5 3 10 18 22 25 37 49 46 44 38 21 23 34 25 25 24
41 -40 41 24 31 43 -13 22 22 42 37 110 -36 110 63 39 107 -14 18 7 -54 -4 8 -7 -14 -23 -23 -22 -18 -14 -8 -1 2 6 17 23 11 46 58 59 67 63 32 13 33 31 15 22 41
56 -10 61 82 36 26 19 35 28 18 -5 26 77 88 81 72 122 22 31 -4 -1 -15 20 -40 -6 -12 -30 -22 -10 -11 -4 1 4 12 32 16 20 3 18 9 21 51 -39 -14 8 22 26 29 60
151 54 113 192 31 -13 -7 55 18 64 -0 68 152 161 82 38 155 30 5 18 3 -3 -26 72 -14 18 -21 62 -12 -22 -8 -19 -19 1 36 1 -0 7 123 -1 22 16 -47 51 -1 30 -1 43 -15
-6 104 148 22 50 59 13 50 20 58 33 61 84 129 48 14 70 53 81 17 77 49 61 24 15 -42 -22 1 -38 -46 -2 -39 -1 17 33 -27 2 -21 -68 38 35 58 73 53 31 -11 1 -8 -11
20 107 48 20 45 26 -4 58 56 16 51 48 80 105 36 7 -1 77 -0 27 85 80 52 36 12 -0 -15 -31 -4 -35 21 -17 59 85 52 -39 -22 -2 34 26 -18 -5 14 31 -15 -7 59 -9 20
28 -7 10 16 17 46 53 65 53 37 58 57 116 113 52 10 -6 13 6 14 92 27 78 82 19 26 -8 -33 -22 -13 -24 -11 12 -51 97 20 -20 -10 -6 -28 -20 -2 35 35 36 30 1 -1 -18
46 44 10 7 -6 31 -8 75 41 111 28 69 81 78 59 29 8 5 -28 17 -1 29 27 129 101 40 29 -15 -15 4 -26 -31 -22 -25 79 28 10 32 -26 -10 16 26 58 25 50 12 25 -13 27
33 18 2 22 38 43 -3 62 36 105 37 52 62 57 61 32 36 12 -5 -20 -23 32 45 67 27 90 22 3 -12 -23 -6 -38 -41 -33 46 40 56 47 -1 -12 27 -2 69 18 56 49 43 2 54
4 -10 18 47 39 70 -3 112 49 35 59 55 48 44 48 26 11 29 15 -8 27 37 101 66 14 114 105 49 16 -25 -51 -44 -30 -65 -7 86 105 12 1 -7 16 43 55 46 47 56 38 67 96
-5 6 -5 17 29 38 223 239 266 38 34 23 50 46 28 27 20 69 17 24 17 83 116 104 18 32 180 137 22 -18 -1 -3 -38 -50 -22 97 35 51 61 6 42 52 55 68 71 54 70 69 65
20 7 24 6 27 3 226 293 -110 -111 7 19 60 26 49 22 25 52 32 52 35 109 145 139 79 56 147 139 73 13 -34 47 4 5 -30 95 135 77 85 19 38 50 41 103 97 99 93 35 55
7 20 -0 44 102 -7 92 189 25 -73 -21 40 68 44 29 26 33 20 79 33 82 108 167 172 146 109 118 146 124 51 -14 -15 46 23 134 133 53 33 71 39 28 88 66 63 129 46 29 8 78
-32 -9 3 24 90 27 13 13 78 13 37 12 44 71 45 76 49 120 84 52 88 151 203 202 178 154 154 147 118 11 -66 -92 -12 6 127 112 113 68 48 55 13 54 61 79 68 25 27 19 31
-9 -17 16 33 135 86 9 -22 120 23 109 52 79 32 91 122 99 100 237 219 82 166 195 213 229 188 175 131 110 68 50 17 38 49 83 92 121 63 97 28 23 75 52 96 61 48 23 22 21
-19 -9 -2 23 47 80 15 28 6 -22 87 136 64 60 31 105 114 119 308 362 221 169 248 258 239 194 181 143 95 87 60 34 -6 -10 5 184 89 -8 30 38 80 61 31 70 103 90 54 10 8
12 8 29 19 22 5 131 122 10 103 162 26 104 48 35 60 135 159 245 313 314 186 292 260 264 210 179 164 115 81 112 15 -3 -3 113 64 26 38 46 93 108 74 43 86 62 61 45 44 15
-18 17 46 53 43 32 28 158 95 85 67 54 146 118 94 46 124 196 256 338 369 286 313 376 310 246 188 160 121 74 75 16 -41 -29 18 15 16 39 46 91 114 90 54 76 68 86 38 55 57
17 -29 86 98 75 28 18 45 96 208 115 161 261 20 82 170 110 206 260 311 338 339 280 343 415 312 217 146 128 84 61 33 -39 -16 -17 14 1 20 160 157 165 116 93 67 111 91 38 111 76
16 30 -9 2 20 36 32 68 -11 54 234 126 21 24 45 176 103 137 271 318 344 337 314 327 386 351 235 167 136 93 65 64 12 4 -20 4 -10 -8 210 165 170 140 134 84 91 68 81 183 75
-57 37 51 29 62 60 34 18 121 34 193 116 170 33 43 17 159 133 209 297 326 346 325 301 316 340 237 163 129 98 84 59 25 12 15 28 12 22 177 181 178 182 140 141 158 70 83 226 125
55 -10 -11 55 42 69 59 16 40 93 109 197 90 19 38 28 79 120 166 271 351 333 328 296 259 256 215 150 114 100 92 77 56 38 67 85 54 117 252 284 269 223 180 187 176 81 67 97 172
13 65 -6 48 84 91 20 31 6 41 128 155 87 71 68 18 57 129 138 256 345 340 299 276 224 219 207 183 132 116 104 97 94 94 94 161 185 169 233 337 325 284 276 291 284 151 102 157 190

GFSSGP_con_3kmhel_015.txt.gz
Helicity
91 9 23 41 6 17 -10 4 -33 -3 11 7 -5 -9 19 29 -45 -22 -51 -48 -32 -50 -79 -47 -36 -50 -52 -44 -25 -5 2 7 10 2 10 9 10 5 4 9 8 9 13 18 1 -20 -23 5 5
77 44 43 50 -67 -99 -27 -6 -12 18 -8 27 -42 -24 41 34 78 -23 -75 -39 -28 -39 -51 -28 -40 -41 -44 -41 -27 -20 -9 0 3 2 3 8 3 -2 12 17 13 15 18 13 -23 -25 -19 -1 21
91 67 14 148 -120 -159 -58 -23 19 36 -2 -8 -9 7 21 34 4 -40 -50 -23 -27 -37 -44 -40 -35 -35 -41 -32 -30 -26 -15 -5 -7 -12 -1 3 5 12 16 19 22 18 23 22 -17 -16 -12 -28 19
28 -25 6 29 -84 -155 -54 -26 20 -39 28 23 45 58 14 -22 -10 -59 -41 -35 -8 -17 -33 -30 -25 -29 -30 -24 -30 -28 -22 -18 -20 -18 -3 4 11 17 18 18 13 19 28 31 29 28 -16 -44 17
31 130 65 143 -85 -36 126 28 -1 79 108 167 91 62 40 2 -12 -51 -35 26 7 -7 -22 -27 -20 -20 -21 -19 -26 -30 -25 -18 -20 -14 -2 8 12 20 19 11 21 36 42 40 35 28 -30 -46 -26
7 116 64 142 -45 74 96 242 118 245 207 115 96 60 5 -3 -8 -23 -33 7 19 8 -17 -25 -19 -17 -12 -11 -23 -24 -16 -12 -8 2 9 10 13 23 21 28 37 39 40 31 28 31 25 21 24
153 199 110 137 20 93 60 150 74 193 176 36 101 142 34 5 -26 -13 14 31 23 17 3 -21 -31 -22 -12 -14 -16 -18 -15 -2 3 12 10 12 13 18 34 41 48 50 39 36 27 29 20 4 24
270 41 108 135 107 74 6 113 57 107 131 93 129 85 59 70 -26 -6 -26 8 45 29 15 -13 -31 -35 -26 -22 -14 -11 -6 0 8 6 11 13 10 32 50 59 66 50 44 23 22 30 37 43 60
86 -41 40 163 63 6 7 196 53 206 149 87 23 165 164 60 9 38 10 0 47 11 -6 -10 -20 -28 -28 -27 -15 -9 -2 2 3 5 20 14 21 34 49 29 39 43 21 19 41 38 55 68 81
115 49 96 107 66 3 59 95 45 89 131 87 127 131 232 138 88 52 14 30 -30 -4 -6 -30 -21 -19 -17 -18 -26 -15 -7 -10 -6 1 2 1 26 -9 5 20 33 20 -34 10 22 28 41 23 41
54 -31 84 49 100 8 78 91 136 161 126 120 278 352 263 147 106 87 22 -11 0 24 -18 8 -22 -14 -6 -10 -7 -16 -19 -19 -20 -2 15 20 9 -7 28 18 30 31 55 4 24 1 -1 29 46
2 25 124 32 -27 -40 61 50 176 85 177 127 291 304 273 168 109 89 36 37 -20 27 43 30 -14 -9 -41 22 6 -21 -37 -49 -48 -36 -14 15 28 42 26 -2 23 15 16 17 6 5 20 57 20
31 57 189 198 -29 -48 18 144 98 95 230 217 216 257 246 164 73 49 38 -21 -61 97 92 57 28 23 -2 34 9 -28 -30 -12 -3 19 -1 4 49 33 12 23 3 38 13 13 15 39 32 1 -6
49 32 33 77 1 91 226 36 77 174 186 294 279 192 175 162 96 22 47 21 65 161 147 95 60 50 23 -26 -14 4 3 69 74 77 74 12 28 50 60 25 28 41 41 26 46 12 18 -9 -3
24 25 43 32 -8 129 352 396 32 128 203 341 302 162 5 71 93 49 36 97 212 215 159 106 54 63 32 -5 -13 -24 -7 -11 -10 25 47 43 45 33 60 30 42 18 70 34 40 47 16 30 30
29 12 -9 51 41 -30 232 118 -43 94 265 328 334 135 36 -41 12 33 16 203 211 152 176 124 73 71 33 48 14 -15 -5 16 -26 32 18 47 57 63 36 28 21 24 40 40 46 40 45 29 52
21 -6 23 41 7 103 205 329 234 128 240 279 329 203 92 4 -54 -16 8 140 146 188 236 180 143 95 74 54 44 14 -20 -13 -30 9 14 62 94 47 31 30 33 39 32 64 82 57 55 49 54
-52 -72 -5 -14 0 152 206 134 17 78 187 233 286 270 127 70 24 31 30 38 145 214 238 156 167 155 85 59 60 16 -27 -27 -48 7 53 54 55 57 31 11 65 40 78 81 57 49 47 47 45
-65 -40 30 62 2 367 216 193 142 142 111 164 332 275 260 126 47 91 100 47 116 175 237 216 235 194 169 115 103 37 -6 -21 1 23 47 76 85 54 36 52 59 67 61 75 61 64 59 28 41
-79 -67 -48 -51 32 235 186 183 41 79 159 173 324 355 312 246 80 128 133 121 150 198 244 235 212 246 243 197 125 63 38 -25 7 4 -7 46 98 64 97 80 48 37 58 71 83 54 51 33 20
-42 -100 -84 -19 20 199 247 224 117 -5 152 34 50 262 323 305 250 190 163 162 181 240 255 251 246 261 277 232 168 106 56 7 -21 33 81 137 138 134 88 64 57 36 77 129 116 55 64 46 3
-10 -69 14 58 34 185 165 68 191 110 136 20 15 70 268 298 295 321 343 256 253 273 292 270 265 245 266 318 273 171 100 31 -37 18 100 90 120 120 109 90 55 82 84 118 79 71 59 62 29
-59 45 -10 87 65 178 36 79 -30 333 349 54 -108 65 215 267 315 377 451 466 422 421 395 355 296 250 235 295 275 184 104 43 -12 -15 118 137 127 114 111 74 80 84 71 72 116 89 72 98 127
-4 56 38 63 16 44 161 19 119 298 251 -46 -28 125 202 235 273 346 439 446 424 493 500 450 349 272 275 243 267 186 129 50 14 -20 50 92 140 74 50 102 129 96 79 109 87 58 52 50 108
19 22 25 71 70 40 64 138 105 50 215 210 199 126 306 176 243 291 350 418 415 459 527 546 432 329 307 244 201 201 116 32 28 -15 44 88 108 61 67 146 167 119 90 79 79 107 71 73 104
18 13 49 147 100 92 54 102 -45 255 186 189 321 374 329 40 144 274 362 444 466 450 480 528 518 376 306 279 190 141 140 43 -13 -29 30 107 108 86 128 157 171 124 90 85 73 88 71 29 55
-88 43 -70 69 65 101 86 55 24 61 219 225 305 303 235 158 -49 88 334 451 480 511 493 504 514 434 331 300 225 141 126 72 16 -39 -26 37 68 83 122 188 204 161 100 111 128 134 117 73 29
52 46 94 17 77 96 41 62 22 99 187 277 331 289 160 98 -74 -43 267 405 494 562 524 471 519 507 386 284 237 163 124 82 29 -2 -13 42 46 99 168 222 227 208 146 168 177 172 115 121 49
-9 16 20 126 55 85 122 54 -64 23 305 318 234 85 162 38 3 108 212 340 477 522 502 487 486 454 375 293 238 168 99 75 46 0 7 62 90 166 205 262 292 261 231 212 236 214 211 161 110
97 148 89 101 124 122 93 14 -11 45 -30 249 254 146 100 85 22 109 292 337 427 473 476 473 465 439 396 313 238 181 99 63 56 46 36 73 126 193 271 314 356 313 285 283 328 281 254 226 150

GFSSGP_con_3kmhel_018.txt.gz
Helicity
68 67 47 22 31 -42 -1 -3 25 14 8 -16 -30 5 -8 55 -34 -40 -49 -29 -32 -54 -76 -68 -72 -57 -57 -30 -20 1 26 10 1 4 6 9 16 10 13 14 16 2 -17 -19 -16 -21 -21 -12 1
47 43 -11 3 -101 -90 -12 5 22 -15 -1 13 18 42 61 3 74 -3 -74 -43 -58 -61 -19 -54 -66 -60 -46 -33 -16 12 16 1 2 -2 1 8 11 14 21 21 13 0 -16 -20 -17 -15 0 9 0
96 44 54 -35 -53 2 -22 15 15 7 8 -30 14 18 46 2 -6 -55 -60 -56 -70 -49 -39 -51 -54 -45 -40 -29 -10 4 -1 6 -3 -8 4 9 13 20 27 22 18 7 -19 -14 -15 -7 12 30 4
-57 -78 64 6 49 -32 -27 94 63 13 -5 4 53 108 55 -70 -17 -38 -44 -57 -56 -45 -53 -51 -37 -31 -30 -27 -19 -7 -5 1 -14 -3 3 10 20 29 27 21 19 15 17 6 8 24 26 26 -9
12 -60 130 62 2 -4 56 21 56 35 45 57 104 63 47 -54 -16 -22 -38 -43 -34 -53 -53 -44 -31 -25 -24 -23 -21 -15 -14 -10 -10 -4 4 12 24 24 25 27 30 28 25 42 49 43 37 21 -30
111 120 71 94 30 -75 85 10 137 119 112 124 179 129 -9 -6 1 -30 -33 -29 -26 -30 -43 -40 -27 -20 -17 -16 -16 -16 -16 -10 -3 6 10 19 28 30 27 26 23 24 30 24 29 29 24 7 -10
53 165 137 58 -33 -18 26 184 204 160 81 -3 88 145 7 -22 -38 7 8 -9 -8 -12 -27 -36 -38 -24 -12 -18 -7 -8 -7 4 10 12 16 24 28 19 22 23 28 23 20 14 9 20 24 17 9
-9 46 61 115 33 -23 42 133 174 127 0 45 107 48 28 -38 -35 -1 22 6 7 -5 -21 -26 -35 -33 -27 -20 -4 -4 6 14 12 15 21 26 20 21 23 22 25 17 15 1 3 27 42 31 32
-9 127 185 79 8 81 103 174 58 84 131 5 21 97 0 -30 -11 54 38 -1 -6 -11 -8 -21 -23 -22 -21 -21 -13 -4 14 13 14 15 26 11 12 17 33 23 29 11 16 12 8 21 32 22 -6
64 14 76 107 45 22 216 160 213 263 194 94 113 72 36 36 36 76 76 48 -9 -15 -13 -2 -15 -16 -17 -12 -17 -17 -10 -16 -11 -5 5 -10 19 10 29 32 25 3 11 11 3 13 0 -2 1
112 150 32 122 55 58 126 220 208 276 205 321 264 121 70 57 34 84 65 71 3 -7 -15 -3 -3 -10 -10 -19 -29 -32 -32 -26 -22 -12 -11 -15 13 23 32 26 21 16 3 0 15 -10 -2 1 12
74 162 133 92 3 45 218 173 181 275 191 346 325 195 96 112 101 113 111 58 20 10 -15 -11 -11 1 -17 -37 -38 -37 -33 -45 -49 -55 -33 -13 -1 14 20 -2 4 6 -5 16 -16 -10 5 11 32
12 37 105 57 29 31 136 167 181 131 254 292 281 260 160 108 72 88 132 41 53 31 3 -21 -20 -4 -7 -25 -26 -47 -48 -61 -78 -62 -42 -20 11 32 29 -15 21 6 3 -13 -15 0 28 45 37
15 32 16 136 -2 62 92 40 264 127 296 338 372 263 178 134 77 13 43 45 95 74 47 15 9 -7 4 -14 -11 -43 -34 -49 -40 -32 -5 37 23 40 20 17 36 27 46 12 32 62 38 46 60
9 28 27 -8 97 69 163 95 250 256 422 423 307 215 154 123 81 56 44 44 64 55 64 69 75 16 5 34 18 -15 -7 -7 2 16 16 74 61 51 21 38 26 30 24 40 27 45 22 59 73
-13 -25 -58 -54 1 40 309 270 184 229 420 382 306 236 143 145 111 61 94 55 65 53 121 99 63 62 15 38 12 -7 4 -1 5 41 44 84 76 50 52 46 32 29 42 34 33 39 29 26 32
13 -104 -18 -2 19 68 112 244 144 245 306 298 310 228 149 123 54 50 101 104 153 156 130 121 100 72 22 47 26 6 22 35 36 39 43 61 51 59 39 33 24 46 68 64 41 29 23 28 44
-20 26 -17 -23 -2 42 68 208 225 214 304 350 245 175 206 188 83 49 100 160 187 235 205 167 137 76 40 53 38 29 6 6 20 54 45 41 33 45 45 42 39 65 82 60 44 48 54 49 39
32 -34 -84 -40 -37 35 242 291 270 333 275 334 263 264 176 72 141 71 96 184 214 247 200 184 160 82 74 73 95 72 62 15 29 39 28 68 47 55 51 74 74 80 80 64 56 50 49 35 42
13 -116 -111 -134 -28 21 118 223 189 311 345 393 381 325 280 129 -21 61 218 213 239 268 214 194 190 146 146 114 77 34 27 5 -4 10 21 45 65 59 66 68 60 77 79 74 63 49 45 8 33
-63 -125 -125 -126 -26 -6 188 322 160 130 320 151 229 292 275 222 161 60 113 237 258 280 268 278 259 219 190 157 118 51 -5 -14 -37 -53 7 25 59 79 100 90 63 39 84 86 78 88 82 42 18
-112 -88 -48 -10 -2 60 33 97 110 6 205 226 197 330 373 267 239 204 180 228 276 308 292 314 291 251 238 256 198 151 111 78 18 -2 -13 7 50 97 104 95 65 45 69 105 93 61 38 60 55
-67 33 -34 -21 33 77 -16 45 96 132 73 154 222 311 311 348 282 305 387 336 365 352 337 344 366 336 307 267 243 229 171 111 42 21 1 49 73 115 101 90 81 66 82 98 104 83 84 101 127
-16 45 30 15 36 62 -52 44 115 186 53 80 174 266 359 331 294 301 412 450 426 417 406 395 422 383 354 296 250 255 196 119 56 48 2 48 70 76 86 89 104 83 86 86 64 53 74 86 133
42 49 15 12 65 -29 -18 86 5 98 177 113 156 220 338 266 303 266 325 363 383 465 461 452 416 379 368 344 295 265 220 144 84 54 50 47 42 40 64 110 96 98 95 84 101 85 96 86 88
-1 35 35 141 123 18 52 94 -88 71 140 232 233 204 217 212 271 285 370 393 405 458 513 524 479 399 380 337 304 270 216 136 61 38 22 51 34 75 101 131 128 112 91 108 103 92 100 67 35
-165 -6 12 46 53 134 85 103 81 83 113 141 186 194 174 272 205 230 346 289 404 416 525 553 529 440 415 351 287 253 193 130 65 33 25 8 18 46 129 128 123 113 107 127 130 126 134 110 60
44 31 80 135 35 56 43 124 86 104 50 114 230 305 211 273 161 93 277 315 372 429 505 538 545 514 445 358 297 259 188 131 83 42 14 4 1 42 98 113 116 121 126 143 146 139 160 160 107
30 -38 103 90 95 -61 -4 -96 58 -2 -18 116 311 380 356 410 182 90 203 182 378 465 481 496 504 465 366 318 259 234 151 122 108 36 3 0 6 47 118 175 162 146 145 170 186 180 193 201 166
19 60 116 148 163 84 -16 -68 127 51 34 59 188 419 356 412 186 148 262 163 226 435 453 485 496 425 401 327 257 207 152 114 94 47 6 -29 6 70 150 197 228 207 197 203 229 233 219 220 204

GFSSGP_con_3kmhel_021.txt.gz
Helicity
87 101 9 -4 11 -2 -6 30 20 19 -13 16 15 21 -6 64 0 -1 -24 -10 -58 -81 -101 -99 -61 -50 -29 -22 -28 -17 4 9 10 15 14 4 3 6 8 4 1 -7 -27 -25 -18 -17 -22 -14 7
14 90 -22 -11 -29 -37 -23 19 -15 23 9 21 69 67 23 5 -6 63 -37 -64 -65 -76 -79 -96 -72 -49 -36 -22 -34 -15 -3 7 4 12 4 5 9 9 6 5 5 7 23 -32 -22 -24 -32 -22 3
48 -53 -24 -5 26 -13 -10 -4 39 77 41 9 47 35 9 5 0 -33 -46 -72 -79 -91 -97 -84 -70 -47 -34 -30 -27 -19 -7 2 3 4 4 13 13 8 6 14 21 26 29 8 -24 -2 -19 -17 -5
14 100 20 4 35 41 25 34 88 85 28 23 101 75 54 -36 -26 11 -66 -85 -88 -95 -101 -70 -60 -40 -26 -29 -20 -17 -9 -2 0 5 11 13 14 12 14 21 32 35 32 17 4 10 -10 -21 -14
-29 -2 29 51 33 11 25 112 92 53 40 55 38 29 31 -39 -17 -17 -79 -87 -73 -101 -90 -72 -50 -32 -21 -24 -20 -19 -14 -8 2 8 14 12 12 14 20 28 40 37 34 25 14 11 1 -17 -8
48 57 95 46 -32 -9 28 91 131 71 88 65 127 144 4 -35 9 -51 -55 -64 -67 -67 -78 -65 -43 -27 -22 -18 -17 -16 -9 -4 8 12 8 10 15 19 19 27 28 27 22 17 14 7 12 10 19
65 63 108 20 -89 -70 -59 39 119 81 35 37 138 103 6 -11 -35 -34 -52 -52 -55 -56 -60 -64 -53 -34 -15 -13 -7 -2 1 5 12 11 8 9 23 27 20 20 19 16 15 11 12 17 14 9 19
37 50 54 45 -17 -51 -19 63 131 99 -47 73 85 45 35 -22 -28 -37 -49 -38 -37 -46 -48 -48 -50 -43 -31 -22 -1 5 4 11 15 16 10 16 24 23 22 18 18 17 16 14 11 2 3 0 15
-1 36 36 47 37 27 98 36 98 28 86 -11 -1 58 22 10 14 10 0 -25 -35 -48 -45 -44 -39 -32 -24 -23 -11 5 14 19 19 18 15 20 13 22 20 23 21 11 13 20 10 8 5 -4 -26
11 59 32 13 3 246 198 149 123 66 125 5 55 109 87 81 76 84 66 31 -21 -38 -42 -35 -30 -14 -13 -8 -13 -15 -9 -13 -11 -7 1 4 9 11 22 29 13 20 10 1 4 -5 -25 -23 -10
-8 1 20 60 20 147 254 163 88 177 58 33 169 136 124 120 87 71 55 33 5 -21 -29 -25 -23 -11 3 -3 -22 -25 -30 -29 -26 -15 -22 -7 -8 -3 15 5 4 -3 6 -10 -3 -12 4 3 11
43 39 80 113 15 114 201 143 97 172 55 159 233 208 155 110 62 65 50 13 -1 -8 1 -14 -16 -2 -4 -24 -21 -29 -37 -43 -41 -48 -32 -8 3 4 3 -1 -5 1 -5 -26 -14 -7 11 15 9
13 58 72 176 118 125 159 258 207 114 61 181 227 244 120 102 44 19 60 50 9 3 -9 -12 -10 -7 -18 -33 -39 -51 -53 -53 -61 -54 -28 -8 -8 3 12 4 -1 21 6 2 -2 1 3 13 36
-8 -7 10 34 63 145 246 214 155 56 167 230 238 222 112 66 59 40 34 56 46 10 -1 -5 -5 -8 -23 -32 -46 -49 -51 -53 -61 -62 -30 -4 -8 2 24 17 17 28 27 42 9 -4 2 20 37
1 -38 -24 -10 4 97 139 147 215 108 260 306 249 201 145 21 66 106 73 53 43 26 8 -1 -4 -12 -17 -19 -36 -41 -37 -50 -44 -24 -22 31 32 19 31 40 26 29 23 26 18 19 19 31 21
10 -23 -74 -37 21 57 272 231 135 172 302 322 263 166 114 51 81 77 103 73 47 24 12 -7 -14 -11 -8 -38 -39 -19 -31 -20 -20 -21 -3 31 49 30 43 52 45 37 48 68 39 48 44 45 59
9 -42 -72 -39 -8 87 157 166 267 315 346 348 278 184 97 28 11 46 105 110 48 46 26 14 17 5 -6 -46 -20 -16 -16 8 9 -11 18 59 53 60 54 50 39 51 76 64 67 50 43 39 51
-3 -33 -130 -120 68 104 117 164 250 287 363 377 304 209 122 86 58 34 59 90 66 87 88 72 69 37 17 -22 -30 -38 -17 -11 -4 0 25 49 48 49 42 34 45 69 63 47 37 37 43 65 63
9 2 -103 -110 37 94 68 152 298 296 228 292 304 273 186 136 92 36 55 58 65 86 115 116 105 57 48 5 0 6 50 39 40 34 43 35 22 36 51 46 76 77 40 36 50 60 61 57 49
57 16 -122 -74 -10 48 -9 -7 298 319 255 290 362 238 250 82 65 38 44 44 93 143 154 153 160 112 97 71 48 46 52 47 61 41 31 29 20 47 64 66 83 62 37 56 84 79 35 37 29
43 2 -129 -49 54 54 7 11 134 195 80 90 239 296 201 149 135 25 115 89 86 142 173 198 231 175 121 97 79 54 9 6 33 39 23 42 25 32 81 79 70 66 67 86 76 64 62 75 28
-138 22 -54 -86 -92 9 53 12 13 247 85 81 146 298 297 215 177 121 98 137 156 168 201 206 219 219 150 149 132 130 101 88 40 62 42 41 29 10 58 54 57 59 66 86 89 77 74 108 59
-36 20 -5 -84 -73 -3 73 119 44 173 19 6 113 220 292 349 261 271 275 306 280 238 216 220 253 261 216 197 165 143 110 83 66 44 21 18 21 7 34 71 75 57 51 49 66 84 66 82 59
79 45 24 -22 -25 3 -151 119 -131 -40 208 182 198 192 267 364 310 219 320 297 286 278 266 243 273 272 268 250 208 196 186 151 107 45 52 30 12 -21 3 54 81 77 40 47 58 66 66 56 57
163 59 37 26 50 -27 -65 86 -52 -70 60 239 390 271 310 276 357 235 233 278 287 333 320 294 308 276 291 277 246 237 208 221 166 92 56 34 2 -50 -34 33 60 76 54 58 62 75 77 66 48
117 98 241 230 202 21 -8 43 -132 -81 -49 207 374 416 345 327 331 276 245 290 375 467 421 392 377 339 343 351 287 254 228 229 180 135 84 41 16 -14 -4 49 72 80 73 64 64 86 93 92 73
146 156 34 186 212 240 116 82 -17 75 15 80 127 141 193 317 307 290 229 262 295 358 461 492 464 422 428 398 363 286 239 229 195 149 92 44 25 -15 -17 49 83 89 86 87 93 100 106 120 113
104 125 190 262 29 63 129 140 17 107 -48 -60 131 189 188 255 284 246 222 225 295 340 475 520 511 520 533 497 413 375 268 232 225 148 98 66 8 -27 -25 33 69 73 104 104 110 111 106 135 120
184 79 149 135 152 63 48 -39 79 93 77 68 76 142 195 258 267 316 269 263 269 306 346 473 473 446 463 442 407 352 269 222 220 132 97 85 38 -11 -12 26 83 96 109 120 127 122 137 146 145
171 136 202 235 188 172 -65 -45 102 31 -66 98 77 43 45 149 244 160 181 204 226 270 349 390 415 417 419 468 424 360 308 233 188 131 68 74 42 28 17 18 55 94 113 133 154 154 158 156 157

GFSSGP_con_3kmhel_027.txt.gz
Helicity
87 65 19 25 -25 -44 -27 -18 49 -8 -10 14 2 29 3 48 12 17 54 30 -8 -29 -74 -66 -37 -29 -42 -46 -32 -13 4 14 15 10 10 13 9 8 8 2 4 4 5 10 6 12 6 6 20
79 63 26 -31 -4 -13 2 47 -20 -12 3 41 23 11 15 9 4 44 40 -29 -27 -41 -56 -52 -48 -38 -44 -45 -25 -8 9 19 18 16 13 6 4 5 2 4 15 15 7 3 6 16 14 16 27
77 26 -23 -23 17 12 -4 75 19 -2 -5 26 25 29 22 -1 22 32 -12 -30 -64 -49 -58 -61 -51 -45 -47 -37 -21 -6 8 16 13 11 13 7 4 6 7 10 18 18 9 3 1 5 23 29 31
121 52 60 59 47 22 21 84 94 39 15 -3 41 20 20 14 59 21 -14 -47 -65 -49 -54 -51 -51 -48 -45 -32 -19 -3 8 7 9 15 14 10 8 11 9 14 16 15 11 19 25 14 7 16 21
12 59 10 9 8 25 -1 39 105 22 3 20 39 -1 17 55 -39 12 -38 -53 -63 -52 -57 -47 -54 -51 -43 -32 -16 -6 1 2 8 15 15 10 12 12 14 11 17 9 14 20 17 21 20 15 18
41 21 17 -12 -5 -17 -26 33 13 -1 -16 -1 13 23 26 -79 -32 -18 -56 -57 -65 -40 -48 -50 -57 -50 -40 -26 -11 -3 2 1 12 17 16 11 11 9 13 12 11 7 12 9 10 11 12 17 7
41 8 -5 0 -5 -20 -38 9 2 -17 -20 -20 16 11 -12 -41 -31 -38 -61 -68 -68 -53 -47 -48 -49 -47 -32 -15 -3 -2 1 5 12 13 18 15 15 13 11 5 6 8 9 2 5 12 16 23 29
19 29 31 18 -13 -9 -1 2 -12 -9 -24 18 -10 -12 -21 -40 -29 -48 -60 -61 -61 -61 -50 -44 -44 -37 -20 -10 -1 1 2 8 11 13 14 17 20 19 13 8 8 7 3 -3 2 11 14 14 24
13 37 62 21 10 -24 60 -11 -11 -36 28 4 11 -23 37 42 -8 -12 -38 -53 -62 -62 -50 -43 -37 -29 -18 -9 -8 -1 6 12 14 17 17 24 23 19 18 7 15 12 5 0 4 11 6 -3 8
16 -4 26 -25 -21 22 58 26 82 -15 34 -48 -30 77 157 71 51 71 40 0 -31 -40 -41 -40 -36 -25 -16 -12 -7 -2 7 12 13 11 15 15 10 21 26 13 16 13 -10 -7 -7 -15 -4 14 13
15 -33 23 10 29 31 39 44 40 50 36 81 103 159 203 138 61 38 35 10 -5 -29 -38 -30 -32 -27 -16 -14 -11 -6 1 1 8 8 7 6 7 19 16 12 1 6 -1 5 1 1 7 11 -1
56 74 15 13 32 14 24 49 36 59 -37 51 114 211 226 159 102 40 28 18 0 -19 -22 -21 -20 -18 -12 -20 -15 -9 -2 0 1 -1 -3 1 11 13 5 7 1 4 4 2 -1 9 46 27 10
81 60 28 43 65 47 44 93 50 81 39 -4 167 217 190 143 61 19 0 4 -2 -12 -20 -19 -15 -15 -16 -17 -20 -10 -5 -6 -3 -7 -11 -2 10 10 9 6 9 9 7 22 12 11 23 31 4
6 28 56 34 48 2 66 45 57 40 112 97 170 231 187 124 72 25 24 16 12 -12 -15 -20 -11 -14 -14 -17 -12 -11 -10 -12 -13 -16 -15 -7 5 9 4 3 4 8 5 6 10 1 -3 3 11
47 32 24 30 5 7 33 -17 126 68 143 155 138 167 164 120 59 56 43 30 14 -3 -20 -18 -12 -15 -13 -10 -13 -14 -16 -18 -19 -25 -21 -8 6 10 11 8 11 11 7 10 22 29 35 28 44
12 -2 -12 -12 -21 27 10 56 75 220 201 184 174 156 120 125 100 29 24 19 0 -5 -11 -21 -21 -18 -10 -14 -19 -17 -19 -19 -23 -29 -25 -14 16 18 18 16 17 11 19 27 30 19 12 24 29
-7 21 -14 -22 -4 39 -27 -83 -2 221 204 196 188 165 110 101 55 31 9 9 3 -7 -12 -16 -19 -17 -12 -17 -23 -25 -25 -20 -23 -26 -12 -14 13 25 28 22 11 20 26 31 33 39 26 28 31
12 -22 9 -8 28 12 -38 -24 28 113 162 219 217 137 133 62 120 44 9 -2 -7 -15 -16 -25 -27 -19 -26 -36 -34 -31 -28 -19 -18 -13 -12 -8 -7 18 27 19 19 28 32 40 42 35 39 51 41
58 -10 20 0 6 -1 -25 72 8 88 80 138 184 127 122 85 44 32 5 -16 -19 -18 -29 -31 -23 -21 -37 -36 -21 -9 1 -11 -8 1 -2 -5 -8 4 21 13 34 30 32 29 37 44 52 59 35
25 -11 13 3 40 18 0 -14 11 93 144 177 240 210 132 71 81 31 -3 -4 -13 -18 -18 -19 -11 -17 -8 -20 -9 1 -1 -3 -4 -10 -16 -14 -9 1 10 34 32 18 16 37 64 72 47 26 25
-12 -81 -28 17 31 10 3 -36 16 23 33 97 155 136 76 65 112 97 17 -6 1 -25 -30 -31 -21 -11 4 5 -15 -16 20 24 -11 -11 -19 -11 -4 -5 10 28 3 -5 5 28 66 82 66 19 30
-19 17 47 -13 26 -14 22 13 -6 27 11 72 179 111 86 50 31 67 85 -5 5 -12 -37 -40 -35 -22 -20 4 -2 33 24 31 33 44 18 -7 -2 -7 -5 6 -11 -9 -9 15 41 65 55 36 46
37 42 32 36 15 48 -10 -4 -67 50 -15 -12 94 91 87 43 28 78 84 95 70 -27 -32 -25 -26 -15 -10 12 33 37 31 18 3 8 20 4 -14 -11 -17 -4 -38 -27 -14 -9 11 44 56 47 35
78 57 99 106 60 -61 -39 -13 -43 -127 -23 2 -23 31 89 94 58 37 78 70 54 10 -44 -47 -22 -9 11 22 41 39 40 29 10 -2 2 8 18 4 -18 -34 -50 -42 -33 -8 -15 -5 28 31 22
38 52 86 71 2 -29 11 -62 -38 22 51 -11 -24 53 67 115 126 94 47 49 93 92 76 24 6 4 45 52 45 72 73 83 78 60 22 11 19 27 -11 -50 -58 -57 -27 -17 -31 -24 7 29 34
71 79 213 174 17 18 101 -17 8 -68 2 -13 -1 -7 40 43 114 88 115 122 121 146 143 148 74 43 59 76 100 101 94 88 88 73 50 36 16 15 11 -36 -60 -60 -39 -19 -17 -21 -7 20 29
164 68 52 170 171 97 16 -42 -52 41 -2 32 -19 26 28 45 84 178 218 155 166 168 158 169 179 149 124 134 135 133 138 120 101 104 102 57 27 -7 -4 -28 -46 -57 -46 -14 1 -6 17 31 46
119 171 217 132 -18 19 7 48 122 85 123 63 4 -27 15 43 85 102 138 204 215 184 253 260 207 185 190 183 144 125 155 163 150 150 126 96 86 37 6 -30 -45 -61 -51 -16 5 4 24 53 59
222 149 169 125 210 15 23 9 -15 -13 50 86 45 15 -6 29 87 96 141 203 224 172 173 222 264 241 191 180 191 171 124 109 125 127 126 112 126 94 47 -19 -43 -50 -42 -19 -5 12 37 63 77
103 153 184 227 174 76 59 5 -18 -89 -5 31 8 36 40 52 41 60 83 97 86 175 153 175 225 273 288 256 218 200 188 183 187 197 164 138 141 133 102 40 -16 -35 -33 -19 -9 26 42 65 73

GFSSGP_con_3kmhel_030.txt.gz
Helicity
69 45 23 32 24 41 -26 -20 49 18 15 12 12 32 27 70 36 11 -1 -11 -30 -71 -44 -72 -76 -63 -53 -52 -31 -13 -1 -10 -7 1 -1 -2 -5 1 5 8 3 4 5 3 5 8 10 13 18
66 32 44 59 87 -18 3 -27 -11 5 13 16 23 15 24 47 12 47 8 -13 -28 -45 -100 -72 -68 -61 -55 -46 -29 -13 -11 -4 7 5 1 -1 -3 1 4 15 1 -0 4 8 8 9 12 -5 -14
89 76 7 77 50 47 16 -8 -4 -1 -12 7 38 60 27 8 12 60 5 -14 -34 -61 -60 -62 -57 -53 -45 -38 -26 -15 -4 10 14 5 -0 1 -1 4 9 20 7 10 11 10 -3 -4 -3 -14 -16
86 67 61 118 10 7 33 -3 2 2 1 11 12 28 32 36 61 20 20 -22 -28 -24 -41 -46 -49 -52 -43 -34 -22 -5 5 14 11 4 2 3 3 6 16 23 11 9 20 14 -2 -25 -16 -3 6
-7 63 52 18 6 -4 4 -8 -6 -11 2 3 -0 11 37 40 8 50 3 -36 -38 -28 -29 -37 -63 -54 -38 -25 -13 7 13 17 10 9 6 7 4 7 14 19 16 17 17 14 18 11 9 8 7
61 41 72 13 12 -1 -7 -19 -26 -8 -2 14 11 12 30 -20 22 9 -23 -43 -40 -23 -28 -39 -60 -49 -32 -20 -6 9 13 15 12 12 9 6 4 7 11 12 13 15 10 9 3 -0 10 2 2
65 84 29 15 8 -3 -16 -32 -22 -23 -19 -16 -4 -23 -33 -13 -4 -14 -21 -46 -41 -33 -33 -39 -40 -52 -38 -27 -5 5 7 11 14 12 12 9 5 5 11 15 15 12 10 8 11 15 6 12 16
47 74 23 11 14 15 -22 -48 -11 -25 -16 5 -17 -38 -3 -3 -21 -21 -32 -50 -42 -34 -36 -36 -41 -38 -26 -16 -4 4 5 11 15 13 14 12 12 13 16 26 1 6 5 5 7 5 8 24 19
17 65 1 24 -1 -6 22 -3 -12 4 -0 -26 -10 -20 74 25 -21 -26 -33 -45 -44 -40 -34 -33 -35 -42 -20 -12 -7 4 7 16 15 23 17 39 25 10 28 -4 11 8 10 9 -5 -12 2 34 54
14 87 39 33 12 12 15 -4 30 -11 8 10 -1 57 110 54 11 26 16 -1 -23 -23 -24 -33 -36 -34 -18 -5 -13 8 6 19 24 20 14 30 4 6 17 14 20 18 16 28 15 11 27 95 25
-3 59 19 16 58 27 -1 -1 26 21 35 32 41 89 110 95 50 34 19 -6 -10 -14 -27 -29 -36 -32 -17 -4 -1 -2 5 9 10 11 20 -1 13 12 15 11 33 36 35 52 58 86 36 8 11
24 17 27 29 55 39 -5 14 28 29 12 52 63 68 132 94 71 58 39 13 -9 -12 -18 -28 -32 -21 -11 -11 1 -0 2 9 10 5 4 6 22 1 12 4 2 23 25 24 15 17 22 38 28
-19 54 33 33 43 68 50 -5 -3 24 31 88 111 77 105 73 58 26 12 -0 -10 -8 -19 -27 -31 -22 -16 -0 -0 2 1 5 5 -1 -2 11 14 5 15 -4 8 8 10 21 20 6 16 19 10
15 23 49 43 50 53 -3 -12 3 27 56 88 123 102 86 82 63 33 19 11 3 -14 -18 -24 -19 -22 -16 -13 1 4 -0 4 4 -2 -4 -0 13 3 10 4 3 9 12 11 39 -5 -1 34 21
18 84 44 30 27 17 5 -30 29 22 67 81 85 100 77 64 44 50 35 18 15 -6 -20 -21 -18 -19 -17 -11 -10 -2 -5 -2 -4 -5 -15 -7 3 -3 17 3 8 3 9 6 24 22 19 29 32
-55 59 65 13 9 3 -10 -28 46 46 90 99 106 99 112 95 76 39 22 11 3 -10 -18 -20 -26 -24 -20 -15 -13 -8 -12 -8 -9 -10 -11 -10 -9 8 12 1 7 6 23 6 24 10 6 21 32
-9 21 20 44 41 26 -16 -33 66 72 88 82 101 112 92 99 61 25 20 8 -5 -8 -21 -22 -27 -22 -22 -20 -18 -16 -18 -9 -10 -8 -2 -2 -7 6 13 4 13 13 10 7 12 23 23 29 36
63 40 67 23 41 17 -16 -21 44 62 73 48 76 92 99 97 124 45 20 3 -10 -29 -21 -22 -31 -28 -30 -35 -23 -22 -19 -11 -8 -2 4 -4 -17 -3 2 7 -1 13 6 5 10 4 23 15 5
71 54 45 29 33 53 9 15 4 60 48 30 69 78 93 107 68 42 21 -3 -14 -25 -33 -33 -29 -32 -38 -31 -19 -13 -1 -4 -0 4 4 -3 -6 -13 -0 8 22 11 2 2 21 28 23 24 13
81 59 49 60 53 68 43 25 15 27 28 23 49 54 72 65 23 40 20 -5 -8 -17 -28 -36 -27 -32 -24 -30 -17 -12 -5 -3 -5 -4 -4 -4 -3 -9 -8 11 5 -0 -11 14 33 22 7 3 12
9 -13 31 74 52 31 73 17 17 30 24 10 15 23 40 61 69 80 50 14 6 -1 -16 -23 -26 -30 -30 -24 -35 -24 -21 1 -13 -13 -8 -8 -5 -7 -6 -9 -1 -14 -17 20 39 41 24 7 25
-42 -0 52 78 79 81 49 41 -22 19 11 12 17 69 18 76 41 22 40 61 35 31 -14 -21 -29 -31 -34 -17 -28 -2 -2 6 1 5 -5 -8 3 2 -9 -16 -6 -29 -27 -6 18 28 30 32 34
22 64 36 56 78 64 87 61 5 42 -74 -22 11 79 54 23 47 72 82 162 85 35 -12 -25 -37 -39 -30 -19 -17 -3 -11 -9 -12 -11 -8 -1 -1 -1 -3 -12 -34 -49 -42 -22 -0 17 35 36 19
34 58 75 36 58 2 21 -10 28 -37 -83 6 1 23 81 23 58 41 26 62 79 27 -11 -34 -34 -28 -20 -3 1 -6 -4 -15 -15 9 2 1 8 25 20 -2 -55 -71 -61 -38 -22 8 27 26 21
23 27 84 120 18 -25 -38 55 -28 32 3 27 17 30 48 42 11 18 31 30 44 62 34 -0 -13 -10 3 6 -2 1 -2 -5 2 24 14 9 7 9 45 13 -45 -68 -53 -54 -47 -22 1 25 28
46 27 135 81 30 1 -31 28 -20 -15 25 72 28 28 64 22 25 12 41 40 67 88 120 120 74 28 23 17 27 12 18 1 -6 14 2 21 11 16 8 10 -40 -45 -57 -67 -58 -51 -24 6 22
80 14 -27 142 150 102 -10 -11 1 65 26 40 -1 9 35 45 25 19 38 65 62 77 115 147 190 126 96 69 72 56 53 38 18 -0 41 17 24 12 18 8 -26 -42 -53 -72 -56 -54 -24 -2 22
85 18 59 62 -12 -4 3 8 29 31 64 15 1 -1 11 36 21 13 27 42 67 68 90 133 192 215 202 134 93 87 95 98 72 85 56 39 46 37 33 15 -14 -25 -57 -58 -45 -47 -27 -4 15
108 120 43 46 7 -26 9 -1 -30 2 44 -0 9 1 8 -2 30 36 65 49 48 35 46 69 86 127 146 148 169 116 70 67 61 80 87 71 57 72 52 69 11 -7 -18 -25 -37 -47 -25 2 18
58 93 105 132 53 -18 58 37 27 1 -39 -3 11 17 17 18 28 25 22 19 47 54 53 80 91 99 104 136 163 180 165 118 76 80 70 84 83 79 91 78 58 10 -7 -14 -27 -35 -22 12 37

GFSSGP_con_3kmhel_036.txt.gz
Helicity
58 21 -5 26 13 36 8 20 31 98 29 5 43 69 72 81 -11 -24 -52 -39 -35 -53 -48 -26 -50 -45 -46 -27 -15 -11 0 -2 1 -4 -14 -4 -2 -4 2 4 4 1 -1 1 5 3 9 9 -1
58 36 20 51 66 9 0 30 31 37 54 91 39 -6 21 7 25 10 -74 -96 -49 -63 -37 -62 -60 -40 -27 -21 -15 -16 -12 -9 -2 -12 1 -1 -7 -4 -6 -8 -7 -10 -7 0 6 8 9 19 23
22 68 25 2 -4 -14 -23 48 9 47 55 44 87 82 56 -13 3 -18 -93 -45 -53 -35 -76 -75 -58 -40 -25 -16 -17 -21 -14 -6 -1 2 -2 -8 -2 1 -3 -5 -10 -17 -9 2 4 9 16 15 24
-2 33 77 55 -50 -22 13 -80 16 63 0 58 71 51 53 0 29 -40 2 -64 -79 -36 -122 -58 -49 -34 -25 -21 -23 -21 -14 -7 -2 7 16 17 8 1 -2 -10 -7 -8 2 6 8 14 11 15 21
-37 23 6 -45 15 -17 29 27 30 19 36 86 56 72 74 -4 13 40 -1 -60 -45 -41 -118 -55 -54 -39 -28 -27 -23 -13 -12 6 16 20 24 18 12 9 9 2 4 8 2 -1 1 5 10 18 17
5 27 -60 -7 -83 -3 14 19 73 4 96 85 94 90 48 18 63 9 -11 -40 -30 -51 -99 -66 -58 -39 -29 -21 -13 3 -9 18 25 31 28 25 20 13 6 2 1 1 0 7 9 14 28 27 28
114 -36 140 105 2 90 20 -8 5 39 88 84 72 98 28 52 27 1 -40 -25 -68 -45 -51 -56 -46 -41 -33 -20 -7 14 16 24 31 34 31 32 30 20 10 5 1 0 5 15 30 42 56 52 42
-14 44 59 157 116 3 32 7 -8 132 88 111 113 -13 86 52 -4 -10 -24 -70 -50 -18 -54 -37 -42 -29 -19 -14 6 19 22 35 36 30 34 38 40 42 17 11 11 21 28 28 27 38 75 92 63
123 -25 16 -15 17 -41 35 65 68 63 31 20 45 108 85 37 19 -24 -33 -44 -46 41 -42 -25 -22 -28 -15 -20 12 20 26 41 30 26 21 39 36 48 64 10 26 33 24 33 26 53 86 98 55
43 -15 -45 48 41 98 51 46 52 15 36 87 73 86 77 42 9 50 -15 -15 -18 36 -16 -21 -23 -25 -10 -12 3 26 38 54 29 34 36 7 58 36 71 35 35 37 25 31 8 -4 20 55 98
8 19 150 258 126 -8 34 30 33 37 54 127 98 79 76 52 59 66 11 -10 -14 -7 -35 -15 -21 -29 -9 18 9 22 51 43 38 122 72 -15 53 27 25 39 35 29 0 36 39 21 36 59 128
27 54 105 160 138 63 38 77 48 20 107 185 102 61 99 88 76 61 40 -27 -20 25 25 30 37 -31 -18 26 -11 15 47 24 69 101 79 50 -14 -1 -8 -4 20 22 107 36 16 17 56 6 75
30 127 12 83 79 102 119 32 45 62 79 132 113 51 87 47 64 25 38 -25 -44 -24 21 108 102 -19 -24 -2 -2 2 15 11 57 55 7 -1 39 5 27 17 15 14 37 8 47 25 24 9 4
16 86 93 183 34 19 26 21 114 27 109 96 99 65 67 31 126 67 -2 -6 -57 -42 9 123 106 -9 -1 19 29 24 -4 -1 18 48 39 15 13 10 14 10 4 41 45 12 33 20 0 -2 15
28 10 8 31 3 1 9 17 29 104 127 100 86 84 80 50 68 70 48 25 12 -51 34 129 112 32 45 0 -8 10 42 21 -12 22 68 18 4 3 6 15 29 15 42 27 20 19 5 -54 31
12 -2 19 10 -11 9 23 -19 26 81 119 99 87 72 113 45 71 41 64 52 80 34 59 139 44 21 0 6 -3 20 16 0 3 -1 61 21 -4 -6 -3 -10 11 19 26 25 9 47 32 1 46
7 24 3 6 23 -22 19 -46 43 78 60 138 116 78 73 67 29 53 9 43 64 82 150 135 33 78 38 -3 1 -5 6 -11 -10 -11 69 57 20 -1 -8 -24 10 12 7 19 30 -4 9 34 43
32 22 3 -1 26 6 25 -13 94 42 106 122 141 125 97 77 63 108 13 25 82 161 188 169 109 87 82 -11 -12 -18 -6 -13 -18 -15 -22 109 39 15 8 16 9 7 34 22 22 24 3 16 0
5 4 2 -5 -21 52 3 24 74 39 307 44 116 185 131 104 59 129 44 48 84 177 185 144 116 52 109 44 -8 -10 -11 -18 -20 -18 -21 71 32 14 -2 -7 19 26 21 41 40 33 8 13 -17
12 30 -7 1 -6 71 8 -2 61 115 153 -7 65 151 138 91 118 146 102 97 71 202 209 159 104 62 102 92 8 -21 -25 -22 6 -22 -17 77 43 10 -4 -1 5 4 36 15 38 38 1 37 -6
-21 -48 0 -5 2 80 21 -2 -30 55 108 23 129 92 135 117 135 149 207 158 138 213 245 199 129 109 116 99 28 -37 -25 -30 22 2 -10 53 38 19 -5 -17 -17 4 26 38 33 30 27 19 -7
-25 -32 -7 6 2 54 54 50 43 -1 7 118 41 102 100 158 84 179 190 104 226 212 248 227 154 103 107 64 18 5 -2 -1 6 21 -10 55 60 23 31 18 0 11 20 55 8 15 13 11 16
-22 -2 20 33 41 46 22 63 47 52 0 36 49 92 116 132 102 202 217 186 163 198 273 265 203 138 97 43 47 19 14 -9 -19 -10 -4 34 89 31 5 58 25 12 -23 18 26 18 1 -6 -3
-1 9 6 20 40 27 47 33 79 31 66 -31 81 37 94 100 115 156 260 197 94 175 256 241 210 136 105 51 -7 14 37 -12 -13 -8 -14 8 79 66 11 90 46 30 -7 14 21 10 4 0 -11
13 9 60 11 -6 -77 -43 -54 -89 -15 41 87 61 79 98 60 120 166 283 244 157 154 259 241 239 164 115 92 50 30 17 20 -23 -4 -10 46 64 105 74 43 97 60 8 -32 0 2 -9 -8 -11
5 -10 87 56 -26 -41 -28 -32 -41 0 39 21 68 123 94 83 65 182 280 259 226 139 265 278 258 196 136 99 57 24 36 22 -29 -31 21 -8 32 83 124 122 149 126 41 -16 -31 10 -19 4 -3
82 -40 -26 16 -6 14 -17 61 -7 -5 23 45 40 71 111 79 50 148 233 283 300 195 242 277 262 203 148 121 102 52 71 48 38 6 -8 34 -5 16 95 198 188 147 95 30 -23 -12 9 -13 40
39 84 55 47 44 2 -14 10 201 51 -37 20 19 19 79 72 75 121 217 269 296 278 263 253 269 249 203 158 145 139 123 136 81 64 15 16 51 -6 64 236 192 166 108 74 30 -2 -26 14 31
76 57 44 35 47 32 11 -3 20 172 57 24 51 34 29 57 116 100 190 213 278 274 249 248 224 216 163 146 146 137 124 114 111 83 68 43 40 47 -22 158 208 176 141 99 72 40 18 37 46
47 56 53 90 38 38 19 48 107 57 142 121 17 83 23 35 123 112 142 192 214 269 243 229 202 181 174 150 118 103 108 117 104 93 81 74 73 57 48 110 198 230 185 143 119 102 47 55 111

GFSSGP_con_3kmhel_039.txt.gz
Helicity
27 7 6 1 26 14 47 72 50 -25 -4 11 -42 0 29 -1 -10 -36 -18 -85 -36 -70 -68 -61 -39 -26 -16 -4 -8 1 -1 1 -10 -5 0 -1 2 7 0 2 5 7 9 14 11 6 2 -6 -16
58 39 18 31 8 14 -7 12 37 20 0 110 78 40 -7 -40 -15 6 11 -67 -62 -63 -72 -50 -32 -21 -10 -7 -5 -11 -6 -10 -5 3 -3 5 5 -2 -6 -8 -7 -4 1 4 8 7 7 13 10
61 24 0 2 27 -20 -57 -24 -7 -4 6 41 115 86 -21 -81 -41 13 -38 -46 -62 -59 -54 -41 -27 -18 -8 -7 -13 -20 -7 -7 2 5 -1 5 3 0 -8 -15 -16 -13 -12 2 11 14 15 19 20
5 15 56 28 -23 0 -13 -55 41 71 133 108 50 83 77 -55 15 -56 -18 -36 -62 -56 -36 -33 -19 -9 -7 -11 -21 -6 -12 -8 8 27 21 14 0 5 -1 -17 -18 -6 12 12 12 13 19 26 23
-45 -2 -4 75 41 7 -54 -10 -16 105 108 64 60 63 109 -121 -25 43 11 -33 -30 -10 -33 -43 -23 -9 -9 -21 -18 -11 -10 2 26 30 28 20 15 14 7 6 8 6 12 11 11 14 22 26 20
19 2 -7 -109 -21 30 -67 -26 124 311 266 118 121 155 51 -55 54 31 -19 -21 -22 -50 -48 -41 -24 -18 -18 -21 -4 -10 -14 28 36 33 27 28 28 17 14 8 6 14 20 16 12 14 15 22 26
-13 8 164 119 56 9 62 -26 178 154 121 60 123 132 51 3 38 22 -33 -54 -71 -39 -31 -32 -37 -35 -27 -13 0 -11 16 27 31 33 35 36 31 22 14 17 18 12 11 17 27 45 47 32 33
12 56 52 134 56 104 28 100 52 91 94 -9 88 39 102 -21 21 -9 -29 -62 -38 -16 -23 -33 -41 -44 -42 -24 3 -2 28 32 25 29 32 43 44 35 28 25 25 17 26 19 23 46 62 60 48
91 117 -8 59 144 93 79 107 114 87 65 16 25 197 104 37 21 -24 -50 -121 -60 -8 -31 -33 -37 -42 -37 -27 16 26 36 34 29 28 14 30 40 60 46 45 38 44 36 33 22 29 36 51 47
88 8 -2 52 235 63 89 114 134 213 203 143 214 147 68 28 -7 -11 -47 -51 22 -3 -37 -29 -32 -40 -27 -6 20 30 36 31 21 35 28 9 21 23 70 39 34 55 39 36 30 49 44 25 27
55 0 130 125 207 91 182 19 82 294 135 147 212 145 92 30 9 -26 -49 -48 54 4 -38 -22 -26 -36 -28 4 9 12 9 28 8 7 34 8 11 12 38 20 6 27 21 37 13 28 29 51 96
-17 152 64 98 41 38 126 121 -2 251 124 159 181 153 99 51 11 4 -36 6 54 8 -14 -13 -16 -31 -30 14 0 -13 14 23 24 77 -5 -2 6 0 4 26 21 31 35 9 21 41 52 36 40
42 96 65 33 80 127 64 34 193 223 242 195 149 140 91 45 16 -4 -19 -1 43 14 -5 9 6 -27 -3 21 11 -14 17 59 111 61 2 33 13 -4 21 1 19 43 32 13 45 36 54 27 58
45 70 175 82 129 -9 12 76 116 217 258 203 85 93 63 60 37 17 -42 0 11 1 51 70 20 -2 14 -11 -21 -1 78 39 116 84 15 18 15 25 27 23 40 38 26 7 30 42 10 -24 57
54 20 58 100 94 -6 38 128 154 236 164 152 146 68 62 71 46 49 5 -56 -23 -20 171 194 66 5 24 -29 7 13 31 -3 2 32 30 36 47 24 -5 9 32 22 30 29 18 -2 -36 -12 18
118 53 38 95 57 51 102 101 318 305 297 217 126 140 86 63 58 16 28 -57 -106 -68 269 236 113 64 67 25 5 -3 31 37 -33 20 41 35 75 16 9 12 26 15 27 31 16 14 -22 -9 7
99 88 77 3 -8 1 50 78 327 193 173 121 121 117 102 177 101 62 -23 -59 -56 -7 227 233 158 115 103 78 0 -8 14 5 0 44 60 27 37 19 0 12 12 16 9 32 20 9 24 12 15
134 140 44 34 28 32 37 -17 469 87 476 173 -6 122 80 166 116 142 94 9 -26 42 268 253 176 97 76 59 18 -27 -21 -4 -18 -16 55 53 29 33 1 -7 7 9 20 34 23 21 18 8 11
92 59 69 0 1 40 22 -37 297 364 317 104 30 103 168 27 96 177 170 115 84 115 289 255 262 162 85 56 17 -22 -24 -35 -41 -27 47 82 53 35 15 -1 2 11 20 41 39 39 35 13 9
84 83 9 34 7 38 74 -12 121 312 311 406 85 -69 -14 88 0 149 127 140 270 324 381 293 304 228 146 87 35 -2 -31 -38 -31 -26 34 77 55 35 20 6 11 10 28 36 22 13 20 6 -18
91 58 -21 -58 -22 6 98 82 27 181 435 358 237 86 -117 216 93 186 171 178 307 375 395 348 319 266 195 149 93 -25 -55 -43 -36 -18 7 54 79 64 39 22 11 34 32 43 27 34 29 25 4
17 45 4 -25 -23 -7 139 186 35 207 302 329 447 144 -139 192 201 232 221 184 264 337 335 324 301 280 224 184 97 21 2 -21 -3 28 -9 73 90 68 48 27 10 20 37 23 16 33 26 25 26
28 32 66 68 42 12 54 166 37 -30 193 110 306 115 176 208 280 340 287 260 277 347 342 290 294 243 221 160 124 51 -2 -19 -32 8 44 63 51 70 55 44 21 13 32 28 13 7 22 11 20
20 45 35 59 75 54 5 66 119 43 60 150 158 121 184 271 259 371 422 299 300 380 389 329 251 227 209 183 140 68 28 2 -22 1 28 49 62 54 47 46 55 32 52 34 11 0 4 2 -5
19 42 88 107 33 -31 -30 52 59 64 71 151 191 222 259 315 249 297 405 312 310 382 405 364 299 217 213 170 121 81 56 43 25 -5 16 44 90 91 62 95 89 58 45 40 17 17 -1 -11 -23
21 -50 147 142 155 73 35 -80 -138 5 -17 32 120 282 349 336 256 305 394 416 342 352 415 369 310 274 229 199 123 76 33 8 20 -1 -7 41 108 133 100 125 116 91 48 47 20 1 -10 -15 -28
104 65 43 94 101 123 137 28 10 -27 -25 -29 45 158 200 283 249 364 341 403 388 340 433 469 336 271 227 178 125 72 64 45 50 26 -12 -3 48 117 128 111 161 139 96 44 37 24 8 10 -4
46 146 84 65 102 94 30 47 91 23 -36 -52 37 39 263 321 272 376 342 324 433 379 385 434 437 317 263 182 129 90 126 117 68 44 12 7 28 44 104 162 198 220 171 92 62 21 7 7 15
107 90 152 95 68 33 23 -59 73 141 127 5 47 -1 194 213 252 373 346 289 419 367 357 392 420 347 245 187 138 81 32 59 109 90 51 18 21 33 53 133 187 246 227 168 116 63 17 14 12
64 84 123 140 76 -5 -120 -79 -40 19 268 90 -124 -36 87 265 256 372 334 234 334 287 306 363 357 352 311 213 122 54 24 19 70 103 93 71 19 27 25 128 172 204 187 179 166 119 62 32 43

GFSSGP_con_3kmhel_042.txt.gz
Helicity
18 6 -3 2 9 37 56 23 15 24 14 8 -4 1 -29 81 -2 -50 -31 -69 -47 -63 -65 -55 -32 -4 -1 -2 -5 5 -1 -5 -4 -6 4 14 13 15 7 2 7 5 8 9 8 4 -5 -4 -7
31 26 21 22 20 5 37 60 10 34 14 -28 -59 7 28 -9 -61 38 32 -38 -43 -46 -58 -49 -24 -3 -0 -3 -12 -7 -5 -1 -7 3 14 5 1 -7 -11 -9 -5 -2 4 6 4 1 -0 4 8
71 -8 8 8 22 -37 20 24 -25 19 -10 54 11 6 16 -75 -3 70 -32 -34 -38 -50 -41 -39 -15 -6 -2 -13 -17 -11 -8 -2 3 8 10 -4 -10 -12 -18 -23 -23 -6 10 11 10 6 4 8 14
46 -2 48 14 -51 51 27 3 -22 28 48 -1 71 22 -3 -40 84 -31 -5 -40 -28 -39 -47 -22 -6 -0 -5 -20 -15 -13 -11 2 15 12 15 1 -2 -6 -15 -16 9 9 7 7 5 9 1 -4 -6
-41 -9 1 8 78 26 -19 16 -45 56 16 -0 -36 50 28 -34 -21 37 13 -44 -19 -36 -45 -28 -5 3 -11 -19 -16 -17 -13 11 29 25 28 21 18 -2 7 3 11 4 -6 -2 -0 7 2 -20 10
7 -0 3 39 102 -9 -6 -1 140 60 95 52 65 135 68 -38 55 17 -7 -53 -32 -17 -40 -28 -9 3 -14 -12 -13 -17 15 28 30 21 23 30 22 15 11 8 9 -0 4 8 17 16 10 -4 17
-13 -41 19 -35 40 31 71 -57 -22 77 111 66 122 185 103 -15 18 36 -0 -11 -14 -16 -32 -31 -25 -25 -13 -13 -11 2 22 21 17 14 18 15 18 20 17 26 19 13 17 33 39 30 34 20 22
43 30 -2 62 -1 94 -48 -9 96 87 45 124 97 126 119 2 19 22 -16 14 -1 -15 -31 -32 -44 -45 -25 -6 -6 26 19 16 14 17 17 14 10 16 17 32 37 22 30 45 60 56 57 40 25
17 11 5 -24 69 41 18 -0 49 107 120 -28 -18 43 162 69 36 -4 -34 -24 -13 -28 -32 -36 -36 -43 -26 -6 22 30 19 19 17 7 1 -0 17 13 28 48 49 36 32 35 40 54 72 46 29
20 -16 -26 -4 12 -2 25 10 143 92 60 63 90 227 147 70 19 -9 -6 7 -24 -34 -41 -40 -44 -39 -16 18 20 25 21 19 19 17 13 20 11 10 9 41 42 32 27 28 26 41 26 26 24
-6 -108 41 28 112 66 57 76 6 174 45 204 243 284 194 99 32 -1 -5 -9 -14 -30 -36 -50 -43 -37 -4 11 7 9 10 -3 19 22 5 21 5 -1 12 8 7 20 21 23 13 21 31 40 17
27 129 52 122 167 105 40 90 99 103 49 163 349 345 229 129 49 -7 1 -30 -1 -25 -24 -39 -41 -32 -9 -1 -6 -16 5 -1 20 4 -6 17 2 6 19 5 10 17 22 33 23 26 36 38 53
28 88 148 119 125 50 24 133 77 64 172 175 233 217 190 107 47 -27 -18 -13 9 -25 -30 -31 -40 -35 -31 -17 -21 -25 -13 11 14 32 19 27 1 15 4 -8 12 18 18 7 24 15 25 11 29
7 110 68 32 -8 4 73 -24 131 153 207 259 205 144 128 84 66 15 -7 19 28 -3 -23 -27 -33 -38 -42 -28 -27 -9 -4 28 31 46 19 12 -2 5 5 1 26 19 21 16 38 38 15 30 -8
91 85 49 133 30 30 -1 41 48 251 191 250 215 111 75 48 19 33 22 15 27 5 -12 -27 -36 -45 -28 -26 -9 1 23 87 63 58 12 1 -10 3 8 18 21 18 13 -5 13 -13 24 30 30
90 49 -28 40 6 41 41 128 156 241 195 193 158 131 61 26 43 17 38 -5 17 25 -3 -29 -51 -49 -46 -20 -28 -7 -0 -6 24 35 25 18 11 28 1 27 35 16 13 23 10 16 -9 2 -6
65 78 73 4 31 -33 39 120 251 210 163 115 120 75 69 16 -11 1 16 11 20 71 42 15 -10 -21 -30 -14 -13 -24 -18 27 -1 38 23 28 31 21 8 20 17 20 -0 6 8 -10 -6 18 17
182 141 86 -17 -88 112 106 100 410 309 241 154 99 126 78 77 -6 -19 -3 -4 -2 78 145 123 71 46 26 14 -11 -22 -18 21 42 1 23 45 45 52 13 5 18 27 -1 18 14 5 14 8 17
161 153 131 -17 1 -18 144 335 408 229 214 180 99 117 106 119 46 -35 -39 -47 -44 80 141 183 146 84 78 53 24 -7 -28 -23 23 18 23 10 30 34 22 4 1 19 22 38 56 27 49 21 18
133 165 117 53 29 47 25 185 303 239 278 272 222 181 148 108 78 38 -25 -55 -53 60 135 189 192 163 106 68 43 9 -7 -36 -26 7 5 38 26 30 25 27 28 24 13 18 42 14 24 23 5
154 126 57 44 19 1 -0 141 204 166 294 146 68 123 101 231 219 160 60 12 -21 99 197 218 212 190 131 73 28 10 -35 -26 -58 -40 -2 31 35 37 28 15 13 16 9 25 28 1 8 13 6
111 29 49 21 2 -21 20 19 209 332 167 44 24 60 211 210 222 196 182 102 81 182 204 272 256 212 165 133 42 19 30 12 -37 -39 -2 24 43 37 35 20 17 7 16 31 33 7 2 -2 38
62 70 60 -4 -14 -10 6 64 140 289 242 142 58 -26 180 218 241 213 266 237 265 180 265 311 315 270 234 182 115 68 31 -4 -35 -65 -37 9 46 48 53 39 39 25 21 22 31 15 12 8 25
64 90 104 6 -12 57 11 15 24 372 339 151 144 -38 61 147 173 225 325 317 327 348 349 360 338 297 260 197 128 96 60 11 -16 -34 -16 18 37 46 53 51 39 25 22 5 15 8 7 21 13
23 142 146 50 69 59 -69 -6 9 66 143 331 320 66 36 67 122 99 186 274 340 369 386 381 343 288 235 196 159 116 77 29 11 3 7 16 37 53 53 49 34 22 22 9 -1 -4 -5 8 1
49 80 162 139 103 39 -74 63 41 -107 80 182 228 222 164 65 141 146 241 233 361 358 390 419 316 278 258 210 169 136 93 26 1 -15 8 32 51 44 56 70 48 42 45 18 -1 -15 -18 -11 -14
49 93 72 77 109 36 22 -2 38 11 -40 113 156 142 52 86 112 144 203 264 289 347 388 429 367 272 267 237 166 126 98 51 21 -1 -16 5 42 51 58 98 97 63 63 44 14 -6 -19 -15 -12
80 63 140 137 70 96 19 -12 41 57 -97 -47 108 171 155 97 79 125 200 252 295 313 410 429 387 309 264 202 155 137 136 99 44 9 -7 -6 17 52 57 87 100 76 74 72 64 14 -19 -15 -23
128 102 96 131 110 84 -8 -110 -22 12 -56 -84 30 101 169 270 212 144 240 253 281 313 376 372 349 277 193 192 167 120 101 67 71 25 18 7 1 42 62 82 101 87 92 92 90 68 35 17 -1
46 95 127 97 163 126 30 -18 57 -2 107 94 15 81 139 145 262 296 259 279 232 310 346 354 315 288 199 165 163 125 81 60 55 54 12 12 -0 -2 64 99 98 114 121 125 138 118 90 64 31

GFSSGP_con_3kmhel_045.txt.gz
Helicity
22 14 -13 -15 -25 14 -4 13 17 -73 -50 -16 57 11 -5 16 -27 6 -22 -73 -62 -70 -78 -64 -30 -12 -1 -3 -4 -4 4 11 9 7 7 7 18 20 21 16 10 10 7 9 11 16 10 6 -1
6 19 17 -8 -5 15 24 15 29 41 3 -49 46 -6 -9 -2 -27 64 40 -64 -56 -54 -77 -63 -24 -10 -2 -5 -11 -10 1 1 -4 -5 -2 0 -2 7 5 5 2 1 4 10 10 15 10 -1 2
30 17 12 11 4 -1 -8 30 15 22 17 -2 -2 47 -39 -35 10 106 -34 -34 -35 -57 -67 -45 -14 -6 4 -6 -12 -7 2 -6 -7 -8 -10 -11 -4 -7 -9 -7 -3 -2 1 -5 1 4 0 1 8
21 11 11 -1 -48 25 -7 52 29 30 16 38 20 38 -28 -3 87 -16 -12 -22 -18 -48 -60 -26 -3 4 -4 -9 -16 -8 -7 -6 -12 -7 -10 -9 -14 -12 -4 -1 4 4 5 3 1 2 -8 -10 -8
-44 -6 -2 9 -29 47 -6 7 -21 4 25 -12 34 9 51 28 8 56 -5 -26 -15 -52 -54 -31 -8 -5 -16 -14 -16 -17 -11 -11 -10 1 -9 -11 -10 -7 1 4 10 13 13 8 2 0 -12 -6 18
12 14 13 -1 46 65 37 -10 -8 -1 10 39 67 141 37 -12 24 16 -22 -34 -32 -31 -45 -31 -6 -12 -19 -16 -11 -15 -13 -13 16 30 20 -7 5 8 -1 6 13 18 20 3 -2 -5 -8 13 19
7 26 -8 9 24 -26 -34 -48 -4 -7 -4 12 98 139 34 -1 14 13 -17 -31 -42 -34 -28 -35 -28 -25 -11 -9 -8 -10 -8 -1 2 10 5 9 7 10 4 8 14 18 18 25 11 4 1 20 28
-36 -16 12 66 84 78 17 -60 10 -17 9 134 44 26 112 9 17 11 -5 -34 -38 -39 -37 -40 -38 -29 -12 -5 3 6 7 2 3 3 -1 1 2 12 13 17 24 33 35 49 40 12 14 21 24
5 13 -9 -11 -39 -5 3 -26 -4 3 51 10 6 6 143 72 51 63 34 -26 -36 -52 -53 -43 -36 -26 -17 8 26 14 8 7 6 3 -4 -5 8 6 13 33 19 25 33 36 30 21 32 39 24
-8 -11 17 -26 -30 83 17 -35 83 8 80 24 24 174 210 127 62 97 44 3 -26 -29 -51 -47 -34 -28 -9 21 25 14 18 11 4 2 4 7 15 10 6 32 30 24 18 16 10 11 20 13 43
-5 2 26 -46 7 73 58 80 124 121 54 19 209 403 307 161 57 77 39 2 -20 -25 -41 -47 -40 -26 1 15 14 12 14 4 9 5 9 11 13 14 4 8 5 16 11 18 14 18 18 21 19
-1 -88 16 1 94 60 114 103 -9 133 51 141 276 552 407 195 98 68 30 -12 -18 -24 -36 -40 -37 -18 -1 11 2 -19 -17 -13 -2 2 2 1 20 15 -1 -4 9 18 11 16 24 24 22 23 18
18 56 59 142 155 130 32 150 50 127 20 230 302 362 320 187 95 17 2 -24 -24 -26 -42 -32 -32 -24 -13 -3 -8 -28 -22 -6 -10 0 -9 -1 17 9 0 5 15 2 10 11 22 20 31 20 21
41 37 137 146 216 110 1 25 49 37 175 291 285 267 214 181 121 29 8 6 -17 -29 -37 -36 -28 -27 -24 -26 -22 -30 -21 -9 10 10 17 10 18 20 21 16 16 6 9 4 14 18 14 28 7
42 89 87 133 71 33 52 24 -42 141 187 304 248 182 144 121 104 50 23 57 3 -19 -34 -31 -27 -34 -39 -39 -36 -22 -2 -1 11 3 0 12 22 26 21 13 -7 0 5 -2 15 9 29 15 -32
45 61 -6 62 24 -6 22 -23 20 159 215 225 199 203 132 117 90 22 -7 15 0 -18 -26 -31 -21 -38 -58 -51 -40 -30 -9 14 8 -7 -15 15 18 11 16 17 17 10 5 7 3 -14 1 7 28
165 118 50 53 81 9 40 -9 48 153 188 176 145 176 158 68 77 61 11 -5 -1 -3 -17 -31 -24 -41 -58 -51 -26 -24 -5 -3 9 -7 -11 16 13 9 7 6 12 17 2 4 2 7 13 14 -4
212 156 118 70 49 46 30 5 104 159 224 189 119 98 130 125 87 71 58 -8 -9 7 2 -25 -25 -43 -66 -53 -34 -29 -19 -10 -19 -3 -1 8 -4 11 6 7 18 11 6 1 -2 3 11 -1 2
205 174 127 24 20 78 40 135 189 210 190 148 159 63 82 70 -15 27 46 30 -4 16 1 -19 -23 -50 -64 -50 -41 -15 8 -7 12 -3 17 14 5 8 18 9 21 26 22 23 7 1 8 5 -1
172 217 142 9 3 62 50 93 226 292 316 308 283 161 49 31 14 24 18 27 43 18 14 1 -1 -5 -12 -6 -9 -11 7 43 20 16 8 24 31 17 15 17 33 32 38 38 32 18 23 23 2
111 133 103 17 100 60 35 56 142 173 241 140 44 59 -15 105 47 -6 121 21 21 44 45 10 20 35 38 36 26 45 44 73 65 43 18 14 19 25 13 19 19 29 16 36 41 28 18 14 6
105 109 93 54 -25 56 79 74 119 78 152 175 54 60 74 52 29 -29 41 93 26 1 58 82 56 87 82 68 56 23 7 5 -3 32 25 1 12 29 20 21 17 24 13 20 27 22 20 1 14
60 97 124 88 -12 15 35 129 94 61 24 85 65 16 84 136 61 71 23 132 103 40 48 78 76 88 109 105 83 54 16 -7 6 11 -1 -4 -5 8 25 12 3 17 12 7 11 20 18 -10 4
78 60 69 75 37 -2 -10 144 132 125 25 11 124 25 86 143 187 109 35 50 115 135 64 77 121 104 116 124 91 62 36 25 19 -26 -8 -11 -16 -5 8 20 9 3 3 7 12 11 5 1 -13
89 152 150 98 107 29 5 72 106 -46 34 160 175 189 122 130 124 166 90 71 81 148 186 137 154 136 131 137 112 90 71 57 43 8 -9 -10 -19 -19 1 14 22 10 5 -2 -4 9 5 0 5
120 116 243 242 209 106 8 70 171 -47 -49 129 124 166 168 255 118 123 167 117 137 132 257 230 179 170 167 161 141 120 88 55 22 22 1 -13 4 7 19 31 20 26 12 -11 -19 -22 -22 -7 -1
137 132 86 144 216 149 40 22 76 108 72 50 75 82 177 140 90 41 99 154 184 193 234 315 251 226 224 213 166 132 111 78 27 14 17 -11 -8 7 15 38 41 19 18 4 -8 -19 -25 -13 -13
93 144 169 154 146 178 66 42 -72 147 83 52 31 45 108 247 121 35 31 100 230 279 282 286 284 302 286 237 191 158 135 105 59 31 33 20 -3 -4 7 33 37 44 38 23 15 -7 -35 -23 -31
140 164 165 141 133 132 65 -7 -78 21 97 145 69 24 91 234 208 106 81 162 185 231 260 290 284 280 271 245 201 158 111 70 52 34 22 20 11 -1 -6 13 30 43 54 41 35 17 7 -5 -28
176 95 102 134 132 164 46 -110 101 9 24 114 64 -55 19 94 149 145 213 251 179 189 216 273 268 286 300 309 256 162 107 91 51 46 32 29 11 7 4 18 23 32 46 64 56 39 24 23 1

GFSSGP_con_3kmhel_048.txt.gz
Helicity
29 18 -7 -18 -18 8 -21 -1 21 14 41 34 13 -9 -28 37 -18 20 -31 -59 -38 -52 -69 -48 -21 5 8 4 -2 7 16 17 18 18 21 28 26 26 21 22 18 9 12 10 7 -5 8 -8 -1
25 26 -8 -12 -15 0 -2 27 70 -35 54 47 41 39 13 10 18 47 20 -56 -25 -41 -70 -49 -19 3 11 1 8 7 11 11 13 11 18 17 16 19 11 5 4 1 9 5 8 3 3 -6 -10
36 12 -3 26 9 -13 43 25 5 42 21 68 13 54 21 5 17 154 -33 -31 -22 -52 -56 -37 -14 -1 11 -4 -2 6 1 -1 2 0 2 7 11 7 9 5 5 7 18 19 14 14 -1 0 -10
27 1 25 26 9 -8 49 61 102 54 31 7 37 52 6 30 71 12 -13 -24 -27 -46 -53 -20 -4 0 -1 -12 2 -4 -3 -7 1 -4 -7 -7 -3 0 4 8 8 8 17 17 11 5 -7 2 18
15 -2 2 -3 -8 -3 -19 19 60 25 10 53 38 31 55 10 56 29 -18 -36 -16 -41 -52 -30 -4 -2 -8 -17 -9 -7 -4 -9 -8 -7 -8 -5 -1 3 7 11 12 17 15 16 11 4 11 20 21
24 36 17 -2 12 -6 -1 10 25 59 20 55 98 115 60 8 28 6 -36 -45 -36 -19 -42 -39 -8 -8 -10 -16 -15 -10 -12 -5 -6 -11 -7 -4 -6 -2 4 10 17 13 8 9 9 5 10 21 17
28 33 -16 10 54 39 79 44 -1 36 -2 19 69 111 54 14 -16 -16 -35 -35 -40 -40 -26 -41 -35 -22 -14 -14 -14 -9 -9 -4 6 7 -5 -6 -2 -2 6 24 19 13 9 6 8 13 12 19 34
-2 0 2 12 11 -33 45 -3 -3 27 9 63 63 3 52 5 -17 -9 -37 -40 -50 -44 -41 -33 -35 -5 -30 -15 -5 -3 -5 1 5 -2 -2 -2 3 9 16 29 26 24 16 14 13 17 25 27 36
6 13 -12 -10 -9 12 60 22 -11 16 19 38 26 22 101 41 -5 8 -10 -45 -53 -51 -47 -41 -32 -17 -13 19 16 2 0 1 2 -3 -11 0 17 19 12 20 36 23 12 21 19 20 33 23 28
27 15 -14 -34 -36 7 -18 91 52 19 95 50 10 131 200 101 63 75 47 18 -15 -48 -50 -48 -38 -23 7 27 21 14 13 11 5 3 2 10 11 24 20 26 34 25 5 4 9 17 25 27 32
20 10 6 -55 -24 23 -47 -17 -8 47 100 70 159 271 258 151 73 67 33 22 -9 -32 -41 -52 -47 -25 8 23 20 14 14 10 8 5 6 13 10 17 18 15 19 22 9 16 13 16 21 57 21
18 -9 68 56 83 39 29 -26 -43 77 19 146 240 361 384 199 85 60 32 -2 -26 -26 -34 -56 -45 -15 7 21 5 -7 3 1 8 9 -7 0 9 15 14 5 8 16 18 16 14 20 24 30 43
-24 19 8 62 107 93 83 72 53 54 19 124 301 335 344 204 80 17 -6 -34 -33 -29 -47 -49 -34 -10 3 6 -8 -12 -8 -9 7 -1 1 -2 4 12 17 13 5 10 10 9 25 20 20 23 23
3 15 24 41 74 62 59 -3 36 9 111 179 320 289 226 166 100 14 -2 -14 -33 -45 -41 -46 -31 -13 0 -4 -23 -22 -6 -2 -2 6 2 6 2 13 8 7 13 4 5 3 12 12 15 21 6
24 64 28 14 32 83 -20 -15 10 96 127 191 248 241 158 131 72 20 23 7 -26 -45 -43 -37 -31 -25 -13 -16 -22 -24 -15 1 6 2 4 4 0 8 18 24 13 8 6 1 6 22 17 10 4
36 71 24 77 68 26 14 17 31 105 197 217 265 198 127 91 70 -9 8 3 -19 -43 -40 -39 -21 -35 -31 -29 -35 -22 -16 -4 8 -3 -5 3 2 6 18 21 23 9 12 10 4 -4 18 18 20
155 59 -1 130 74 92 32 34 -13 63 125 168 243 221 104 62 26 -33 -5 0 2 -14 -40 -36 -18 -40 -40 -42 -30 -25 -18 -3 -4 -15 -3 6 9 5 3 18 21 10 1 -5 0 5 22 27 46
153 118 55 67 102 74 71 43 -12 61 120 168 178 165 135 103 57 -1 -31 -25 -11 -17 -28 -32 -13 -34 -44 -40 -23 -25 -32 -17 -20 -11 -16 -4 8 0 0 22 21 4 -4 -4 1 4 23 8 3
131 125 93 78 103 115 58 56 21 68 109 135 152 131 134 115 64 16 -35 -26 -18 -24 -26 -32 -34 -43 -44 4 -14 -15 -17 -17 -11 -18 -17 -6 5 3 5 8 12 13 14 4 0 4 7 17 -12
182 185 152 46 84 98 86 57 86 156 190 255 235 152 120 98 96 44 4 -27 -9 -4 -4 -24 -27 -36 -22 41 33 30 5 -4 -5 -18 -9 4 13 8 7 14 19 21 19 18 16 0 -6 9 5
99 126 151 125 159 120 62 78 86 76 122 119 104 140 107 130 156 117 60 25 -10 -16 -6 4 -15 -37 -29 1 108 98 73 36 3 4 -6 3 17 22 23 16 17 26 16 29 31 13 -1 4 6
116 67 83 120 146 152 132 34 109 97 114 85 122 120 132 111 110 90 115 80 29 0 52 15 -10 -15 -26 -27 -35 -19 6 -5 12 33 23 4 14 21 17 22 11 10 15 31 35 19 4 -4 16
72 79 79 80 98 74 169 148 54 67 4 -3 74 103 77 154 126 156 104 121 108 -14 53 44 82 -23 -14 -15 -4 -1 -2 -12 34 29 27 19 11 11 13 13 4 2 5 17 30 30 14 5 4
90 102 158 118 103 32 26 158 34 87 50 -8 39 75 44 69 110 93 59 43 85 49 36 68 9 -6 -18 -8 14 30 22 15 34 38 39 42 30 7 0 0 4 -4 -4 2 7 15 10 6 -11
122 127 195 172 134 12 -4 77 115 11 30 68 54 180 125 122 117 126 134 112 56 55 -5 4 -7 2 17 33 10 35 53 54 65 61 59 66 52 24 8 -1 5 1 0 -8 -11 0 2 1 1
158 159 277 247 198 52 18 97 111 -85 8 -5 88 191 140 132 100 87 91 146 123 95 67 10 -1 -10 17 52 46 54 55 39 44 50 49 47 70 46 0 2 1 2 -9 -21 -21 -23 -12 -4 -6
178 170 179 192 145 83 103 87 147 28 26 33 41 100 151 179 202 152 82 108 137 151 157 120 49 22 13 33 100 62 50 55 32 40 28 22 31 9 -27 -16 3 3 -2 -5 -15 -22 -15 -7 -4
129 134 204 210 138 111 126 155 93 88 56 30 17 68 131 185 173 235 233 158 158 194 204 193 134 87 74 125 181 168 82 74 62 42 30 9 6 -6 -29 -32 -17 -11 -1 -3 -5 -25 -41 -24 -20
155 175 180 159 181 136 76 98 145 69 64 16 19 67 120 200 227 268 328 174 203 149 201 219 210 164 94 139 191 184 174 164 63 63 44 26 -2 9 -3 -14 -7 -6 -1 6 4 -20 -33 -31 -39
143 180 181 185 199 159 38 68 71 133 73 88 -7 21 40 138 286 344 289 271 184 210 223 216 195 188 174 175 199 204 214 209 104 122 62 24 11 9 33 21 -3 -20 -17 -2 21 9 -16 -20 -38

GFSSGP_con_3kmhel_051.txt.gz
Helicity
55 48 10 -0 -3 14 28 -0 44 24 29 23 31 27 -22 39 14 3 -29 -30 -21 -22 -34 -35 -22 -16 -18 -12 -7 2 7 4 -0 -0 5 12 7 2 -1 2 -3 -8 2 -2 -9 -3 -6 -5 12
46 47 -4 8 -4 -28 11 31 34 31 38 38 13 -20 9 10 8 32 9 -31 -21 -19 -35 -32 -24 -13 -9 -9 -8 -2 3 3 6 13 14 5 4 5 3 4 -3 1 4 9 4 9 2 -5 -3
50 13 30 10 -19 -2 29 24 57 60 -5 32 20 45 30 23 35 88 -19 -14 -28 -25 -33 -24 -19 -13 -15 5 7 9 6 4 5 9 5 3 14 9 2 5 8 12 11 10 9 6 7 -10 -3
29 15 15 19 17 -4 29 37 36 44 19 8 -6 40 3 35 78 38 2 -11 -26 -21 -23 -11 -4 -4 -8 -2 8 7 6 5 4 7 7 9 11 10 4 -0 2 5 11 8 1 5 -0 13 17
13 6 -20 -12 -18 -0 -11 90 93 6 18 10 16 11 39 23 28 44 10 -29 -22 -17 -17 -7 -4 -3 2 -0 7 11 11 -0 3 4 10 15 3 -4 8 10 9 2 2 6 3 9 13 16 27
17 15 -1 -40 -12 -10 -81 33 51 28 50 54 66 54 24 -10 45 19 -11 -29 -29 -7 -8 -2 -2 -4 -3 7 -6 2 6 2 2 8 2 -7 -9 6 4 4 1 6 9 7 11 11 14 13 25
15 2 -12 -2 19 -58 -11 25 10 22 11 30 56 68 47 33 -4 -5 -17 -35 -35 -17 -5 -3 -7 -15 -17 -17 -8 -4 -0 -1 5 4 -7 -16 -4 2 13 16 14 11 17 16 16 13 19 22 27
12 13 -10 3 45 14 9 27 15 26 32 37 31 18 65 56 -25 -20 -17 -30 -38 -18 -14 -6 -17 -22 -14 -7 1 -4 -2 -2 8 -1 -4 1 5 7 17 30 30 22 24 29 33 20 19 23 25
-11 5 -15 -0 32 29 -5 2 20 10 30 23 28 -2 99 90 2 -1 -9 -35 -40 -30 -17 -10 -22 -19 -4 1 8 5 -0 -2 -0 1 -2 2 14 11 16 13 22 24 15 25 33 36 27 14 12
13 4 4 -4 -18 22 71 26 15 14 60 49 28 55 147 102 62 63 39 7 -22 -17 -15 -16 -23 -12 6 12 9 11 7 4 5 7 9 12 20 7 15 15 14 21 16 18 21 25 23 36 23
24 3 25 -27 -10 18 64 49 43 -11 117 110 127 140 152 160 85 62 43 8 -13 -16 -19 -15 -23 1 15 17 16 14 11 9 3 5 11 10 19 19 10 13 13 17 23 30 25 27 29 21 17
26 3 41 46 44 33 -13 32 67 50 43 59 118 160 238 181 134 61 48 4 -12 -16 -13 -16 -13 12 21 20 16 10 7 9 8 14 9 9 13 16 19 13 1 6 17 21 18 26 23 17 8
6 35 33 74 69 88 71 83 57 33 -6 40 143 156 229 135 116 25 14 -16 -15 -14 -15 -15 -1 13 15 14 11 9 6 19 12 11 6 9 13 9 18 13 2 -2 10 14 16 22 21 9 19
24 36 59 76 90 60 56 52 -53 -12 40 86 165 162 193 145 111 30 13 -5 -12 -17 -16 -14 2 9 6 7 7 5 10 13 18 14 2 3 7 14 18 17 6 -0 7 10 11 13 13 16 1
60 62 18 24 63 53 20 -10 58 1 51 108 131 142 133 91 76 36 12 1 -8 -16 -17 -13 -0 5 2 -3 3 5 17 17 18 9 -0 -6 2 15 20 36 21 -5 -2 9 5 9 13 13 -13
30 52 13 17 16 43 21 34 -13 27 79 99 118 88 97 65 57 11 -8 -21 -26 -19 -16 -17 -2 1 -4 -16 -4 1 9 20 23 15 5 5 10 13 24 31 26 18 8 2 6 16 12 14 6
53 28 -13 74 19 23 7 41 24 19 39 102 111 83 73 60 13 -19 -20 -20 -28 -23 -20 -19 -9 -3 -6 -26 -2 -4 -0 10 13 9 4 3 10 13 14 28 20 26 14 6 -6 1 17 4 22
82 44 35 48 41 20 15 28 -9 -2 23 80 96 83 58 49 44 10 -22 -27 -33 -32 -26 -20 -16 -6 -6 -23 -5 3 -10 -6 1 -5 -3 2 6 8 14 19 22 24 12 2 -5 2 14 15 13
125 111 83 56 79 43 29 47 34 2 3 6 59 97 100 56 22 9 -21 -33 -26 -36 -36 -29 -27 -21 -20 -11 -3 12 4 -11 -5 -1 -1 1 5 2 2 11 6 14 20 9 -1 -13 -15 -2 -5
125 132 100 86 137 92 37 50 35 19 14 60 83 99 130 63 47 3 -11 -28 -32 -28 -28 -24 -24 -29 -14 8 27 40 -2 -3 3 -4 -7 -1 4 3 -1 10 8 18 9 7 6 3 -7 -4 -14
53 78 110 125 127 112 77 35 32 20 3 6 28 40 44 84 144 58 13 -10 -18 -25 -25 -24 -14 -17 -2 6 38 48 33 38 20 13 -9 3 13 7 6 7 8 19 10 16 15 9 -1 3 -6
68 47 90 144 199 102 95 46 27 10 -16 2 51 52 57 63 82 94 78 37 5 -6 -3 -6 6 16 17 -8 -8 11 27 13 10 6 -0 -5 15 15 12 8 11 13 11 22 26 17 8 9 5
56 41 51 91 142 171 152 120 58 26 -22 -67 -5 49 51 83 87 123 125 82 18 6 16 28 25 48 34 -45 -9 -19 -24 -22 9 5 -5 1 5 13 16 13 8 15 15 16 20 29 21 7 7
72 91 40 73 96 104 61 125 13 38 9 -12 -35 12 38 72 82 67 85 57 48 22 50 57 75 21 -45 -55 -33 -34 -32 -31 -11 -5 -2 10 13 7 13 17 13 4 1 3 13 22 19 9 7
67 78 161 146 149 66 59 90 50 43 22 -14 8 -1 58 100 107 92 101 83 73 82 71 110 104 -4 -21 -48 -43 -39 -25 -15 -3 -1 1 18 26 33 32 23 14 3 -2 -6 -3 9 12 7 4
92 115 264 245 151 85 101 82 51 47 55 48 18 33 16 53 74 82 105 127 129 103 128 79 97 -6 -5 -19 -30 -37 -18 -40 -30 -14 3 18 26 38 32 24 12 -0 -8 -15 -11 -7 9 9 8
101 107 87 222 150 98 103 97 145 73 35 8 50 25 36 41 53 96 132 159 143 140 116 60 102 46 30 -3 55 -1 -28 -17 -46 -19 8 27 34 21 11 15 7 -7 -11 -15 -20 -15 -7 -8 -8
148 81 151 177 174 72 69 61 36 59 61 29 13 42 26 43 42 41 90 168 213 156 123 80 68 55 40 44 60 22 -11 -14 -0 -15 -0 20 43 18 -15 -1 1 -13 -8 -16 -22 -34 -29 -32 -31
136 178 133 113 127 129 117 84 58 13 37 37 41 22 38 33 75 91 86 136 237 200 205 140 142 126 111 84 83 46 5 -13 -4 -8 27 25 29 43 -15 -7 -6 -12 -5 -11 -28 -34 -43 -49 -42
284 215 95 138 136 103 184 97 64 5 9 -4 8 16 47 36 51 108 119 82 98 169 234 224 209 105 131 124 125 110 98 84 -18 -14 38 77 54 73 -10 -10 -14 -6 -2 -6 -18 -41 -53 -53 -54

GFSSGP_con_3kmhel_054.txt.gz
Helicity
44 16 -1 -1 19 17 22 25 11 27 1 -6 4 25 -26 97 63 -12 9 -39 -36 -28 -37 -28 -30 -18 -15 -9 4 8 6 4 -2 -7 -11 -19 -19 -17 -3 4 3 5 7 8 3 8 7 16 23
48 29 1 12 24 39 18 22 9 27 26 12 -8 -12 14 -1 39 35 16 -27 -24 -21 -25 -24 -29 -16 -13 -6 1 6 3 2 -4 -10 -11 -9 -4 -9 -2 -4 4 13 11 16 15 10 6 11 11
46 19 4 -7 -3 38 32 27 55 25 31 17 4 18 47 -2 23 20 5 -20 -21 -21 -25 -16 -24 -22 -10 -1 3 4 3 10 3 -1 -2 1 -3 5 -6 9 16 16 21 23 14 6 1 4 -4
32 13 2 33 19 17 44 36 25 28 16 31 13 35 14 51 53 14 -3 -19 -20 -15 -9 -17 -17 -10 -7 -4 -5 6 4 7 8 6 5 4 2 -4 3 2 9 15 15 12 3 -1 -3 -7 10
6 9 -15 34 13 5 8 33 101 7 8 2 11 28 50 28 29 29 -6 -31 -14 -13 2 -8 -22 -12 -5 2 4 7 8 8 4 5 8 3 6 2 2 2 5 -3 -7 -3 7 8 4 9 15
2 15 -5 -2 -18 43 6 60 54 21 35 28 11 21 9 -6 32 1 -21 -26 -20 -1 -4 1 -18 -11 -6 6 10 8 6 2 5 5 2 10 10 5 -2 -5 -3 1 -0 8 14 13 10 16 6
10 1 -1 4 18 -34 -60 21 16 4 22 16 14 13 26 21 18 -16 -26 -23 -19 -13 16 2 -11 10 11 15 13 10 6 3 1 -4 -3 1 11 5 8 7 9 12 13 15 17 18 15 17 13
7 13 -15 -9 18 3 12 29 28 4 23 17 12 3 47 65 4 -25 -34 -23 -27 -17 10 2 -13 -18 6 5 12 9 4 4 -6 1 5 5 9 13 21 29 18 29 22 20 23 22 22 12 4
11 19 -12 17 17 35 -0 29 -5 38 14 2 31 19 114 98 20 -8 -30 -28 -29 -24 -3 2 -8 5 16 8 9 10 5 5 -4 3 12 44 15 21 34 16 25 27 25 24 26 26 26 8 -15
-0 17 22 33 63 -3 -0 -7 9 6 20 22 19 60 143 116 62 35 10 5 -15 -8 -2 -9 -22 9 14 10 13 14 8 11 12 8 20 22 5 19 13 14 22 18 24 30 27 31 43 75 18
4 16 21 9 15 57 51 49 16 20 22 16 40 109 120 135 64 33 16 3 -2 -3 -9 -11 -5 17 20 16 18 17 14 11 9 9 24 9 15 14 25 26 37 28 42 33 41 51 63 29 13
24 -8 38 29 -0 48 4 39 41 43 46 19 56 90 111 123 91 40 24 3 1 3 -0 -8 3 20 27 22 21 15 11 11 9 3 11 10 21 21 15 23 13 20 12 9 25 9 10 3 33
-1 38 13 17 70 61 54 58 73 45 20 28 61 78 88 97 74 10 -1 -5 1 6 2 -8 10 22 26 31 22 16 10 12 1 6 9 18 16 9 20 17 15 15 15 6 14 7 -3 -12 -5
41 -3 38 2 71 63 69 59 44 23 28 53 72 67 69 109 83 25 -1 5 1 3 1 -5 13 21 24 28 18 16 22 10 15 5 -0 15 24 20 14 13 16 10 13 6 11 15 6 3 -12
3 57 2 23 59 72 46 33 35 41 20 33 58 41 43 62 57 38 7 2 -2 -3 -6 2 11 13 18 21 10 21 14 16 6 -3 -0 9 27 19 22 13 16 13 9 10 2 7 2 -4 -7
-8 8 3 7 26 35 29 10 36 23 20 16 46 32 29 23 53 8 -6 -14 -19 -14 -5 6 14 4 5 16 12 21 10 14 2 -8 -5 -0 10 19 15 25 9 -8 11 4 4 5 3 -8 2
30 21 -4 38 25 33 4 32 12 12 9 24 24 25 30 -6 1 -13 -10 -21 -21 -9 -7 9 13 3 -6 -0 13 23 10 23 3 -5 -3 -8 10 -1 14 24 8 34 13 6 4 8 14 -4 -2
56 29 31 2 36 6 10 36 -13 -17 3 14 15 14 27 28 5 -6 -19 -22 -26 -24 -5 10 17 8 -7 -15 10 14 6 12 1 -0 1 -8 6 -0 13 10 10 19 16 -5 7 -0 28 25 27
195 77 35 39 49 33 34 26 9 -9 2 12 13 13 25 29 13 10 -14 -18 -25 -31 -24 -5 1 -3 -7 -3 -3 8 11 6 1 -0 -7 -0 5 -1 7 11 15 16 19 10 2 -2 -3 1 6
83 138 102 71 100 71 36 32 49 10 3 7 18 19 24 23 30 7 -9 -10 -16 -22 -20 -18 -10 -11 4 14 14 5 3 -4 1 -5 -15 -8 -3 -2 3 2 14 15 5 12 7 12 -1 -8 -1
41 40 122 130 73 132 88 48 53 32 26 13 -2 12 30 45 61 35 14 -7 -4 -10 -19 -20 -18 -13 -0 25 19 13 4 21 6 -5 -10 -14 -4 -5 1 4 3 9 17 35 29 19 11 8 -4
69 36 94 168 148 91 62 69 55 50 20 14 15 26 28 48 52 75 54 13 -0 1 -4 -2 -3 -15 -19 -8 -25 -3 -8 -5 -10 -12 -14 -22 -8 1 2 9 -3 4 5 5 17 14 14 17 20
72 98 83 84 118 183 120 93 59 65 70 30 17 34 16 39 61 85 103 53 27 50 22 21 33 20 -5 -33 11 -11 -4 -20 -14 -8 -8 5 -20 -2 9 7 1 -6 3 19 8 9 19 10 21
77 81 85 86 120 114 105 105 86 39 69 48 13 27 27 30 42 58 77 73 46 49 63 63 79 53 -17 -35 -19 -21 -29 -9 -10 -1 -4 -7 -14 -15 5 8 9 2 -5 9 14 10 18 20 10
73 66 163 141 182 96 98 109 78 55 48 61 42 35 36 40 53 48 63 72 84 77 57 73 94 80 -15 -36 -28 -22 -19 -22 2 4 -8 -3 -11 -14 -4 6 7 2 4 5 9 7 11 10 4
82 121 202 184 152 98 85 66 54 49 127 43 54 39 30 33 44 49 74 78 83 110 106 93 127 91 88 -11 15 54 -32 -36 -30 -22 6 -13 -9 -14 -13 -14 3 4 3 6 -4 -2 8 -9 -4
60 124 94 115 100 130 77 60 60 53 50 55 102 64 43 27 26 64 76 87 85 86 144 157 147 130 113 86 92 67 -9 -22 -43 -6 -10 -6 -6 1 -6 -7 3 6 7 7 -7 -5 -11 -12 -3
178 66 137 139 228 143 96 93 70 82 104 67 53 51 51 41 43 40 72 64 86 84 97 113 116 141 152 120 94 79 4 -10 -5 15 4 -7 -9 -4 12 -5 2 3 3 11 2 -18 -20 -19 -11
99 149 97 83 136 151 123 73 46 32 18 73 57 54 50 38 40 43 54 48 71 79 77 114 99 77 118 144 138 98 24 -8 9 -26 -8 -17 -17 -9 -9 -2 -14 -3 2 13 13 -11 -29 -28 -21
241 140 86 119 177 136 133 88 40 36 32 28 49 70 76 42 34 24 23 36 62 72 81 100 111 96 91 134 155 140 113 74 3 -52 -42 7 -19 -13 -10 -5 -18 4 7 21 26 5 -24 -33 -35

GFSSGP_con_3kmhel_057.txt.gz
Helicity
41 33 53 -8 16 7 31 10 17 -1 21 -5 -29 3 7 100 35 25 -18 -42 -37 -36 -44 -30 -46 -33 -30 -13 -6 -1 -10 -17 -18 -24 -32 -21 2 5 10 5 10 11 10 15 23 25 7 25 34
30 -16 -13 6 36 15 3 25 17 29 32 -0 -13 13 62 71 10 131 41 -11 -15 -17 -21 -34 -46 -34 -29 -8 -12 -11 -1 -12 -17 -18 -13 -2 2 7 3 7 15 16 18 15 18 18 20 19 32
35 36 1 4 15 37 5 44 34 15 40 52 45 63 43 33 34 33 -15 -12 -5 -9 -4 -11 -29 -25 -20 14 6 8 4 -8 -9 -14 -6 9 2 6 8 14 19 23 22 19 20 18 23 24 31
34 25 6 27 28 16 64 38 75 24 92 10 -5 34 49 9 8 18 -0 -23 -1 19 20 -14 -19 -13 -9 5 13 9 11 5 -7 -5 5 6 5 3 5 7 18 22 19 19 10 4 4 -7 22
3 -4 -5 11 22 17 16 50 87 15 35 -8 25 42 49 56 11 13 -15 -26 -1 61 -0 -5 -13 -6 -5 7 3 10 6 -4 -2 3 2 1 -4 -5 1 -0 4 1 7 -4 -10 -10 -4 15 21
-8 14 5 1 35 46 93 97 60 43 4 30 41 41 35 2 28 -5 -24 -15 -2 40 5 -1 -13 -3 -1 5 6 6 8 8 -0 3 13 18 4 -1 -1 1 -1 1 9 4 -2 -1 6 6 16
18 10 43 1 25 69 39 36 44 4 2 5 5 39 23 14 -17 -20 -27 -10 22 14 24 -4 -10 -10 3 4 4 8 7 -4 -3 11 16 22 21 17 12 5 1 7 11 11 9 13 15 19 21
40 3 22 25 5 12 -9 12 19 -4 1 11 37 3 26 19 -32 -30 -27 -7 10 34 1 -10 -10 -13 -13 -2 13 8 4 -2 -8 3 20 26 25 30 31 20 15 8 8 10 15 23 27 23 30
35 29 -10 49 28 31 43 28 36 56 18 2 2 27 95 44 -14 -25 -31 -3 -8 43 2 1 3 -14 -0 13 17 9 7 -6 -6 19 28 17 46 44 34 3 14 16 19 18 24 28 38 43 37
-8 21 3 31 19 43 29 37 41 35 -28 26 26 141 123 24 23 21 -6 -6 -14 21 1 6 18 5 -13 5 12 10 20 15 7 11 96 56 19 28 15 19 22 25 28 30 36 33 42 82 45
-6 49 30 47 55 66 66 96 -39 16 5 57 51 161 66 37 39 8 1 4 -22 13 -12 11 29 29 26 57 17 24 22 22 8 9 61 36 -3 20 45 41 26 44 31 31 46 42 82 87 84
21 -17 32 14 5 57 23 6 -29 16 108 43 86 79 45 31 46 18 -4 9 -15 4 -10 53 26 28 26 -0 26 25 -11 3 -3 6 26 13 24 33 -9 6 77 -2 12 32 21 6 73 -0 104
-12 1 25 6 -23 41 19 72 56 42 -12 69 83 53 25 12 22 -7 -7 14 -0 4 -10 57 27 27 41 52 49 24 17 16 12 -4 22 58 8 15 16 2 33 49 60 2 42 7 -22 18 -6
11 1 19 16 8 19 15 9 -4 41 53 54 36 28 14 24 16 2 -17 14 13 -1 15 50 17 23 33 60 70 47 33 16 -12 6 11 29 45 -16 10 25 20 35 34 25 43 34 29 23 -40
21 52 14 49 -8 19 26 17 -8 94 71 53 30 21 14 12 5 13 -0 6 13 3 19 40 16 19 22 48 36 30 -1 7 15 -6 6 20 47 12 29 10 5 18 -27 30 -11 18 34 -0 26
19 27 15 4 24 -22 33 -9 62 79 59 45 36 11 11 8 10 9 1 -5 11 -1 29 26 15 13 14 20 14 49 13 43 23 -6 -4 7 10 19 40 16 27 31 4 63 10 47 54 14 5
32 10 -3 35 73 10 19 70 153 58 45 45 41 20 15 4 -2 -0 1 -3 11 7 33 24 21 -7 13 18 8 44 11 31 -2 15 26 6 1 11 29 25 -8 13 49 27 28 14 27 15 22
20 13 -3 23 48 -0 21 52 44 27 39 52 45 26 26 25 15 10 -5 -1 2 16 38 29 28 -26 -3 29 19 37 29 28 15 2 52 15 -0 10 31 6 5 33 25 -2 22 25 23 54 35
60 14 10 -2 88 -7 19 56 -50 44 41 58 36 34 24 42 16 20 -6 1 1 11 22 33 36 33 -27 6 5 10 -6 24 -2 -9 37 -8 -0 3 10 3 10 28 -18 43 -8 22 46 35 10
84 83 46 21 62 46 37 32 43 82 34 49 18 30 18 26 37 24 -5 3 1 20 16 18 46 44 -18 21 14 11 11 -8 4 -1 -4 4 4 -1 3 1 15 10 4 4 3 19 -7 4 -2
48 44 43 36 57 25 41 59 24 79 66 59 28 29 33 45 69 51 22 14 11 32 19 36 47 53 10 14 14 21 13 22 2 -13 -19 2 1 -1 2 -0 6 7 3 27 16 17 40 11 -1
69 36 75 50 56 54 38 81 65 171 19 69 42 34 28 32 51 67 43 29 29 45 37 67 62 57 33 3 -29 -13 -9 -13 -10 4 -9 14 -0 -5 -5 -1 3 11 20 15 18 22 41 12 37
81 40 27 49 93 71 47 47 45 45 77 83 46 37 37 62 58 114 83 75 54 52 72 69 85 59 40 -4 12 -15 -5 -14 -17 5 91 -4 -11 -9 -7 -2 3 7 13 -0 3 6 -0 22 33
37 78 91 62 53 117 81 60 40 152 97 36 61 64 36 66 68 83 103 79 43 65 77 87 123 85 35 36 -11 7 -24 -6 -6 2 35 -24 -11 -8 -6 -5 11 10 6 13 14 14 11 12 14
71 107 157 146 142 96 57 85 50 110 29 98 48 42 73 65 56 68 105 84 102 82 103 117 139 113 86 54 12 12 -14 -29 33 39 -0 -13 -7 2 71 6 -2 -0 3 14 11 18 1 12 11
60 87 172 142 140 80 61 90 59 37 74 158 104 3 61 65 71 70 80 94 117 110 148 143 187 155 120 91 71 42 10 -17 11 22 -2 -6 2 -11 115 17 -0 -2 12 5 22 6 12 30 17
50 77 53 56 47 49 56 35 36 39 21 73 -1 83 96 84 46 77 86 91 92 93 169 185 196 205 175 143 133 110 85 -23 -18 -0 5 15 1 26 67 30 1 3 1 1 3 1 15 -11 5
46 39 78 88 171 158 45 30 60 50 48 47 40 44 169 95 46 55 82 83 86 89 95 125 174 201 160 163 178 152 117 75 35 88 88 -8 26 19 57 20 -11 -2 1 6 12 -0 3 -0 -0
62 121 81 72 82 146 105 59 49 34 50 50 50 58 61 54 63 37 72 86 91 61 71 102 104 157 130 128 155 152 142 99 84 111 105 76 49 54 11 22 -11 -16 -7 1 14 -22 -8 19 -3
50 38 35 99 97 83 55 57 30 33 41 57 50 50 40 25 42 57 38 73 90 73 60 81 89 97 135 110 161 152 166 136 109 77 101 103 72 53 46 14 14 -19 -16 7 21 12 -7 11 10

GFSSGP_con_3kmhel_060.txt.gz
Helicity
22 17 29 37 19 -1 17 -15 5 -15 12 21 22 27 2 34 -28 -32 -44 -50 -27 -41 -48 -31 -34 -31 -38 -6 20 20 -0 7 -5 13 10 21 19 16 3 6 4 -5 3 14 11 12 25 36 37
32 43 42 -11 -2 -10 15 -0 66 5 2 21 31 143 43 40 70 130 12 -27 -19 -25 -28 -33 -36 -34 -31 -25 -5 2 -3 -9 14 14 17 24 21 17 16 17 11 14 6 15 23 29 27 25 28
26 17 -10 11 -0 27 84 36 35 -7 26 107 48 28 33 32 120 135 -3 -24 -7 -22 -26 -32 -40 -35 -19 -8 -2 1 9 5 7 8 15 10 15 11 16 26 25 23 18 23 23 24 23 31 17
14 23 17 21 46 5 19 -46 13 127 58 37 24 34 45 39 72 31 -26 12 -9 13 -14 -19 -30 -22 -1 -5 2 -8 4 5 5 8 14 14 6 9 17 22 25 28 23 16 8 15 -0 20 22
16 21 -9 41 28 47 39 64 100 49 66 177 59 91 60 48 -19 -20 -20 13 62 29 -3 -15 -21 -13 -4 -4 -2 -3 3 4 4 7 14 11 9 8 9 10 2 -10 -10 -7 -8 4 8 12 26
4 -5 4 28 2 95 72 87 198 26 85 62 52 60 37 7 -7 -32 -7 4 147 23 9 -8 -15 -12 -3 -1 -0 -1 1 3 8 11 14 22 14 16 8 4 -5 -4 -1 1 7 8 15 25 33
31 20 47 16 -0 93 42 59 58 39 25 -40 62 47 31 7 -25 -60 2 112 98 58 11 -5 -10 -2 -2 -5 -5 -0 -5 5 10 15 23 25 23 24 24 16 8 1 6 16 20 23 31 40 37
19 -0 2 3 48 71 33 -3 69 102 24 71 66 14 20 -4 -66 -68 57 41 127 38 -1 5 -17 -11 -18 -12 -4 1 3 2 9 23 32 26 29 35 40 34 16 10 12 24 30 45 57 48 22
23 6 15 26 32 -25 -18 16 22 114 65 12 7 59 70 48 -58 -48 25 58 108 23 -3 -25 5 -24 -1 -7 -7 -0 4 14 13 20 23 33 52 63 41 38 31 26 25 23 31 39 53 27 14
49 -7 44 -2 -37 9 33 54 54 -5 -8 4 82 128 85 27 -50 -16 -10 93 96 31 18 36 2 -5 -11 -0 -2 13 9 21 29 17 30 37 56 54 29 24 26 34 33 29 29 37 44 68 35
-21 48 132 27 47 68 47 46 165 81 1 49 164 102 103 43 -32 -10 20 77 -27 11 6 49 54 -52 -11 -9 -16 15 8 12 25 -4 23 35 36 41 62 31 11 24 10 35 35 51 69 149 72
44 -9 31 -4 17 36 75 130 101 137 138 56 170 77 75 54 -4 -24 -0 89 -2 -31 57 170 58 31 76 -27 -10 39 -2 -15 -7 -5 69 6 12 33 13 32 18 -3 -6 28 44 28 16 29 119
-19 -0 -20 5 27 9 51 77 152 -23 53 136 160 55 71 22 -25 -56 12 3 -5 -2 97 148 35 73 63 78 50 20 -14 -74 80 38 33 -0 46 27 47 51 20 14 23 52 -8 40 12 25 47
12 -23 1 34 70 53 19 101 28 64 -26 58 83 9 40 -21 -26 -24 29 -3 38 13 82 150 41 43 48 57 32 13 73 51 -8 -11 43 1 12 22 13 17 9 -4 26 22 32 57 47 20 20
34 33 5 39 26 70 32 85 38 51 -108 117 38 -3 1 5 -25 -23 40 53 11 67 87 102 43 36 53 64 37 70 67 45 20 61 57 15 -5 5 16 48 35 -2 -0 33 20 62 -1 18 19
43 24 20 18 -0 -15 15 32 129 164 -15 86 63 16 -0 -31 3 -37 35 60 29 57 113 67 10 2 33 36 53 6 32 33 39 5 -1 12 3 -11 -0 -3 27 -23 -3 14 11 69 34 17 77
34 6 -4 11 83 32 -5 34 82 56 4 96 73 38 15 -29 -15 -9 -9 37 89 75 132 56 33 5 8 16 35 10 39 16 -22 -2 -6 6 8 -3 43 -23 4 20 3 22 37 34 36 -3 45
27 3 13 -22 52 39 9 93 122 14 80 116 90 42 34 42 -3 31 -12 1 101 106 117 44 51 25 1 15 -0 9 41 43 28 36 56 18 14 1 12 -11 -5 18 22 26 36 24 18 26 11
79 47 -19 12 103 81 13 278 107 13 16 41 134 62 37 104 -33 54 -20 6 79 137 89 70 58 59 30 24 -7 -2 -8 15 29 11 -32 8 -5 1 3 19 15 8 -17 30 54 41 44 34 3
90 117 64 15 56 45 181 212 74 49 -33 -22 149 118 45 36 45 63 -19 31 23 144 113 73 82 82 37 4 -7 -3 -12 41 -19 10 -13 7 12 -0 6 14 19 26 19 31 14 1 -13 46 -11
52 80 40 38 35 49 25 140 135 77 -12 31 51 112 32 58 105 127 11 50 39 153 131 80 87 92 49 -3 -22 2 7 22 -3 48 1 -11 -4 -0 3 15 -0 -3 28 37 23 6 25 27 19
64 19 43 66 78 55 86 69 98 183 70 80 106 117 42 57 83 174 52 44 82 194 167 113 96 93 49 -33 -35 -11 -11 -1 -12 29 10 -3 10 6 9 1 11 -0 1 23 26 -3 -15 -6 21
49 29 26 24 130 99 73 29 59 285 192 166 84 53 77 60 80 181 136 82 108 200 215 144 104 98 34 -25 2 -16 -23 -31 -10 30 -18 71 11 16 16 29 7 13 13 25 16 -5 -13 3 38
26 52 81 59 28 108 108 87 36 277 290 216 -77 43 91 67 71 163 161 104 88 161 199 170 128 100 60 9 -22 -20 -37 -15 12 -1 60 -0 21 5 -11 46 14 6 15 32 26 10 -9 -13 14
36 72 128 131 141 56 55 103 74 40 298 422 288 -124 -0 115 96 135 156 135 102 163 230 219 188 125 89 47 -6 24 -26 -49 -42 1 -15 -11 23 1 22 71 48 15 -0 4 17 18 7 -22 -7
39 41 123 121 111 44 34 59 44 23 24 226 154 64 28 173 124 129 179 160 161 156 224 251 262 184 151 92 29 51 15 -44 -33 31 -6 27 -21 106 133 108 92 39 23 16 8 16 14 15 -4
76 51 36 97 60 61 31 -0 -27 18 15 67 246 216 239 139 231 147 172 172 179 134 228 273 293 240 178 174 130 72 74 14 31 41 36 32 -46 16 170 114 82 50 42 13 39 6 29 8 12
26 45 38 77 154 144 64 53 19 19 50 53 207 242 231 153 116 62 205 186 193 156 165 238 279 270 207 166 184 157 125 82 107 -12 67 39 16 -17 108 98 53 51 23 15 36 3 23 26 18
46 102 81 58 62 130 138 92 35 49 96 50 168 219 155 -40 152 32 113 159 186 186 141 190 218 287 230 189 161 168 134 112 89 122 26 81 -28 50 106 131 121 91 39 17 27 -3 -34 31 27
16 66 42 115 127 103 63 46 15 53 48 51 21 66 296 100 260 319 40 41 230 179 154 168 197 211 253 217 179 160 167 140 102 97 120 102 74 70 87 142 105 88 75 36 37 30 -24 19 13

GFSSGP_con_3kmhel_066.txt.gz
Helicity
13 2 -7 -3 -0 16 22 59 112 47 -7 -3 -21 -57 -73 -49 -29 -17 -37 -65 -30 -32 -44 -37 -26 -26 -18 -1 13 14 13 7 4 14 12 12 4 1 -1 -1 3 4 5 13 22 33 35 30 26
8 7 3 -10 16 37 28 -32 13 92 -1 31 -52 -3 -71 -46 -42 25 5 -27 -5 -18 -31 -29 -23 -20 -7 10 13 18 19 17 15 16 13 12 6 3 9 -2 8 9 7 13 12 22 24 16 -6
16 17 4 11 12 -5 15 82 67 15 62 31 45 32 -50 -64 95 54 -0 -10 16 -7 -22 -22 -13 -5 -0 9 15 19 20 16 19 21 21 20 15 23 20 16 22 16 15 16 18 13 -9 -14 -13
19 -4 -9 6 29 9 -34 -79 113 35 74 131 66 48 -30 -34 97 -4 26 14 32 -8 -23 -12 -4 -0 2 5 10 15 10 14 12 19 19 24 22 24 29 17 13 13 12 10 -12 -0 -14 -9 3
5 -0 -2 53 51 -17 -26 -31 -15 -0 33 29 34 45 42 -2 3 55 52 31 59 -11 -23 -26 -8 -1 6 9 11 7 10 11 19 18 21 21 17 15 2 12 13 16 15 11 12 12 -0 8 15
-8 -5 24 4 -3 -26 -36 -23 40 120 19 37 76 160 73 39 40 22 44 28 32 15 -27 -19 -7 3 5 5 4 7 10 16 21 18 22 18 28 33 28 24 23 22 28 29 27 13 -0 5 23
-26 19 26 13 16 29 -21 -7 -16 36 49 23 48 229 84 -16 6 40 28 25 36 25 -2 -20 -19 -3 1 -2 -0 7 10 16 12 20 26 31 37 36 37 31 31 31 33 31 24 8 1 3 7
8 16 38 -0 -14 16 88 58 -28 -10 67 77 116 98 71 -4 40 62 55 26 41 27 -2 -17 -14 -2 -11 -12 1 5 9 10 15 22 33 40 28 28 33 35 38 32 32 35 29 10 7 2 21
17 23 31 -13 -13 30 30 57 4 43 6 14 6 55 38 32 96 128 61 39 46 21 3 -15 -21 -18 -13 -11 -2 -0 7 11 16 16 25 29 30 21 25 37 31 42 43 35 28 17 9 5 12
-8 -8 -22 4 -23 -9 -11 12 79 34 -25 6 34 -5 100 124 162 134 65 37 24 7 -17 -23 -30 -25 -20 7 -15 -18 -10 -17 -11 -0 14 32 34 29 19 22 36 49 53 41 28 7 -3 3 46
2 29 -44 34 121 40 36 53 11 36 -12 40 -1 46 190 209 207 158 63 49 8 -16 -15 -43 -39 -29 -16 -18 -31 -32 -38 -33 -10 14 16 40 28 14 14 6 25 43 19 35 38 20 26 18 40
62 29 -46 -37 126 103 124 54 27 43 75 11 14 100 277 227 160 163 56 1 -19 -11 -22 -53 -42 -45 -32 -37 -64 -60 -44 -53 -33 -16 2 11 -2 1 3 12 -5 22 37 34 42 29 52 50 56
52 90 1 111 166 136 127 5 21 146 90 106 -27 -18 175 269 137 70 32 13 -6 3 -30 -66 -67 -54 -47 -63 -83 -59 -43 -44 -12 15 9 10 24 4 -0 8 1 6 14 19 27 28 47 43 63
50 40 57 308 226 147 122 46 28 46 142 42 -13 -26 85 199 158 32 9 61 39 -21 -31 -68 -90 -56 -56 -52 -54 -52 -41 -42 16 3 36 9 15 -0 10 -3 -0 -9 13 33 57 31 24 19 40
102 31 38 205 230 152 140 109 61 -3 -19 58 -64 -4 56 128 114 35 25 127 126 50 46 20 -73 -27 -37 -35 -26 -41 -48 -20 17 -10 1 11 9 -1 1 -4 -4 -3 -14 20 34 19 19 24 7
52 25 42 91 165 89 39 66 156 64 4 60 13 11 14 4 55 46 28 179 182 170 125 68 11 -14 -33 -37 -28 -18 -34 1 -6 -12 -0 -9 4 9 -11 -13 -11 -2 2 -1 22 1 4 23 54
69 -4 -27 48 129 87 58 70 132 80 6 30 83 -16 29 -77 -41 1 23 205 220 246 178 88 66 25 -16 -36 -17 6 -30 8 8 -8 16 4 -0 5 9 -8 -14 -11 -19 -20 4 -10 19 56 25
49 36 13 -15 23 167 137 61 213 52 24 117 29 12 -14 -87 -99 -38 93 178 281 244 224 147 82 7 26 -27 24 22 -34 -37 -28 -14 -8 9 15 10 1 3 -7 -25 -19 -16 -13 -21 3 43 25
16 46 74 89 27 198 309 224 244 130 55 64 5 -20 -11 -102 -126 -34 110 179 255 258 235 173 71 -7 20 -8 -47 -42 6 -22 -38 -43 13 6 10 10 6 3 7 20 -1 20 -20 -6 8 2 11
60 120 134 104 41 43 284 234 299 117 18 -12 17 26 -15 -72 -80 -17 154 306 288 239 211 148 59 5 -7 -16 -55 -38 -10 -15 -40 -23 -14 -0 7 8 16 5 -7 -0 -5 -16 5 -3 37 29 -2
117 130 201 201 82 59 172 166 140 -11 78 -2 -86 39 8 -22 -30 44 320 282 190 237 204 143 101 44 -7 -7 -35 69 69 -3 -60 -35 -32 -9 -6 3 7 7 3 7 -15 -30 -13 -10 -16 -3 -3
105 138 148 74 -17 63 54 111 27 94 67 22 64 93 45 -53 -11 216 268 252 273 234 241 200 149 67 6 -23 -1 -33 -49 -43 -15 -19 -23 -7 -16 -0 11 11 15 4 -2 -12 -43 -20 -21 -32 2
132 129 113 31 33 22 38 -29 34 175 143 104 110 231 64 -93 -5 181 400 392 335 310 287 235 194 94 28 -19 -42 -25 -53 -50 -29 -30 -22 -12 -26 -2 20 14 -1 7 1 1 -23 -34 -20 -30 -1
41 98 56 -1 26 108 37 71 29 102 294 284 138 252 154 67 131 197 291 387 384 322 318 255 205 132 52 3 -43 -46 -50 -42 -46 -24 -17 -13 -21 -8 -2 19 20 17 16 11 -17 -53 -30 -12 -39
70 137 133 70 147 83 78 114 55 -6 70 440 340 167 68 91 238 195 321 382 357 346 333 291 230 157 96 21 -32 -45 -41 -47 -33 -0 8 -8 -1 10 2 -1 12 15 27 35 14 -17 -24 -40 -44
134 93 124 92 50 92 77 66 54 39 117 215 324 114 136 47 142 192 278 456 451 393 367 346 271 204 137 64 -9 -35 -50 -69 -40 -11 27 15 41 38 13 18 12 17 22 21 30 8 -11 -53 -44
163 147 62 88 97 122 134 155 54 62 59 113 121 187 171 215 167 293 273 410 460 458 416 396 337 250 203 129 31 -22 -49 -73 -72 -7 31 28 57 35 6 26 14 21 23 15 21 16 15 -19 -42
204 117 135 142 59 99 126 110 48 -23 104 114 181 192 166 179 279 366 290 334 395 452 454 450 410 316 252 173 93 16 -29 -60 -54 -22 6 -3 -2 -4 12 32 36 25 22 20 19 11 5 4 -21
265 262 217 134 111 96 99 95 -46 -62 -88 -10 55 107 109 192 274 477 473 349 340 343 384 401 407 338 280 223 161 59 -9 -51 -76 -49 -26 -26 -13 -25 19 50 92 68 47 35 19 -1 -7 -10 -11
47 128 138 293 302 142 105 160 -39 -107 -42 -20 48 19 174 158 253 398 429 350 532 312 320 338 324 321 319 286 245 188 75 -0 -48 -75 -62 -35 -4 12 22 58 82 97 59 43 29 13 -4 -17 -10

GFSSGP_con_3kmhel_069.txt.gz
Helicity
22 13 -1 3 11 18 11 6 12 46 -9 -24 14 -30 -34 -39 -13 12 -28 -40 -24 -37 -37 -21 -19 -9 3 -2 6 6 2 1 5 4 12 6 1 -3 1 8 7 14 13 26 34 28 19 21 16
1 1 -6 8 19 45 20 -19 92 51 85 6 -54 -54 -43 -49 -28 22 27 -32 -3 -30 -41 -29 -14 -10 -1 8 12 7 6 6 9 6 6 -8 -2 -1 -3 1 3 3 5 16 22 4 2 0 5
3 0 -3 18 29 102 -2 19 62 99 -30 -14 3 46 -45 -50 29 85 -8 -3 -4 -33 -35 -18 -12 -7 4 10 14 15 12 13 10 7 5 -1 6 9 9 18 17 11 13 17 6 -4 -6 -3 1
-6 -5 -6 18 73 66 21 -6 41 82 23 57 -39 -23 -48 -42 80 -11 24 31 1 -24 -27 -12 -4 1 5 7 16 20 14 16 14 10 10 13 8 12 11 13 -7 3 17 16 26 -3 0 -4 4
-13 -17 22 54 36 30 19 -32 -43 -23 -23 -22 26 -23 13 -15 21 74 58 34 22 -17 -24 -13 -4 4 1 23 21 13 14 16 17 13 12 1 1 -3 4 -4 -7 -7 6 -7 -6 6 1 0 5
-18 -25 13 1 11 -32 84 -18 -35 10 37 44 63 136 1 18 60 29 40 24 12 3 -21 -9 -2 7 7 13 10 12 11 13 12 15 13 12 11 13 10 4 7 10 9 8 6 5 8 23 28
-16 1 7 12 -16 -6 2 -3 -43 23 -20 11 80 146 56 25 9 10 47 43 6 -8 -10 -9 2 3 2 6 7 12 16 16 17 18 19 23 27 18 10 16 9 4 7 9 7 2 4 3 10
-31 -4 14 -21 -23 -6 -10 -11 -10 2 17 68 93 44 119 20 -17 11 29 22 -7 -14 -4 -15 4 1 -4 -2 2 12 18 15 16 19 22 20 20 20 13 18 16 6 1 0 -8 -2 5 14 5
-7 12 20 24 4 -21 19 32 40 29 16 33 63 89 69 11 16 42 18 -5 -16 -28 -23 -23 15 10 1 2 2 7 10 14 19 23 16 16 13 9 17 35 21 10 6 2 -3 -2 2 10 8
-20 7 52 37 5 6 41 27 44 39 27 20 44 98 90 50 19 58 19 4 -12 -11 -29 -25 -13 -3 3 11 -10 -12 -2 -10 -4 8 14 15 8 15 31 32 27 19 12 11 9 0 6 6 35
-16 18 53 -20 4 40 47 57 -1 65 32 0 131 135 107 95 20 20 -18 22 15 -6 -15 -26 -26 -14 -5 -9 -12 -30 -24 -18 1 11 25 29 20 10 16 14 14 25 16 15 3 18 25 37 41
21 -17 122 78 13 123 101 100 66 37 21 69 30 195 155 113 67 27 -2 -11 -9 -7 -22 -28 -32 -32 -9 -17 -32 -38 -34 -20 -9 8 14 -3 8 1 -1 0 9 12 19 11 5 21 46 49 45
73 111 151 126 74 112 104 49 65 65 74 9 48 160 135 100 62 20 36 -10 18 0 -18 -42 -39 -39 -31 -36 -52 -56 -40 -30 -11 1 -5 10 -4 -6 5 1 8 9 20 10 16 19 29 39 51
55 153 176 170 163 96 72 33 53 76 94 20 5 159 193 118 81 35 9 21 -11 -32 -24 -55 -54 -45 -51 -53 -52 -44 -39 -16 -6 -13 -2 8 5 1 -1 -5 -3 0 9 11 25 20 32 45 33
161 160 142 83 144 32 112 55 -7 112 116 52 23 175 150 104 57 82 27 27 13 -54 -41 -93 -78 -56 -52 -52 -44 -40 -32 -17 -4 5 8 16 11 11 7 -14 -14 2 14 -1 0 13 27 30 25
126 126 95 69 84 31 20 25 70 137 56 36 72 147 166 86 68 49 36 43 4 -22 -31 -78 -61 -70 -43 -51 -31 -42 -26 -8 4 20 10 22 0 5 -7 -12 -15 -1 13 16 3 -3 12 37 21
184 106 68 29 8 14 20 16 38 63 -7 -46 41 110 149 84 39 87 60 72 59 43 -1 -35 -32 -43 -52 -43 -30 -26 -12 9 8 25 10 3 23 14 -14 -22 -6 -12 -3 12 21 15 33 45 16
115 102 61 92 -3 40 84 60 94 56 68 -6 11 55 135 104 40 93 105 85 97 109 82 67 -6 -25 -28 -31 -34 -28 -35 -20 0 18 13 0 0 9 0 -15 -14 -18 -13 -3 16 14 9 30 19
76 48 52 88 58 52 172 208 100 21 27 25 -10 69 121 136 69 63 141 150 114 117 121 100 45 -45 24 20 22 2 -54 -39 -23 -8 10 10 9 13 2 -6 -14 -15 -6 -7 -20 -4 -13 6 19
26 42 104 183 116 33 74 171 110 59 6 42 28 47 62 84 91 126 96 181 178 179 178 160 85 39 38 65 52 4 -50 -35 -29 -23 -3 5 7 22 4 3 1 -1 3 12 -1 1 -3 -1 18
47 -9 125 214 229 93 51 83 62 49 30 38 6 -6 -8 2 26 132 112 184 185 209 147 137 129 100 52 41 88 142 116 35 -45 -22 -14 6 -4 9 -2 -7 -6 -10 -9 -10 -1 -18 -32 -13 23
51 45 147 190 192 144 46 37 32 22 -12 -20 -15 -49 -55 -35 13 80 222 240 220 257 165 118 160 80 21 52 56 61 2 10 -2 -8 -16 5 2 6 -2 -5 5 -7 -16 -23 -24 -23 -32 -33 -25
48 137 166 137 126 96 112 72 26 22 28 83 54 -14 -59 -47 96 154 153 322 356 291 221 155 168 71 8 33 68 37 -7 -13 -10 -25 -27 -11 -3 0 -1 4 9 10 4 -4 -38 -23 -11 -3 -9
160 155 165 153 102 179 99 61 25 76 139 127 191 85 -51 -84 -14 173 204 263 322 328 252 250 226 100 30 36 47 60 25 -21 -31 -21 -23 -16 -8 -13 -12 -5 5 6 12 21 6 -24 -3 -6 3
150 213 206 180 219 139 82 93 22 60 90 165 313 212 48 -61 -21 125 238 236 231 313 296 282 263 146 64 25 52 53 38 -9 -42 -42 -21 -21 -15 -17 -13 -2 8 9 9 20 28 -1 -6 -8 -8
137 130 149 166 197 231 138 97 138 149 98 92 200 188 146 66 4 132 271 323 300 303 368 336 265 199 135 32 25 24 14 -19 -26 -36 -29 -6 7 13 -2 15 2 6 7 1 7 6 -11 -17 -14
174 233 135 156 271 251 192 175 117 107 153 90 110 59 28 104 62 79 192 304 317 306 322 375 331 237 198 126 16 5 -2 -29 -27 -21 -22 -13 15 28 18 30 21 7 12 18 10 2 6 -18 -30
191 185 210 209 174 186 228 246 268 280 237 186 126 104 59 26 55 47 117 233 300 319 325 349 392 334 276 194 115 61 20 6 -13 -12 -13 -6 -6 5 16 18 16 15 10 13 9 -1 -15 -6 -17
299 266 253 194 201 156 182 200 187 196 199 150 179 135 114 111 81 102 132 178 245 306 286 309 312 324 252 214 164 129 98 129 130 -1 3 -1 1 -26 -1 2 2 11 26 17 13 4 -10 -8 -18
119 228 236 257 312 280 214 271 304 234 117 137 116 123 103 115 137 170 140 176 140 177 230 281 320 301 278 266 215 162 159 173 116 10 -9 14 1 10 -16 -20 -19 0 44 39 37 26 -2 0 -11

GFSSGP_con_3kmhel_072.txt.gz
Helicity
24 18 10 -4 6 43 43 -14 -5 35 -15 8 35 0 -13 -14 8 29 -15 -35 -15 -27 -18 -2 -5 2 -2 -3 -4 -6 -12 -7 4 9 -1 -1 1 11 12 15 23 22 27 27 19 21 12 10 9
6 7 -5 5 34 80 18 -2 41 64 52 13 -19 -32 -34 -35 13 22 21 -39 0 -25 -13 -2 -8 2 1 2 1 -3 -4 1 6 11 0 3 7 8 4 11 15 17 18 12 9 12 2 -4 -4
13 22 1 18 44 135 10 35 91 104 -27 5 -18 79 -10 -22 35 72 -33 -11 -5 -30 -23 -7 -3 7 11 11 5 -6 -4 2 2 8 7 15 17 21 21 19 18 19 11 -1 -10 -11 -8 -6 12
1 3 14 54 67 57 -20 10 79 111 59 58 13 -53 -22 23 71 -13 -15 13 -4 -32 -24 -9 -3 2 15 15 8 7 7 2 -6 -4 -11 -2 18 30 30 39 38 23 -20 -11 -4 -6 9 8 -1
12 5 13 54 63 61 0 -18 -14 104 51 77 44 -61 -26 0 -32 17 -3 1 18 -23 -17 -12 -2 5 16 8 8 8 6 4 -8 -9 -13 -20 -18 -9 -17 -23 -28 -14 -15 -4 -1 -5 8 -2 4
-13 15 -7 -17 -11 35 55 -64 -64 41 29 -13 -6 6 26 -29 22 -15 -13 -1 5 2 -14 0 0 5 12 10 7 5 7 2 -3 -7 -14 -14 -12 -7 -10 -6 -14 -13 -8 -3 2 10 22 19 6
-24 -10 -3 30 -43 34 -19 18 -29 18 32 25 -3 54 15 -28 -19 -23 -18 14 -3 -11 -11 0 -3 6 4 9 4 11 6 2 9 -3 7 10 0 13 0 3 -9 -6 -2 3 6 14 30 23 2
-3 -21 10 -7 0 12 -53 -30 3 58 18 44 35 -14 17 -18 -24 8 -19 7 -6 -15 -25 0 -6 0 3 5 11 13 13 13 7 10 13 6 4 17 9 6 1 -2 0 -5 3 6 14 11 -3
-6 5 -9 39 -22 2 40 57 31 89 -21 41 19 34 72 29 8 30 -7 -14 -16 -24 -26 11 1 6 6 8 10 11 13 12 17 8 11 -4 19 26 23 25 11 5 -10 -5 0 2 6 -1 5
9 5 12 18 2 5 87 39 10 -6 -1 44 120 159 129 37 19 56 35 7 -8 -10 -12 -10 -8 9 10 8 1 -1 10 12 17 14 13 18 16 23 42 31 17 10 8 1 2 7 -1 9 22
-27 46 39 13 6 69 47 52 8 46 44 9 75 149 45 34 3 8 -19 -5 -11 -6 -2 -12 -14 4 3 -2 1 1 4 14 19 9 13 14 14 18 22 36 32 40 14 30 5 15 26 34 42
25 60 114 49 29 47 36 86 32 20 39 26 77 118 51 12 -8 -30 -42 -15 -11 -4 -18 -23 -12 0 2 -7 -11 -20 -7 6 22 6 27 20 14 13 6 17 16 22 27 27 38 34 51 48 52
7 95 63 102 56 43 80 60 102 28 48 65 81 68 32 -27 -54 -61 -32 -8 -10 -4 -27 -35 -17 0 -4 -19 -15 -17 -6 3 4 16 23 23 17 13 15 19 15 9 9 22 33 28 44 46 27
68 64 109 45 58 71 58 40 53 65 101 -3 56 19 25 -11 -16 39 -26 -30 2 -7 -24 -37 -25 -13 -21 -30 -31 -27 -17 -1 3 16 28 9 13 11 7 9 9 6 5 13 31 32 33 32 25
138 101 111 65 69 21 71 9 -70 147 108 67 79 1 13 7 7 14 -21 7 33 -5 -16 -34 -36 -27 -35 -38 -31 -26 -13 1 -3 9 23 23 12 8 -6 1 6 9 5 2 14 5 26 14 11
94 87 101 74 60 14 5 26 33 158 96 82 79 52 2 -1 43 1 -1 21 -8 -11 -32 -36 -29 -41 -45 -39 -23 -17 -8 -3 2 15 15 17 17 1 3 -8 0 12 11 6 3 9 30 10 10
127 74 83 104 20 16 9 32 67 73 42 -15 79 69 29 11 -5 8 9 13 16 -21 -23 -53 -47 -47 -38 -39 -35 -16 -6 -1 -4 4 26 28 5 5 -1 -6 5 9 2 1 10 20 28 15 13
110 107 106 126 68 66 80 72 39 68 -18 -18 131 106 53 38 28 5 12 22 27 -12 -19 -41 -57 -55 -53 -42 -42 -27 -25 -10 -7 5 19 26 24 6 -15 -5 -6 -4 -2 2 12 16 28 10 8
107 84 95 110 72 81 145 135 68 38 51 -25 86 129 91 49 34 15 22 25 40 17 5 -9 -19 -45 -17 -5 -22 -14 -21 -12 -4 6 17 16 18 20 4 -14 -1 2 -5 2 8 2 2 -10 10
76 57 97 101 54 41 50 85 75 55 39 35 34 85 108 62 56 21 9 46 60 77 69 29 15 -6 -15 4 -11 -1 -12 -25 -15 -5 3 28 9 11 9 -2 -4 1 -8 -15 -20 -7 4 3 23
54 25 89 134 136 70 -24 18 31 33 56 31 30 54 79 101 125 57 35 66 71 66 89 97 51 31 23 0 2 107 117 75 34 -4 -6 0 4 10 3 8 1 -6 -6 -7 -3 -5 -5 8 20
53 19 108 198 167 79 46 52 50 14 5 9 11 28 70 122 77 98 114 51 101 102 119 118 87 38 54 60 60 68 31 -5 -10 7 10 -3 6 10 -1 4 10 -5 -6 3 -3 -19 -15 2 4
47 84 101 168 187 108 62 66 80 31 -6 14 58 26 0 77 107 126 132 113 111 93 139 161 134 70 47 105 89 90 40 -2 -17 -8 4 3 3 3 -8 -8 -13 6 -1 -4 -12 -8 -23 -9 -19
110 176 193 184 177 150 92 51 60 59 61 68 95 43 41 29 72 79 119 155 76 110 98 155 193 119 61 109 90 125 93 33 0 -1 1 1 -2 4 0 -10 -8 -5 0 7 3 -23 -17 -6 7
152 201 284 263 228 140 137 82 60 146 155 34 57 179 119 35 55 61 58 114 126 93 149 161 184 146 87 64 65 74 87 67 23 7 0 -3 -10 7 13 -2 -8 -6 -1 3 8 0 -11 2 20
148 163 197 228 220 218 176 85 135 157 106 78 19 106 57 86 88 86 80 124 176 195 197 211 186 164 137 54 32 39 48 57 31 -5 -3 -9 -9 10 9 21 -2 -10 -11 -4 2 9 -1 -12 -4
150 199 147 180 273 257 220 223 162 276 303 284 202 77 51 30 76 129 203 96 153 187 187 223 213 201 195 128 39 41 37 51 48 10 -8 -12 -17 -9 3 19 17 -6 -2 -5 -3 8 12 -3 -16
145 162 221 265 224 275 315 302 277 360 313 328 252 229 109 33 42 165 180 204 133 166 224 232 230 248 260 209 141 63 72 34 35 15 -7 1 1 -14 -20 7 15 14 17 8 3 2 1 4 -6
277 259 243 209 224 210 246 298 304 289 272 294 281 263 234 55 65 74 120 140 194 164 183 213 253 224 250 205 146 173 34 61 12 21 11 4 30 26 -23 -15 -7 -7 0 11 11 5 2 8 -1
223 284 222 206 213 253 220 218 183 251 287 272 256 235 256 234 118 120 124 159 115 183 204 190 186 211 235 272 264 212 170 139 74 0 17 122 44 55 6 -27 -23 -19 -11 -2 21 21 21 21 9

GFSSGP_con_3kmhel_075.txt.gz
Helicity
32 22 -0 -0 11 6 47 -0 -1 32 -19 44 53 -8 -20 -1 30 8 -8 -24 -15 -12 -10 -1 -3 -4 -3 -8 -12 -15 6 2 7 2 8 6 5 14 14 24 16 18 24 20 20 8 4 15 -5
27 14 3 3 24 106 59 6 33 45 -19 11 -16 -19 -6 -18 25 1 -3 -27 -14 -17 -6 -6 -1 -4 -0 -8 -12 -15 -7 -8 -1 -2 2 5 6 6 13 12 17 15 13 7 15 2 1 -1 -11
29 20 8 30 38 89 -0 18 123 63 1 12 -9 -6 2 19 20 52 -32 -16 -20 -14 -7 -10 -2 -1 2 -4 -11 -7 8 7 6 3 14 9 10 16 18 18 22 21 18 16 4 -6 -15 2 -3
6 19 14 34 59 52 26 32 66 31 62 62 -32 -20 -4 30 32 8 -15 -15 -12 -4 -3 -6 7 10 2 -2 -3 -2 -2 -5 -3 7 30 31 33 29 41 42 19 17 23 21 19 13 22 15 1
15 17 24 54 44 19 -12 -13 51 -5 58 79 30 -27 -25 25 -23 5 -6 -16 -1 -4 -1 -4 2 6 7 3 1 -5 -6 -11 -16 -21 -22 -17 -12 -0 23 16 21 6 11 16 30 23 7 -8 17
-11 22 -13 -45 27 21 5 -9 57 65 41 62 -67 -26 -4 -32 -33 -4 -17 -18 -10 -4 -2 -4 1 2 2 4 -5 -3 -5 -7 -12 -21 -34 -30 -23 -21 -27 -19 -6 2 5 13 27 31 24 4 12
-13 -19 -10 36 -71 16 38 45 40 29 26 18 -70 -19 -20 -32 -25 -22 -18 -27 -10 -6 -5 1 2 2 5 -0 -1 5 2 -3 -2 -10 -15 -21 -16 -8 -12 -7 -18 2 21 22 32 34 30 3 -7
8 -6 1 23 -17 -0 -5 103 61 51 42 12 -45 -53 12 -18 -21 -22 -21 -26 -13 2 -0 1 9 3 7 3 8 12 9 7 -0 4 2 -5 -6 -11 8 6 1 4 7 14 17 30 24 -4 -12
29 -17 4 32 -36 -39 42 46 66 66 -3 27 20 -8 48 13 -17 -3 -15 -15 -9 4 4 4 6 8 7 10 14 18 12 8 14 14 4 9 16 13 23 19 9 6 -2 3 5 11 7 12 2
13 18 45 35 -14 13 74 -5 31 10 8 39 41 51 104 30 15 27 16 -5 -2 3 4 6 6 12 14 15 13 14 15 19 23 19 17 23 21 22 29 17 16 14 10 1 9 7 5 28 29
14 36 64 51 -3 60 77 47 -0 15 22 11 103 137 81 53 13 14 5 4 -0 7 8 8 8 17 18 11 13 16 20 25 17 13 21 21 26 30 38 40 34 19 27 25 35 30 34 38 49
67 56 70 15 31 -13 23 46 13 12 27 22 57 116 64 35 -6 2 6 -10 -3 6 6 8 6 12 14 13 16 14 22 23 30 21 26 22 29 27 37 39 31 28 28 28 38 33 36 37 49
53 87 51 51 20 -26 31 47 38 8 26 29 28 34 17 3 -23 -33 -21 -12 -1 -2 3 8 6 6 9 9 5 7 18 24 31 31 30 27 23 16 16 23 25 25 25 29 29 34 41 41 33
95 82 74 34 30 12 7 25 13 -0 44 56 24 8 -5 -6 -5 -9 -25 -5 -4 -1 1 -0 7 5 3 1 6 12 20 13 26 37 39 30 21 16 11 13 15 23 28 28 28 44 37 28 18
90 101 42 37 4 -7 -5 9 -51 102 56 29 27 -1 -21 -23 -8 -13 -9 -5 -5 3 2 -5 2 -0 -2 -7 1 5 14 11 18 26 34 27 21 13 18 15 12 15 16 23 21 15 24 16 5
115 107 72 51 18 30 -16 31 26 157 93 1 4 7 -9 -23 -12 -18 -17 12 4 4 -0 -0 3 -5 -7 -11 -5 -1 9 19 12 21 26 23 21 9 7 12 15 4 5 13 16 14 14 9 6
116 81 77 69 36 30 18 36 26 102 129 45 22 7 6 -27 -30 -23 -23 27 14 1 -4 1 -1 -9 -10 -10 -1 5 8 18 16 22 26 13 10 10 22 19 11 13 9 5 5 2 13 8 8
92 98 88 65 37 34 27 41 11 68 119 11 -20 7 -3 -26 -25 -20 -18 20 28 2 2 2 -6 -13 -12 -6 -2 1 3 12 9 22 22 20 14 3 21 21 15 13 8 6 11 10 8 2 5
129 115 87 99 90 83 71 77 25 26 44 6 9 18 -1 -16 -25 -16 -17 -9 3 -23 -20 -12 -14 -10 -7 4 6 -8 -8 -1 8 16 5 8 9 13 14 5 7 3 5 -2 3 4 -4 -13 4
138 129 105 96 105 93 84 69 35 16 12 30 38 10 -3 -29 -35 -30 -31 -31 19 23 3 -11 -7 -12 12 12 13 12 2 7 17 11 6 -0 6 -2 14 8 20 12 -11 -6 -1 5 1 3 20
97 102 102 110 91 74 32 37 26 26 30 25 8 20 11 -14 -13 -35 -25 -19 9 39 29 14 16 -9 16 10 3 17 14 30 13 6 6 4 7 -3 1 7 14 15 9 -3 -14 -4 12 8 17
56 46 87 102 111 76 71 55 26 10 -1 10 50 80 52 16 -1 -22 -7 -12 -18 52 63 52 51 42 15 14 9 2 10 13 6 4 5 2 -6 -5 -5 2 8 8 6 3 1 5 16 21 12
55 45 83 120 106 92 36 54 29 34 8 12 9 25 86 86 51 17 -5 9 14 30 61 79 58 56 57 38 47 27 12 14 21 14 -3 7 -2 -5 -8 5 -3 -4 9 5 -1 -4 11 18 5
66 125 161 142 142 72 47 90 80 118 103 93 33 79 61 127 113 60 7 -13 3 13 31 34 38 58 82 62 61 58 23 11 14 6 -4 -1 2 -4 -5 -3 -1 -0 12 13 10 -0 4 4 4
113 154 232 167 134 94 109 68 96 106 150 116 86 15 68 51 75 81 23 -42 -67 -32 -4 46 37 56 55 91 71 73 55 26 19 4 -4 -11 -2 -0 -5 -2 -6 -8 3 8 6 2 1 1 11
92 151 220 173 141 108 144 56 90 148 132 77 101 184 29 35 31 52 52 29 -28 -18 8 36 56 70 75 48 100 71 60 42 25 11 -0 3 3 -11 -11 -1 -8 -9 -9 -2 4 9 7 5 9
152 164 182 187 175 108 153 150 105 222 240 244 201 187 185 55 -17 32 60 64 53 29 9 54 68 89 79 125 88 73 62 55 32 25 7 -8 -5 -13 -25 -19 -14 -7 -6 -3 1 13 5 1 5
176 164 174 214 157 146 176 226 210 248 191 235 279 236 173 76 11 -33 13 61 61 54 66 68 62 115 167 143 90 36 33 37 34 21 16 7 -5 -5 -12 -24 -22 -19 -3 -1 4 6 9 3 3
210 193 195 198 227 137 160 219 272 263 206 208 240 247 196 174 53 23 -2 15 36 63 52 63 74 86 100 105 115 89 45 33 31 24 19 10 3 11 1 -10 -22 -19 -23 -12 1 14 15 12 3
228 200 226 158 167 226 192 151 227 242 198 202 225 241 245 205 233 203 122 29 27 33 47 51 53 61 67 115 111 126 68 58 28 38 26 19 2 13 19 18 8 -23 -19 -25 -0 8 13 23 9

GFSSGP_con_3kmhel_078.txt.gz
Helicity
21 19 -4 8 12 24 32 -1 26 -70 -16 31 -7 -19 -12 -0 18 -23 -33 -34 -13 -13 -13 8 3 1 4 14 10 5 12 14 9 6 7 12 20 25 35 30 26 23 18 14 1 8 16 4 -5
13 13 9 -3 20 88 48 6 31 46 23 -4 -11 -25 23 6 14 25 -8 -25 -15 -12 6 2 1 -0 4 -1 -0 9 9 13 13 7 10 18 16 17 19 14 15 15 5 5 8 9 7 -1 -17
25 7 6 13 24 25 33 48 39 18 5 -13 -3 40 17 32 -4 -1 -10 -12 -17 -8 -6 -3 8 6 1 -3 -8 5 3 15 27 21 21 23 19 11 12 17 11 16 11 5 -5 -11 -9 -2 -48
23 34 25 24 23 31 26 54 15 33 11 42 -15 -12 10 52 24 13 -10 -14 -15 -7 -6 4 4 2 -2 -4 -9 -1 -3 1 35 28 30 28 23 23 26 24 13 13 19 19 4 27 -9 -38 10
35 25 32 41 26 16 34 47 18 -6 26 -31 3 -20 11 9 -5 -6 -13 -19 -9 -6 -10 8 5 4 5 3 1 -3 -13 -18 -26 -27 -31 -33 30 32 24 19 18 18 24 29 17 2 -32 4 13
41 24 31 15 -20 11 36 28 17 19 49 -1 -27 -20 17 7 -0 -17 -18 -23 -14 -11 -14 -12 -8 -2 6 -2 -11 -17 -19 -21 -26 -43 -36 -35 -27 -35 -15 -1 3 16 31 39 22 -9 4 16 14
43 16 6 2 3 -72 -38 39 63 39 21 -62 -20 -22 -10 2 -18 -22 -24 -24 -5 -18 -22 -11 -10 -8 -9 -13 -10 -12 -15 -19 -22 -22 -22 -15 -25 -29 -18 -16 20 38 36 41 28 -2 8 14 8
36 28 25 -0 -19 5 -9 49 107 71 27 41 -23 -24 49 26 -17 -24 -33 -21 2 -1 -11 -4 -9 -4 10 4 -7 -9 -6 4 7 3 -0 -9 -14 -8 -7 3 18 -1 32 41 41 12 1 10 11
20 -6 31 33 -10 9 -14 68 71 73 54 18 -20 -19 94 30 -8 -15 -12 -3 4 15 7 -2 -3 6 1 1 -3 2 3 14 12 9 20 59 19 15 12 34 20 20 21 23 26 17 12 31 21
2 8 33 47 -23 82 18 18 51 30 -9 1 23 55 92 36 9 23 6 -0 6 10 14 5 4 7 11 7 11 20 19 29 25 18 24 26 33 39 22 20 9 11 14 9 11 2 45 84 8
18 48 38 31 16 37 9 -3 -11 -26 -8 -6 26 49 92 45 19 10 10 2 2 8 19 13 11 12 16 15 25 24 20 17 17 21 31 29 39 54 22 19 16 18 70 17 22 37 23 19 40
52 39 38 24 -2 19 30 -3 12 18 46 3 16 52 63 32 1 -4 11 16 -5 8 13 14 10 17 18 20 29 23 22 19 21 16 29 38 35 36 35 22 19 35 22 27 37 18 22 29 26
18 25 22 -3 15 -32 13 17 -9 34 22 38 33 22 35 11 2 -9 -10 18 16 6 11 11 11 15 16 26 18 26 29 22 12 23 22 34 24 20 18 23 27 33 33 16 25 23 29 23 7
40 33 39 25 -15 -29 -50 13 -5 22 11 28 26 -17 -4 2 10 -2 -10 11 14 16 7 11 12 10 15 18 14 19 29 12 12 19 15 23 10 24 22 25 18 17 31 22 26 26 21 9 -5
73 63 15 23 -3 -14 -45 10 21 46 10 30 15 -30 -18 -2 2 -1 -9 2 11 16 12 12 7 5 9 4 18 25 15 17 10 14 14 10 18 7 26 21 30 23 23 25 15 10 7 -6 -4
67 46 11 25 -0 11 -39 29 41 70 17 9 14 -2 -15 -2 -0 -8 -6 4 12 13 12 13 14 3 3 4 14 17 17 12 6 11 1 3 4 7 17 32 24 15 25 20 16 16 -5 7 -3
57 13 53 45 20 21 3 33 42 62 1 -5 4 9 -8 -11 -2 -9 -2 2 15 10 12 17 14 -7 1 4 13 18 17 16 9 14 12 1 2 -1 17 22 8 26 18 5 6 -3 13 3 -6
46 50 61 43 26 26 16 45 17 52 42 5 2 -23 18 -2 2 -5 -1 16 21 20 21 23 21 -4 8 6 9 15 10 6 4 12 20 9 4 -8 14 6 9 29 14 1 2 11 8 9 8
61 35 44 92 39 37 20 25 16 57 74 12 7 -11 -0 10 6 5 -9 20 20 23 25 22 20 10 -0 -2 16 12 3 2 -1 7 10 3 2 3 11 12 6 22 19 21 9 1 1 -16 5
103 65 63 77 73 82 41 47 19 24 20 65 20 5 19 14 4 -12 -12 28 11 -15 9 16 15 6 8 7 20 13 8 11 10 7 2 3 -2 -3 7 9 6 10 9 9 11 19 5 10 18
95 66 65 43 56 73 60 35 31 9 -2 -16 -2 1 20 17 20 6 -9 -1 7 -5 -6 -5 -4 -8 19 11 -10 -4 -2 17 6 1 -1 -7 -0 2 8 6 15 6 32 -3 8 10 27 -2 17
75 144 142 85 68 28 36 41 30 21 15 33 6 -19 9 29 3 28 10 -5 2 -14 -22 -13 -13 -9 -8 -17 -15 -26 11 7 11 6 -2 -5 -7 -0 1 -0 5 6 17 11 3 17 41 45 -5
56 96 110 97 86 73 29 37 43 18 22 15 9 -8 -22 14 40 28 -4 17 -2 -3 -6 -10 -5 -6 -18 -5 30 -10 16 21 24 16 17 -4 -5 -6 -8 -3 2 4 10 4 20 25 36 31 36
84 86 131 102 57 70 35 65 87 103 122 68 54 -5 34 -43 11 28 3 33 -0 8 5 6 1 3 -11 -8 49 43 19 21 29 10 5 -8 -16 -17 -20 -12 3 3 9 -6 -10 9 14 42 39
69 66 120 89 92 76 83 104 119 97 117 125 82 42 -16 35 -18 27 33 -10 -6 -22 7 27 16 11 18 23 56 59 40 2 15 17 8 7 -8 -20 26 -14 -5 3 5 3 3 -6 15 6 17
63 33 77 81 76 75 95 91 109 95 99 122 91 94 44 -0 -9 22 11 -13 -37 -26 -11 12 18 9 29 50 80 62 39 17 6 7 26 6 -0 -11 8 37 -10 -7 -4 1 -0 -0 9 1 4
52 95 75 70 58 54 85 157 71 127 146 135 126 108 228 62 -4 2 26 6 -10 42 22 14 21 11 15 26 45 74 40 31 11 16 9 14 10 8 -4 -23 35 5 -0 -3 -6 6 -0 8 1
152 49 135 109 87 82 88 30 140 178 218 236 291 225 204 71 72 9 8 15 18 23 30 34 26 19 16 22 34 43 33 24 20 16 14 23 18 9 10 -11 8 17 8 8 -9 -7 -11 -5 -3
116 125 130 64 87 45 100 131 130 189 200 231 229 206 264 348 168 158 56 29 17 30 32 32 24 20 27 34 41 42 40 32 23 20 8 -0 8 7 3 -6 1 -1 3 5 3 -8 -2 -14 -11
185 189 139 105 96 107 109 148 124 200 212 181 164 182 187 268 275 235 313 191 49 30 38 23 26 26 31 48 57 54 70 41 25 30 19 9 2 1 4 -4 11 26 5 2 -1 -3 -14 -4 -5

GFSSGP_con_3kmhel_084.txt.gz
Helicity
15 15 34 23 22 -4 2 69 6 -5 -13 21 49 103 60 107 -39 34 -4 11 7 -7 -8 -15 -10 -2 3 -2 -0 -2 2 3 6 10 18 31 24 23 19 12 19 16 21 19 10 6 -0 -5 -10
29 40 67 -25 20 54 -7 36 -13 47 8 70 107 129 79 -8 42 146 14 3 5 -2 2 -1 -9 -11 6 -2 3 8 1 -5 4 6 5 6 13 15 13 6 10 10 9 9 7 4 -1 -16 -27
4 46 -15 1 12 1 -6 29 46 3 19 54 85 52 33 39 27 20 -23 -19 1 17 19 6 -6 -6 7 9 13 14 9 5 5 3 -0 1 -0 5 3 13 10 -0 -12 -7 -13 -9 -24 -34 -18
38 -21 4 5 25 40 72 57 -14 -4 37 39 40 60 28 5 42 21 -2 136 159 83 36 13 3 6 10 16 21 17 14 12 12 9 9 7 11 9 9 12 4 -1 -10 -0 -30 -38 -28 -43 3
25 18 32 42 93 66 88 -11 93 -10 136 64 78 75 41 86 7 3 48 100 81 73 34 15 10 18 20 24 27 13 -5 9 3 3 12 20 17 7 6 9 -3 -13 -4 38 -19 -3 -39 -6 9
24 48 13 44 41 31 82 100 107 42 105 30 58 93 68 22 -14 33 71 54 86 40 45 11 12 17 13 16 1 -12 -16 -16 -21 -22 -20 -18 -12 -5 -2 1 -7 -10 -9 3 -11 3 -1 10 5
74 61 -18 58 11 -17 43 106 81 29 20 3 53 80 51 -13 -7 7 52 38 57 97 22 16 20 17 14 9 3 -4 -8 -9 -12 -8 -7 -11 -16 -16 -8 -9 -11 -4 3 4 5 10 22 21 2
112 51 -3 -9 19 24 -2 -6 211 80 56 -11 37 54 75 5 15 66 78 -21 3 50 36 45 18 24 21 14 7 8 15 26 20 8 5 -16 -10 -5 -7 -4 -10 -2 11 17 26 29 39 19 -13
2 15 20 -24 67 23 -4 33 96 223 10 22 3 45 60 -29 98 67 25 44 -30 34 76 117 77 36 24 25 3 8 30 43 26 18 33 21 -4 9 17 -10 -1 -0 9 29 35 39 43 -3 28
34 8 46 30 57 86 20 41 83 83 -27 -9 68 56 6 -34 202 68 16 -16 10 100 207 -12 12 9 4 26 -24 11 4 39 71 38 37 40 51 14 10 12 9 11 21 36 36 20 50 81 77
-27 11 5 45 80 66 45 61 39 22 12 39 137 94 8 -19 40 45 18 -11 -0 50 -4 14 14 -7 9 25 -17 18 -34 24 59 70 45 50 22 1 3 -8 1 35 45 64 101 65 114 215 32
33 -17 2 21 48 73 52 72 53 124 49 24 125 69 18 -2 -8 90 -3 -28 216 158 83 26 114 -46 -4 -5 -7 4 -69 2 37 39 21 -4 15 9 12 15 21 -12 34 45 27 56 64 63 51
10 -19 32 63 35 33 68 15 51 106 132 50 95 32 12 -15 -15 -2 50 11 64 -10 38 18 46 -21 31 13 30 18 23 29 -5 5 53 13 9 37 8 24 42 -1 48 17 22 44 25 35 53
17 -18 39 21 23 42 17 57 22 4 66 35 62 12 1 -16 -5 18 45 71 54 69 -20 72 13 14 91 3 15 -34 -12 -8 -22 -0 17 11 -11 52 48 15 36 47 8 28 35 52 36 33 31
-15 -22 18 74 42 48 35 34 46 55 10 -2 32 -5 -5 -12 -2 15 21 100 63 45 105 42 -10 13 19 -33 -43 31 36 79 96 11 22 -9 19 -4 6 41 17 34 26 15 51 50 24 46 54
8 -14 -8 44 109 72 73 26 32 24 42 27 30 -11 -14 10 25 1 30 65 57 44 96 1 10 -0 -43 -57 30 54 -4 117 -9 -1 5 -1 7 -3 31 25 24 15 21 12 42 36 30 64 30
4 -2 2 21 127 94 67 46 -7 18 27 43 -1 -18 -7 4 40 -8 49 64 30 111 70 -28 67 24 -6 -38 -17 -38 -25 64 9 42 19 10 14 4 25 10 21 -16 24 44 31 14 27 38 26
-4 -22 91 16 117 126 112 75 52 50 6 44 -17 -19 -3 13 36 40 37 44 39 115 72 28 36 35 25 -22 -24 -35 42 -12 -12 22 18 16 -6 1 3 27 11 8 51 -19 13 42 28 48 58
-21 -39 274 190 158 162 109 109 100 23 30 58 23 -45 -28 15 55 24 11 63 66 70 63 66 83 46 16 -43 -16 -34 -4 -6 12 -0 17 57 -19 -7 6 19 1 6 45 20 16 10 76 55 29
92 38 50 128 100 77 168 55 58 17 31 158 62 -17 -18 15 69 28 16 70 73 76 72 65 98 56 -29 -35 -14 -1 4 -10 47 15 16 14 34 3 19 18 32 4 -7 36 3 26 83 50 -5
69 36 86 30 178 141 -12 64 110 -24 8 48 102 67 24 58 113 83 -5 67 115 120 88 65 74 46 -43 -19 14 -19 11 33 16 13 19 16 42 19 -3 -1 23 -2 -3 17 32 25 31 64 53
22 20 110 -20 -8 -65 -68 24 36 138 96 58 87 -74 120 78 83 106 6 46 118 158 102 66 57 40 -46 30 -23 -34 -67 -29 31 11 73 13 18 25 12 2 17 77 5 7 45 15 52 62 73
37 16 28 10 37 -11 16 35 108 126 84 64 9 5 25 70 64 4 93 9 80 179 96 76 46 37 -27 -48 47 -30 -84 -109 89 88 66 12 18 12 16 11 -13 20 41 -0 33 38 36 20 58
35 59 51 31 34 24 37 16 147 202 102 -30 9 116 86 -52 53 11 -6 9 50 172 114 82 48 38 -3 -37 -15 -55 -33 -42 1 -31 51 15 -2 29 28 30 7 7 8 -10 33 16 40 44 59
37 33 67 68 67 48 8 4 42 135 77 110 34 60 53 22 220 31 7 -31 16 156 119 98 55 26 -1 -6 -22 -49 -23 -8 23 24 16 47 -0 -36 48 49 40 24 14 26 17 -4 15 -3 7
34 6 67 64 42 27 22 64 105 -111 -1 121 99 55 11 61 31 -74 69 -80 -31 164 156 111 68 29 3 6 -18 -23 -47 -36 17 44 20 23 25 13 29 51 50 11 40 20 10 1 11 6 -7
42 68 29 18 -4 2 157 214 128 136 182 182 163 258 139 109 95 -1 -28 -12 -86 119 175 136 92 51 27 15 11 2 -4 -36 -11 -27 -12 32 63 53 23 31 37 17 6 15 18 7 19 12 9
117 36 84 25 32 38 141 162 159 179 120 70 97 236 204 322 388 318 369 55 -36 80 140 168 109 68 46 21 37 27 16 -8 -46 21 6 16 64 93 12 27 21 17 12 24 28 7 21 46 29
120 108 51 24 3 20 87 203 144 186 137 138 176 264 211 280 376 308 158 182 248 202 280 42 159 68 44 33 42 28 35 18 -4 -17 14 -3 17 75 90 59 -15 11 11 26 28 2 -19 33 25
36 22 51 44 51 20 177 162 166 155 152 166 155 254 230 194 200 370 268 390 331 284 241 343 250 92 53 35 30 50 52 31 43 26 9 22 23 40 57 59 4 78 7 7 36 17 -1 38 12

GFSSGP_con_3kmhel_087.txt.gz
Helicity
-1 -2 -2 -12 4 0 -18 63 142 4 4 122 111 125 20 2 18 15 -66 -46 -19 -15 -26 -18 -8 -3 -3 -7 -3 5 12 16 15 19 23 17 16 14 16 13 18 8 2 2 -2 -1 -2 -16 -23
-15 14 18 8 36 19 -8 -122 27 77 102 130 106 140 215 108 165 59 -9 6 -3 -10 -21 -19 -3 -7 -8 -15 -4 -1 -2 4 -6 0 1 9 5 5 5 4 5 3 -7 2 -6 -1 -3 -25 -26
-3 18 3 5 16 17 -11 -99 30 21 42 97 96 27 -5 28 71 -5 38 1 -9 -1 -6 -8 -3 -1 10 6 4 6 0 1 -6 -4 3 4 5 4 4 7 5 1 -2 2 -4 -35 -5 10 10
12 -10 7 27 12 28 25 -2 49 66 48 62 82 50 -53 -33 -2 -9 6 -2 46 16 -9 -8 6 11 15 16 15 14 10 8 3 4 6 9 10 13 12 4 -4 5 -8 -7 -17 -1 10 -5 13
19 23 -17 41 35 88 109 173 19 94 80 64 139 104 9 -8 -67 -41 42 112 74 17 -5 -11 3 6 12 9 5 0 2 2 1 2 4 14 2 4 16 5 -2 5 12 5 -1 10 -19 3 6
33 76 14 24 -22 162 204 175 91 6 64 118 230 134 11 53 73 127 158 136 74 51 20 8 12 12 14 10 1 -5 -7 -7 -8 -12 0 8 2 6 9 3 3 12 35 12 6 -4 1 2 19
104 84 12 33 -35 9 -29 170 136 -31 51 66 141 146 11 115 86 92 69 48 64 48 33 11 12 25 27 17 11 7 0 -6 -7 -4 -1 5 0 2 6 10 7 12 11 6 13 19 15 -8 9
98 43 35 -16 -3 20 -20 139 158 61 88 89 122 36 70 27 69 110 36 39 52 -8 0 2 5 19 21 20 24 20 21 22 12 3 5 4 3 -2 3 23 15 18 25 30 11 3 7 -28 4
66 6 -12 -15 79 -36 -6 57 161 127 50 0 26 20 124 122 111 96 -12 25 -30 -18 -23 -17 -10 -5 14 6 14 18 21 20 21 11 7 -2 -1 3 13 7 8 14 44 63 32 -8 0 -2 3
94 62 11 20 34 38 35 73 107 36 -23 16 60 18 121 144 108 39 14 -37 52 30 19 -8 10 0 -7 -2 -18 -16 -3 -4 38 38 20 29 19 3 7 15 15 0 17 45 58 59 50 80 51
-16 -10 -40 40 66 62 65 21 135 49 21 143 150 57 131 103 95 -2 -51 17 72 87 32 -8 -17 -44 -7 -27 -39 -23 -10 -19 34 40 59 77 18 9 -12 2 1 -3 27 36 48 77 83 49 96
176 0 -42 88 91 35 62 94 129 164 97 107 113 72 129 74 -6 6 53 122 86 4 -13 -11 -78 -65 40 -47 -67 -44 -31 14 37 28 24 4 -1 12 5 23 13 -14 11 57 73 78 139 169 72
-9 0 -20 103 74 70 89 70 127 153 46 92 45 -15 63 39 23 -18 164 132 80 12 24 -14 -28 -60 -17 -15 -32 -40 -35 -6 -13 13 11 -2 -9 -2 -3 17 17 21 47 73 49 33 50 99 33
7 3 -2 115 23 65 85 58 49 36 103 148 31 -54 -67 -3 61 13 158 124 75 85 37 6 33 -17 14 15 24 -27 -27 -15 12 -1 -11 17 -4 18 26 24 18 29 32 46 72 83 42 64 39
-2 -2 43 100 28 132 168 -17 -9 10 19 69 50 -45 -78 0 90 90 106 48 64 49 18 7 27 -9 -17 -7 -8 -10 -14 -31 -24 -9 1 12 21 4 14 0 4 53 37 24 24 32 44 44 21
24 78 14 107 87 144 76 23 23 7 -33 -8 6 -37 -74 -13 89 71 163 47 85 167 79 14 90 -15 -19 -9 -15 -20 52 38 48 19 21 -1 -14 -4 16 8 26 27 21 13 13 53 42 53 23
41 42 -15 113 179 147 68 66 0 43 -13 85 -1 -43 -59 50 123 138 143 177 151 83 10 -1 49 0 16 -29 -25 -34 37 13 -24 -6 3 6 -3 16 19 12 13 29 12 42 30 48 42 58 47
-13 17 15 96 179 172 146 24 -63 -16 -19 31 -13 -24 -22 86 51 139 183 213 134 33 80 76 -11 -5 1 -15 -38 -42 -36 15 -16 -17 3 -6 3 9 7 1 13 20 4 16 31 39 41 74 38
-13 -15 130 106 101 343 184 155 3 -21 20 113 3 -36 39 99 90 120 160 241 156 109 118 76 57 -23 -35 -42 -3 -39 -35 -47 -45 -3 36 8 -11 -2 1 -2 13 19 -3 34 49 24 58 69 31
32 57 107 129 21 159 182 50 41 -38 5 88 26 -88 46 127 160 131 216 233 213 141 119 93 119 46 -28 -53 -61 -47 -43 -32 -11 -2 12 13 9 1 -5 1 0 18 28 27 26 21 63 54 46
126 125 46 81 151 209 118 48 -8 -24 75 98 94 4 121 152 216 150 218 232 214 159 114 123 108 60 -30 -66 -31 -23 -7 25 -19 3 13 27 21 14 -3 12 -6 7 5 2 41 52 33 53 69
119 44 -20 213 113 88 142 149 -12 6 135 106 9 8 102 245 192 166 214 245 247 187 126 174 63 17 -54 -57 -20 -37 -4 25 -8 -15 -6 20 19 15 3 0 2 10 -5 10 38 56 24 29 82
97 0 63 82 145 52 26 71 54 117 48 27 5 134 -140 342 237 169 106 261 263 268 195 189 95 -6 -67 -28 -13 -39 11 11 -6 4 5 3 11 23 18 21 17 0 -13 3 18 45 3 44 43
79 44 85 31 107 38 -17 110 93 109 50 5 69 119 76 36 134 250 87 230 270 244 217 239 130 3 -57 -62 6 -23 -36 -13 -6 14 19 7 -11 -3 4 17 63 29 -2 4 23 39 16 33 25
91 63 88 125 76 79 25 128 68 129 81 100 48 133 107 34 165 172 146 82 177 230 218 211 160 40 -40 -30 -44 -12 -37 -7 -20 -24 -5 -19 -3 -17 37 -4 24 38 26 -7 9 1 -19 -6 -8
78 52 83 107 20 40 31 71 21 174 137 107 -1 13 114 105 85 90 79 50 141 208 232 185 161 88 -1 2 -38 -31 -46 -2 -3 -12 -28 -27 -1 -8 7 13 26 16 19 28 0 -19 -9 -9 -21
77 130 49 -32 44 42 82 184 231 133 240 42 21 31 113 -2 -8 -42 -31 50 75 105 254 180 139 106 39 2 -30 -18 -11 -9 -30 -26 -7 -5 -4 11 27 64 18 8 19 13 4 5 7 2 -20
36 46 79 43 53 6 83 122 128 192 266 364 317 178 121 -34 -102 -40 -144 86 56 202 200 186 139 137 69 35 21 -9 -12 -8 -31 32 -6 24 28 65 22 38 21 -29 18 21 17 8 -2 7 15
73 92 45 31 59 -18 60 105 165 205 218 312 254 202 175 180 200 91 92 141 134 299 143 211 126 109 94 63 50 38 8 -17 -20 -27 -10 44 25 52 10 19 19 -2 -1 9 29 15 8 5 35
60 102 74 60 51 11 24 146 177 167 142 161 180 158 187 199 304 383 237 182 178 241 271 355 205 137 102 90 85 51 56 44 7 -18 -32 24 64 42 12 17 -20 15 -6 -2 51 19 2 11 24

GFSSGP_con_3kmhel_090.txt.gz
Helicity
1 -8 -18 -7 35 42 -39 9 35 2 50 -18 11 29 -34 -2 17 8 -40 -33 -21 -12 -20 -9 -12 -11 -6 1 6 11 17 15 23 20 22 21 19 14 4 3 4 2 -3 -5 -2 8 -1 12 12
-9 -0 -7 -5 53 -13 3 37 -9 -8 107 140 14 65 57 -34 29 18 -12 -33 -11 -14 -26 -23 -11 -5 -0 5 4 1 4 8 -0 1 9 8 11 5 -1 -1 -9 -6 -12 -18 -15 -1 5 -5 -6
5 -5 4 8 -6 -35 -41 8 62 -17 50 92 69 48 41 31 71 7 -21 -15 -9 -23 -25 -13 -8 -6 -3 -1 -1 -2 2 -1 2 -3 -0 -1 3 3 2 2 -7 -4 6 8 3 22 25 10 -11
10 9 -5 17 2 -25 15 -37 22 23 22 126 161 134 24 -26 17 -25 -3 5 -1 -16 -22 -7 1 4 -0 2 1 -3 -2 -1 2 3 2 2 7 3 -3 -12 -4 -5 3 1 11 29 17 12 14
-6 24 -20 9 1 58 69 -11 -11 4 75 32 127 64 43 -53 -10 -2 17 11 25 -11 -12 -4 6 8 5 6 4 -3 -6 -4 -2 5 9 -3 2 -0 5 6 16 18 14 11 13 15 8 14 -9
5 15 5 24 36 37 112 78 -14 63 30 87 224 100 4 -15 -10 -29 8 10 29 16 5 5 12 14 8 -1 -9 -13 -13 -9 -10 -11 -5 -1 8 15 13 14 29 17 17 6 -4 9 12 11 9
-19 134 30 42 -41 58 134 154 117 53 76 39 101 114 -60 -28 -26 -7 6 26 15 26 14 5 4 15 22 7 -6 -15 -14 -11 -11 -9 3 7 5 7 11 10 17 16 -3 -11 -11 6 17 12 33
1 -10 23 76 -14 115 106 111 25 23 41 131 195 3 -22 1 17 29 44 31 1 2 11 -1 2 10 9 11 6 -5 -5 -2 1 5 9 7 6 9 7 11 19 20 18 10 -1 2 1 3 89
15 -11 -42 -6 6 7 68 103 103 55 75 64 42 49 32 37 75 42 4 -19 -15 -8 -6 -15 5 4 6 5 15 12 13 10 15 11 3 -8 5 13 9 11 26 40 26 10 7 1 11 23 51
24 -39 18 3 19 24 -19 85 135 21 -1 74 122 44 25 74 75 50 39 -25 -25 -33 -4 -14 -3 -5 -6 -5 -18 -19 -6 -5 -5 -6 1 14 17 18 17 15 17 17 16 4 2 13 30 53 58
17 38 43 -4 -8 30 7 121 140 45 15 227 214 105 53 70 66 44 11 -10 -34 -31 -34 -34 -19 -12 -14 -39 -44 -34 -19 -11 8 5 25 31 25 14 13 33 25 29 17 39 43 41 61 55 58
14 26 33 -5 40 42 79 100 105 -37 -10 212 213 86 42 38 24 57 48 9 -6 -18 -31 -40 -27 -20 -15 -16 -22 -24 -25 5 28 21 30 7 6 -1 14 20 32 41 43 50 39 79 90 78 93
28 -1 54 31 43 68 37 156 165 162 41 178 137 89 36 17 30 50 40 28 54 -3 -45 -57 -21 -19 -4 -23 -14 -16 -8 11 9 19 22 -7 9 3 11 18 33 42 66 46 46 54 59 80 25
10 6 17 5 67 61 138 111 145 178 150 130 131 34 25 59 85 95 99 36 30 5 -35 -61 -25 -9 -15 -25 -11 -9 10 -0 -9 3 9 30 19 4 11 5 22 27 58 55 43 50 47 58 27
40 31 20 -4 36 59 171 124 88 117 126 83 66 -0 -2 31 122 174 132 76 54 30 -30 3 -1 10 8 -15 -17 -18 6 9 8 45 9 6 6 14 21 8 36 41 42 56 62 56 45 49 58
41 90 33 -23 42 2 11 85 155 150 66 -46 42 -17 -24 61 186 142 104 111 44 32 -60 -0 27 28 -8 8 -17 -12 -6 -0 -2 12 6 8 22 15 13 12 28 33 56 47 37 17 18 35 44
86 52 53 38 69 67 -6 -20 -0 9 74 -2 -40 -36 -18 142 202 148 117 134 48 52 -20 -15 57 43 19 -10 11 19 41 20 8 14 7 9 13 8 3 11 29 35 29 15 31 38 26 45 45
71 35 32 30 84 107 78 -13 43 -53 20 -15 -33 -92 48 106 147 126 152 129 78 56 -21 18 64 20 32 21 30 22 27 -7 -10 -13 -10 13 -1 6 9 6 13 38 19 13 26 44 38 42 58
9 78 124 115 156 194 136 113 -17 31 6 -11 -34 -47 41 116 172 161 115 96 73 63 40 -31 61 45 35 23 14 -12 11 -4 -23 -15 1 -2 2 -6 -3 1 11 26 23 19 16 36 32 22 49
61 118 76 100 160 160 191 138 64 -32 -24 -7 -2 -18 26 157 250 235 107 152 165 130 61 49 30 39 5 -36 -42 -34 -24 -30 -29 -17 10 2 -8 -3 -0 -2 -1 19 10 20 36 34 28 37 42
79 124 68 53 98 123 104 19 -28 50 31 15 34 49 32 165 174 328 264 195 238 156 139 86 52 53 10 -14 -32 -19 -14 -35 -45 -22 -13 -1 10 4 -3 -7 -2 8 10 5 16 40 51 56 45
57 94 74 101 182 120 58 -54 -32 50 -21 23 41 120 223 175 216 333 315 267 275 174 155 150 89 34 -7 5 -22 -35 -22 -1 -11 -7 -8 6 20 -3 -4 -6 -14 -10 -16 9 24 35 48 31 52
24 87 71 140 201 110 -2 8 34 11 28 -0 -38 117 185 257 350 220 280 285 230 230 177 174 147 55 28 18 -26 -38 -30 -10 -5 -14 15 6 -9 18 18 14 -8 -15 -15 -15 3 27 52 43 26
109 107 43 132 97 62 34 63 21 38 -50 37 -15 89 201 181 289 297 212 154 216 188 191 193 156 51 81 25 37 -11 4 -11 -10 -1 14 3 -3 1 18 19 2 -9 -10 -3 9 13 14 32 20
47 102 147 161 82 112 11 71 11 36 52 -6 126 69 202 195 134 179 298 154 186 195 201 172 169 68 75 94 72 57 16 -37 -50 -8 11 7 33 11 14 21 14 4 -16 -4 -8 -14 -5 12 15
91 82 138 145 100 51 86 38 76 54 3 47 -29 17 71 244 193 172 294 339 229 159 221 183 168 124 95 79 45 66 27 -13 -35 -6 -20 9 12 -4 4 18 38 23 7 -1 -13 -10 -27 -10 -7
128 110 45 93 72 95 23 86 108 202 80 90 109 152 124 53 138 112 256 291 262 173 99 212 183 146 114 75 46 42 46 -33 -36 -19 -27 -22 -9 14 2 35 61 40 11 17 5 -2 -6 -5 -7
89 39 116 140 98 72 83 109 73 115 105 74 141 150 136 30 -39 114 183 147 162 188 139 73 136 152 114 98 81 39 -25 -36 -36 -45 -15 -14 -11 4 -5 27 33 28 -3 -0 8 6 1 -4 2
146 145 122 88 95 62 80 106 61 181 194 196 144 105 73 21 -94 -41 93 76 154 237 288 163 105 63 76 62 65 69 18 -37 -29 -35 -19 -20 -0 21 23 27 16 8 13 -7 7 6 12 -2 5
83 72 95 150 135 87 69 81 109 240 225 224 184 122 64 33 51 55 -2 2 65 199 295 236 194 128 112 68 21 30 35 44 -15 -22 -26 11 24 24 23 18 9 23 6 -9 -1 10 7 6 6

GFSSGP_con_3kmhel_093.txt.gz
Helicity
-14 -26 -20 -0 36 58 23 -22 10 -34 -17 -10 30 8 24 5 15 18 -14 -15 -20 -18 -19 -14 -20 -14 -12 -6 -1 1 -1 17 15 18 19 15 12 10 9 1 3 7 12 12 15 20 21 18 14
-9 -17 -24 -9 -13 -28 1 2 -23 10 -40 61 27 -0 19 -2 -26 18 -1 -30 -8 -13 -26 -29 -17 -8 -2 2 7 7 -0 -4 8 -2 3 7 -0 -6 -5 -8 -8 -1 -0 8 9 9 8 1 16
-18 -19 -12 14 46 -16 -38 1 -36 -34 26 83 11 -22 -7 5 -12 38 -22 -8 -1 -18 -23 -16 -4 3 8 8 1 7 -3 -8 -11 -6 -8 -3 -1 -4 -10 -11 -14 2 13 20 16 11 11 -11 24
-4 -16 -16 30 -6 20 14 -1 -10 51 52 43 -37 -22 -12 -14 56 -4 -7 -4 10 -9 -16 -6 4 6 2 4 7 7 3 3 5 6 -2 -1 -0 -4 -15 -12 1 4 6 21 17 16 18 8 -1
1 16 14 31 -32 52 11 -9 -31 8 1 12 7 32 28 20 -8 14 3 11 20 -7 -11 -4 5 -5 -0 4 -4 -4 -1 4 8 9 5 -0 -3 -1 4 -1 1 7 5 11 23 16 20 -14 1
-5 39 -5 3 34 45 32 38 36 -16 39 38 97 192 76 -19 9 -14 -7 6 12 5 -4 4 4 2 -5 -9 -13 -11 -8 -2 5 2 -3 3 2 -5 11 9 18 4 -0 5 13 10 26 23 -2
46 32 15 5 60 56 41 -2 -5 48 52 18 158 156 46 -30 -27 -24 -9 8 6 5 -2 -0 -1 -1 -6 -13 -9 -8 -0 -5 -6 -2 -4 4 -0 1 8 -9 2 3 -0 -6 2 13 42 39 42
13 29 34 -4 52 31 87 68 -12 64 -0 67 184 173 68 -56 -42 -30 -18 -3 -1 -2 -1 5 -4 -3 -1 2 -5 -3 -5 -7 -11 -12 -10 -5 -3 5 8 10 9 -2 -1 -7 -7 14 32 44 53
9 26 48 30 59 33 68 9 28 75 29 60 41 32 -6 -13 4 -4 -10 -2 -1 3 -0 -1 -0 10 18 20 15 6 3 -9 -6 -1 -16 11 66 21 7 20 14 14 7 -5 -6 8 37 78 60
-13 44 -26 67 21 -6 28 60 84 75 22 53 95 46 28 2 8 11 7 -8 4 -6 -3 1 5 12 19 20 1 6 7 1 -0 10 10 25 39 33 32 23 12 3 14 15 13 40 48 69 71
22 22 18 16 -9 10 61 117 36 102 9 109 191 20 -9 -14 -12 -5 -39 -29 -5 -13 -0 1 6 8 1 -6 -2 25 20 29 26 15 23 24 14 23 29 50 30 21 7 29 28 54 50 62 50
-16 -16 32 31 -2 24 21 71 -7 36 12 120 106 1 3 8 9 -5 -17 -32 -35 -31 -19 -10 -7 -9 -13 -22 -11 17 24 38 42 41 35 18 12 12 15 24 26 30 32 30 17 34 48 67 67
26 -9 27 -10 5 54 62 38 50 18 110 64 77 28 8 25 41 -16 -6 -52 -23 -42 -41 -26 -17 -21 -14 -15 1 17 27 40 56 41 36 17 13 16 14 21 39 33 37 39 51 44 42 67 58
3 4 7 26 -12 108 107 124 98 4 119 82 87 54 -1 36 42 6 -8 -33 -25 -20 -27 -60 -32 -33 -18 -15 -0 23 37 42 32 29 16 8 13 21 30 36 36 48 46 40 61 48 54 85 56
33 17 15 -4 61 78 97 75 122 58 105 70 48 36 14 31 57 72 29 -14 -1 -27 -38 -26 -46 -29 -16 -1 -0 8 39 14 20 24 24 38 4 24 31 36 43 52 52 30 57 53 45 54 75
52 11 17 -22 1 37 97 73 150 171 69 36 41 48 36 48 93 50 44 -13 16 35 -28 -40 9 -12 -17 -16 -14 -3 21 20 33 26 12 17 16 8 14 27 41 36 35 23 39 55 28 19 49
126 44 25 -0 13 47 28 55 160 120 169 -8 -9 74 60 73 95 62 55 21 40 29 -18 -42 6 4 -14 -29 -22 -2 5 10 21 19 15 11 21 33 29 22 36 39 43 37 43 40 42 43 50
167 126 50 37 27 64 55 -9 42 133 99 -3 -59 10 90 104 105 104 85 54 52 30 -15 -29 6 13 -14 -14 -22 -18 9 26 21 6 17 9 11 24 8 9 22 34 27 41 24 24 25 35 49
152 176 122 62 160 193 97 48 82 17 -8 14 -25 49 61 103 147 125 98 112 78 41 17 22 63 24 32 17 -3 -10 11 9 8 4 13 13 6 11 10 1 6 12 19 21 34 32 24 34 70
86 154 105 68 87 103 141 95 64 11 4 -44 -73 28 116 117 147 126 115 112 105 52 15 7 71 43 16 24 10 2 -17 -8 -15 -23 -3 7 2 3 -4 -2 -1 6 17 33 36 16 29 33 53
101 109 69 60 91 62 -40 71 128 11 -39 -10 -72 92 70 211 181 156 150 199 113 72 47 8 50 92 48 26 47 71 42 19 -8 -12 -6 2 6 11 4 -0 6 -2 -1 22 26 11 15 28 31
84 73 56 55 78 64 -22 54 -36 50 28 -13 -116 6 -18 180 213 171 171 194 134 118 23 49 59 27 31 39 17 -16 -17 -11 -3 -7 1 7 13 6 -1 -4 -4 -0 -9 9 19 22 24 39 42
42 74 73 111 210 134 65 33 66 15 41 76 -22 -11 89 84 198 201 181 199 135 114 82 61 83 41 67 59 57 10 -23 -3 7 -4 -5 13 15 3 5 -0 -16 -2 3 5 14 16 20 51 49
101 100 126 140 114 91 39 51 7 51 -48 81 83 -6 162 242 224 145 87 122 107 85 79 75 111 85 75 57 82 16 -14 -19 -11 9 11 18 10 15 3 6 -9 -12 -2 -13 21 20 24 20 12
153 160 173 216 151 89 40 72 29 19 19 116 97 231 287 323 413 383 157 109 149 133 111 87 115 105 90 86 100 75 -13 -5 -16 9 52 22 12 27 22 16 2 -15 -7 -10 14 19 7 5 9
151 185 170 220 108 95 53 30 20 19 -21 37 81 121 284 371 365 616 210 180 141 120 130 127 113 123 99 104 93 101 56 8 -13 3 10 19 29 29 34 29 4 7 -2 -8 -14 -4 2 -1 -2
142 231 112 125 133 119 78 41 13 37 149 116 156 126 167 280 371 339 267 271 182 132 122 101 106 124 135 110 107 106 91 48 12 9 22 11 27 25 17 20 25 9 5 -10 -6 -7 -0 7 5
110 75 221 238 208 154 139 63 64 38 99 151 221 248 220 318 340 334 320 363 272 190 149 71 83 90 97 85 85 97 89 54 22 27 9 -3 8 -9 7 -1 20 26 30 -0 -10 -5 3 3 9
145 156 169 132 149 169 140 96 57 36 87 153 186 192 186 193 270 229 354 325 260 181 173 82 73 106 69 75 51 66 56 39 16 14 8 8 1 4 3 -2 17 12 18 12 -0 -2 -2 6 9
86 99 147 209 226 204 143 103 48 52 93 113 140 151 160 129 117 159 238 289 148 77 119 133 137 144 120 77 58 41 29 27 14 2 4 6 3 12 17 35 41 17 13 3 5 5 -0 -3 10

GFSSGP_con_3kmhel_096.txt.gz
Helicity
-6 -5 -12 5 -48 24 -10 -20 18 -56 -5 11 -37 -6 -4 24 15 27 -8 -3 -17 -25 -15 -12 -3 -0 -3 -4 -2 -1 11 11 20 17 16 6 7 5 6 6 8 12 9 9 2 -3 -0 5 6
-1 -8 -18 -18 78 -41 -21 -0 -25 -6 -4 21 52 38 3 6 -15 13 -5 -9 -13 -12 -24 -25 -14 -7 -9 -6 -2 -2 -1 1 9 12 12 3 -5 -2 -4 3 12 13 11 8 -3 -13 -13 -12 3
3 -12 1 12 25 -12 -25 -21 5 -22 59 20 6 20 27 34 -5 13 -23 -24 -8 -20 -25 -19 -8 -7 -2 7 6 5 3 10 1 4 5 2 -3 -5 -7 -0 18 22 12 9 6 -18 -21 17 26
15 9 9 34 7 17 5 12 -50 2 39 -7 -0 7 13 -5 13 -10 -10 -3 12 -12 -11 -3 -2 6 12 4 12 8 5 -1 1 -3 -3 1 -1 -11 -7 -5 -2 6 9 6 10 13 -3 10 48
21 20 72 42 28 73 65 30 66 52 -10 -38 2 4 15 33 -41 5 -3 1 27 4 2 -0 -4 4 5 2 4 2 9 7 -1 -1 -0 4 2 -4 -6 -3 -7 -5 4 12 13 4 13 11 9
23 25 -10 3 31 34 37 -5 46 6 15 20 20 89 56 -11 3 -11 -4 5 4 4 1 -2 -2 -9 -8 -3 -10 -9 -7 -5 -2 2 2 -3 3 1 -3 1 -5 4 -3 6 21 12 6 27 43
67 26 3 -4 -36 8 7 3 5 24 47 41 56 171 43 -19 -22 -6 1 4 7 -2 1 5 -3 -10 -12 -8 -17 -12 -18 -5 3 1 10 7 5 1 -2 9 2 -0 1 1 15 7 34 37 44
-14 18 19 58 -53 3 55 12 18 91 56 85 63 133 70 -39 -45 -14 7 12 10 5 2 3 1 -4 -1 6 -15 -13 -20 -10 -2 4 11 6 -7 -5 -4 1 -15 -7 -3 4 11 36 52 56 41
-6 -1 2 49 83 28 56 17 49 11 79 100 35 96 -11 -15 9 -8 -3 7 6 -1 1 7 10 4 1 3 -7 -10 -33 -11 -0 22 6 35 71 49 36 13 -0 -9 -3 13 36 62 67 61 65
9 22 66 23 79 66 42 20 18 56 66 53 196 149 11 -10 9 14 8 15 8 5 12 17 21 18 17 8 7 13 11 21 25 32 45 68 60 57 44 30 8 4 2 28 54 66 62 56 68
17 7 65 25 99 85 13 15 31 119 32 78 212 38 -30 -17 -17 -8 -10 13 -0 3 17 14 21 15 16 8 12 13 21 24 19 15 38 45 48 51 51 42 36 43 31 43 54 64 66 72 76
74 -0 20 7 6 63 6 21 12 67 11 68 83 -4 -29 -18 -32 -24 -17 -9 2 16 18 10 11 11 3 8 20 16 12 23 25 28 23 26 34 28 26 26 29 29 31 35 33 44 74 89 109
64 3 17 58 2 25 106 -9 12 39 28 -3 38 1 -28 -47 -35 -32 -21 -31 -7 -6 5 4 1 5 6 1 18 22 25 26 39 41 33 21 14 15 16 18 24 20 24 31 40 63 61 61 59
62 19 46 57 37 29 29 66 28 17 59 -1 17 -19 -41 -37 -21 -28 -20 -32 -24 -15 -12 -14 -20 -12 6 8 25 35 47 46 36 29 23 18 16 12 24 20 29 35 34 31 26 57 72 54 53
-0 23 24 17 91 102 171 53 -17 16 4 18 -12 -2 -30 -55 -5 3 -13 -6 -28 -35 -24 -26 -27 -19 -2 8 20 29 45 44 15 3 5 25 22 15 4 13 33 40 34 43 39 41 66 74 74
68 41 27 -24 30 39 117 81 13 35 -54 5 -21 -3 10 -34 -1 16 5 -2 -27 -26 -22 -15 -21 -17 -7 4 16 26 21 17 21 10 17 24 17 29 41 38 27 25 23 39 34 47 57 64 67
102 61 41 13 -3 19 50 34 -2 -33 -28 8 -27 -39 -21 11 -44 -17 10 5 -1 -18 -9 -9 -18 -4 -6 -5 10 22 25 11 15 10 18 30 21 17 17 18 24 36 30 34 35 36 35 45 69
109 96 76 47 -4 43 46 50 109 29 16 1 -23 -27 2 28 17 31 17 13 14 -6 -6 -13 -11 -14 -16 -14 -5 2 4 15 5 -1 18 20 25 26 19 15 21 34 31 37 26 10 15 17 57
122 129 100 96 102 88 99 72 75 105 82 40 -3 -18 4 60 13 26 36 20 26 30 11 -17 -18 -6 13 -4 -8 -8 12 16 2 10 12 22 24 16 16 22 29 42 29 25 36 16 6 32 50
111 94 95 75 86 102 84 101 56 47 69 13 1 -4 17 34 42 47 76 79 56 54 24 -7 -14 -10 -9 14 6 2 -6 -17 5 9 8 2 17 14 8 8 9 22 9 28 29 15 4 20 46
100 106 41 53 18 30 -89 22 67 46 -12 32 9 35 46 72 97 92 114 104 77 95 79 27 -8 -14 -4 21 52 69 43 41 -0 20 24 14 5 8 10 -6 -6 1 14 19 29 19 14 25 32
88 75 93 69 61 9 -4 -31 11 39 44 15 29 -14 16 -4 121 171 121 125 122 86 56 33 -10 -7 11 19 21 9 11 4 2 3 8 4 20 15 8 19 13 -1 -6 19 26 10 18 17 33
68 93 94 114 160 98 61 20 -22 10 68 5 -42 -33 -48 -14 33 125 151 133 110 84 61 16 -11 -8 22 33 32 13 -2 -10 21 18 11 14 9 13 7 4 -1 3 1 19 21 14 21 35 22
70 134 194 111 184 111 54 55 36 83 114 81 45 4 -21 15 26 41 83 48 66 29 45 26 18 7 -5 23 64 57 -1 2 17 1 18 24 20 18 3 -9 -0 -2 4 -1 11 26 25 40 39
124 126 167 192 126 82 73 84 71 12 -18 140 54 -5 63 48 54 36 87 110 77 22 40 42 36 21 16 42 73 51 20 -1 14 10 13 26 22 25 5 -3 -1 -7 -4 3 13 24 24 29 33
149 139 193 211 137 74 108 67 77 39 33 18 46 51 20 26 121 163 223 211 149 47 -7 26 57 43 65 69 61 50 66 28 26 27 18 40 27 32 17 8 11 -1 -8 -0 3 13 27 23 21
186 192 106 124 155 141 106 67 64 39 78 120 158 224 217 137 172 221 343 351 183 74 7 -2 33 50 77 79 82 58 60 51 32 26 24 21 12 21 31 9 -5 1 -4 -3 4 5 2 16 20
127 125 229 226 170 154 126 69 65 28 74 184 179 185 207 240 287 249 280 207 7 -87 1 44 74 104 89 91 83 64 45 40 35 44 20 26 18 24 5 29 -1 -6 1 5 2 4 5 5 30
169 178 225 165 173 144 88 72 70 13 54 137 204 230 271 285 280 280 326 346 265 122 19 74 106 67 90 96 93 77 55 41 40 33 38 21 17 13 10 18 17 15 10 12 5 4 7 3 12
133 135 121 189 221 209 140 103 74 49 76 123 171 186 229 278 316 330 316 343 402 314 99 104 151 67 61 92 92 77 69 54 39 32 38 34 21 10 9 19 20 28 32 22 19 10 9 7 -0

GFSSGP_con_3kmhel_099.txt.gz
Helicity
5 1 8 40 59 35 21 -2 39 -13 -11 20 6 10 26 18 15 5 5 6 -3 -1 5 13 12 5 -4 6 -1 -8 -1 -6 -7 -6 14 15 1 3 2 1 -5 -11 -8 -4 1 3 4 3 6
0 -12 -15 33 44 -31 -15 6 -18 2 11 25 17 -4 25 23 20 7 2 -2 -2 1 -3 -5 -8 0 -1 -9 -9 3 -4 -4 -2 -4 -7 -4 0 -1 -1 10 -3 -16 -13 -11 -8 -13 -4 5 3
-4 -19 -20 42 37 -31 -33 -19 -6 -13 8 22 14 10 24 33 -3 7 -18 8 4 2 -7 -6 -6 -8 -4 3 4 -3 3 -4 5 10 2 -2 -3 -5 3 15 -5 -7 -11 -8 -6 9 9 6 10
-8 -13 -1 -16 -13 10 4 -9 -8 12 12 16 23 10 21 28 13 -1 -5 1 -5 -7 -10 -5 -1 3 8 13 6 2 -6 -2 2 12 5 10 -5 -1 -2 6 5 2 3 13 5 4 25 30 26
2 -5 60 37 34 48 8 1 10 46 6 4 9 21 17 24 -16 -3 -3 -3 1 -5 -5 -5 1 -4 -6 -6 5 1 6 11 2 7 11 4 -10 -11 -7 8 14 8 -4 16 18 18 16 19 18
23 5 43 21 6 47 17 15 5 11 5 -2 -15 19 13 -1 -7 -6 -6 -6 -1 1 -2 -11 -11 -13 -9 -10 -5 1 4 8 5 2 9 3 -12 -14 -7 13 7 -2 5 16 5 16 31 29 33
31 16 12 50 -19 18 19 24 20 12 1 22 -17 71 21 -8 -14 -7 -8 -8 -3 -3 -3 -6 -13 -18 -17 -18 -17 -18 -9 1 2 4 8 -4 -15 -22 -13 4 -3 -9 -8 10 26 30 40 47 38
3 13 6 60 -11 9 18 19 -12 1 22 0 -15 92 49 -19 -18 -14 -12 -6 -5 0 -4 -8 -14 -17 -7 -11 -15 -18 -4 -5 18 8 22 -15 -26 -13 -16 -8 -11 -11 -8 -8 43 46 51 47 49
9 31 30 65 -26 26 -2 -1 23 3 32 57 21 38 40 -7 -5 -4 0 4 11 7 6 0 -10 -13 -18 -22 -19 -23 -17 -3 7 25 24 -5 -1 -3 -7 9 -2 -4 20 46 53 59 55 44 46
5 28 25 78 73 -8 -5 -16 -3 19 27 52 35 89 28 -1 18 27 22 28 30 24 15 9 6 -5 -14 -26 -9 4 1 13 22 25 30 33 18 31 25 8 6 23 35 45 49 53 64 76 74
13 54 1 60 78 64 20 -5 19 58 38 26 65 108 11 -6 8 12 18 30 35 28 20 17 11 8 5 3 6 9 4 14 19 22 29 35 36 30 31 29 28 35 46 61 62 70 96 98 99
52 20 42 42 111 106 20 25 29 61 35 41 121 65 -8 -4 11 17 28 28 25 27 24 16 9 8 11 16 11 9 4 6 13 23 27 29 25 22 26 35 32 36 51 40 54 69 91 96 97
58 21 -7 98 100 114 32 22 24 34 24 14 23 -8 -16 -7 -6 10 22 24 26 27 20 21 11 4 17 13 19 20 10 10 13 23 22 21 18 19 23 23 28 36 37 43 56 59 56 58 45
60 -1 28 54 48 97 101 80 50 31 44 -4 -8 -28 -17 -4 -12 -3 9 20 27 20 14 12 20 9 14 19 28 35 32 15 17 16 14 15 14 17 18 25 18 24 28 29 39 57 55 48 39
6 30 30 51 74 83 129 98 88 8 -13 1 -18 -16 -10 2 -1 16 18 17 23 15 15 12 11 10 14 22 37 45 47 21 18 13 7 14 14 12 16 22 22 20 20 25 33 40 48 56 73
12 32 32 33 91 92 104 2 46 41 -36 -25 -25 -18 -14 3 4 21 23 9 16 4 6 7 12 6 4 16 40 40 38 16 7 7 4 21 21 22 24 26 21 22 32 29 36 42 36 51 82
60 42 19 18 -3 206 169 146 47 2 -75 -51 -29 -30 -11 -7 5 14 25 26 24 16 15 10 5 10 2 8 28 41 26 17 19 16 16 17 14 16 20 16 17 33 22 26 35 32 44 46 55
58 63 49 30 13 38 3 29 -48 -10 -6 -60 -44 -24 -25 -17 -4 19 18 14 28 25 12 12 9 9 4 4 6 19 27 22 19 14 16 14 25 29 31 17 23 37 18 13 18 21 27 35 53
76 40 28 74 56 73 35 8 104 4 19 -95 -65 -52 -19 3 0 30 16 12 23 26 30 21 10 0 2 -2 -3 6 15 19 19 14 16 17 23 18 29 16 25 28 24 19 19 17 14 32 54
71 45 84 85 49 60 40 66 -9 56 31 -69 -71 -93 -35 -15 14 7 2 5 35 42 34 34 25 17 22 10 13 22 8 4 16 17 17 17 13 15 21 21 17 28 22 28 28 15 13 24 50
88 91 48 48 42 63 37 12 31 6 -1 20 18 13 -46 -30 -19 -10 -29 0 31 48 48 23 7 -4 -3 -6 9 18 11 3 1 16 17 12 13 15 22 22 21 24 20 25 38 25 15 17 30
104 78 67 32 41 42 -33 -57 -49 61 5 44 50 -50 -56 -71 -44 -8 -12 -16 37 44 23 21 -5 -15 -10 2 6 13 8 -3 1 15 12 -5 7 10 8 9 9 13 12 30 42 25 30 34 41
111 78 80 87 107 86 12 -3 -18 24 5 20 62 -55 -47 -53 -55 1 31 74 17 -2 9 12 13 -4 1 -3 2 6 13 11 9 6 11 5 2 3 -5 -3 1 -6 -3 15 26 19 26 28 37
79 129 140 102 190 66 43 11 -15 32 57 23 37 20 14 -17 -65 -63 -26 -32 25 5 1 14 9 -7 14 11 11 15 20 19 9 7 0 4 9 12 6 10 8 0 -1 0 15 18 29 36 34
116 86 129 125 64 96 62 39 32 30 21 54 82 22 42 15 -72 -116 -92 -53 4 16 -6 -5 16 1 -9 -11 -9 25 2 13 0 0 3 10 0 11 5 -4 -1 4 14 16 13 20 26 36 38
97 88 131 92 85 99 77 60 54 43 23 2 -9 34 -4 -5 -61 -100 -50 35 13 53 12 -29 -28 -17 -14 -7 -9 8 -4 8 14 17 19 19 2 1 9 0 0 -2 3 15 13 20 27 27 30
138 148 150 136 125 94 86 38 47 52 38 8 4 -1 3 68 79 -3 -36 1 19 83 40 12 -23 -20 -6 -4 20 21 17 7 3 15 27 28 20 6 13 9 -7 -8 -9 1 7 7 8 24 25
119 88 126 161 108 88 84 82 65 75 46 31 52 71 81 38 145 28 70 93 140 125 129 18 -15 -8 -2 21 17 39 23 10 17 14 18 22 28 18 12 14 13 2 3 -1 4 2 7 3 18
130 143 172 137 171 69 89 52 51 55 29 6 54 72 86 115 108 80 119 212 226 99 139 45 -16 1 16 35 48 30 40 30 20 18 24 25 20 29 24 18 18 8 -2 11 15 11 9 3 13
156 139 92 120 122 149 121 68 79 56 34 18 32 59 57 41 71 137 118 199 312 313 127 52 -14 38 9 32 68 50 44 52 38 29 38 24 18 29 26 20 18 25 21 20 15 12 9 9 4

GFSSGP_con_3kmhel_102.txt.gz
Helicity
18 18 21 49 54 41 -12 -16 -19 -11 -21 -20 -30 27 -11 34 49 18 -25 -5 -25 -14 -13 22 26 20 16 7 3 5 2 13 26 21 20 14 9 -1 -6 -10 -11 -11 -8 -4 -2 2 -1 3 9
-5 2 35 55 23 13 -11 -16 -5 0 -22 -3 20 26 26 -42 -19 14 -13 -11 -3 -4 10 7 9 2 1 0 0 -6 -2 3 5 14 13 3 -5 -14 -14 -7 -11 -17 -9 -1 -1 6 0 -3 4
-6 -7 -4 86 63 1 -9 -24 -14 -14 -3 31 19 21 35 -1 16 -4 4 3 -1 -9 14 8 -6 -3 -4 -9 -10 -4 3 9 12 13 12 0 -2 0 -2 -11 -4 5 12 12 9 10 6 7 11
-9 -15 -24 25 -39 -4 -7 -22 -8 -2 24 40 17 0 27 -16 9 -12 2 5 1 -2 32 10 4 5 6 -5 1 10 9 9 17 22 8 3 1 -2 -5 -9 -4 10 16 9 25 14 16 27 19
-18 -17 2 28 -48 16 0 -16 6 19 27 28 42 7 14 16 -12 1 5 3 1 -1 7 9 5 0 3 6 9 9 13 8 12 13 5 -10 -9 -9 6 12 0 12 11 15 22 25 21 23 20
11 4 1 31 -75 7 9 2 12 12 4 1 -9 70 7 17 1 -3 -1 -5 -5 -5 0 -9 -10 -2 -8 0 -1 4 6 13 12 5 -2 -10 -16 -6 6 10 3 4 10 8 29 35 30 29 29
0 6 45 40 -58 -24 -20 -20 13 0 2 -1 -19 48 18 14 -15 -8 -5 -11 -3 -5 -15 -11 -10 -20 -15 -11 -15 -1 1 11 14 2 -12 -15 -9 2 1 4 -3 0 9 17 31 41 33 23 22
-16 2 33 27 -44 -25 -3 2 6 -11 -4 -14 -22 42 91 24 0 -12 -9 -4 -7 -9 -12 -17 -23 -17 -15 -17 -1 1 1 3 1 -6 -9 -11 3 3 10 4 -14 3 17 28 33 44 36 38 29
16 22 20 5 -27 -27 14 28 44 45 -40 -13 5 -1 96 22 1 4 3 4 8 -3 -5 -14 -33 -17 -14 -17 -22 -21 -10 -14 -13 -19 -6 13 3 2 6 19 -6 3 26 36 44 47 45 56 42
6 32 25 82 82 -1 -2 0 4 3 8 2 62 87 98 25 20 28 26 23 18 9 0 -16 -21 -18 -17 -18 -13 -10 13 11 12 5 3 7 24 29 -18 -6 6 18 43 50 46 57 74 107 31
3 40 41 115 122 38 7 8 4 7 21 5 28 79 53 16 13 12 14 18 12 8 4 2 -1 8 0 -11 -7 -5 -6 -2 -1 4 14 7 16 23 17 25 32 27 56 40 49 57 41 35 45
25 30 49 99 70 39 -7 24 30 52 31 -5 38 84 33 8 15 22 22 13 7 13 8 3 11 15 6 1 -5 -4 3 8 7 -1 16 21 20 19 29 30 29 52 24 30 37 33 49 42 37
41 33 53 96 126 61 35 29 36 53 34 13 12 22 12 1 9 15 5 3 8 19 12 5 7 12 9 24 2 -12 -5 8 -6 7 16 17 14 18 23 29 30 30 29 24 29 31 24 24 19
47 27 60 99 102 151 41 35 36 36 17 27 -11 1 -1 3 11 15 11 4 7 8 16 4 3 8 17 18 14 9 5 -3 1 -3 -3 16 16 25 20 29 28 31 32 23 31 35 29 26 11
37 29 -27 51 56 131 122 55 40 23 17 29 -18 -10 -12 -1 5 7 9 3 4 5 9 14 9 1 16 25 30 24 22 -1 -2 -10 3 5 19 18 32 22 26 28 24 36 35 38 32 14 16
21 26 50 11 73 118 159 23 68 20 27 9 -4 19 11 21 13 23 2 -4 -9 -2 8 10 1 -4 8 18 46 27 26 4 -1 2 8 10 5 22 25 24 20 26 29 35 26 26 15 24 37
-3 15 13 58 147 174 128 92 113 59 10 3 -9 -4 26 24 32 26 -8 -14 -8 -2 2 -2 -11 -7 -8 8 24 31 13 11 3 -1 1 -3 8 17 32 17 12 33 23 22 26 16 40 19 34
7 6 33 45 100 49 228 140 89 78 37 -20 -28 -7 13 15 7 22 -4 -9 -3 -3 -3 -11 -10 -15 -3 -4 30 15 11 16 5 2 1 -1 0 4 21 13 22 32 24 22 22 36 26 39 40
95 35 98 63 46 32 103 79 114 35 27 48 -28 -14 -5 -4 4 4 21 -15 3 -1 -1 -16 -18 -18 -3 -1 2 5 4 14 7 4 4 3 3 4 15 11 17 19 12 23 31 31 28 22 36
49 12 44 67 1 23 13 -9 60 18 8 24 -9 -15 -12 1 11 -3 -11 -20 7 7 3 -6 -19 -17 -7 -8 20 12 10 8 6 5 5 7 2 1 7 20 12 33 1 12 22 30 42 32 43
71 73 -29 14 8 59 14 69 14 19 -7 36 43 -7 -6 -4 23 -8 -17 -21 -12 16 13 6 -5 -28 -6 29 1 3 3 14 2 12 -4 1 8 1 7 15 20 22 29 8 26 17 41 35 44
100 100 83 12 -6 -7 -110 29 29 85 67 7 -96 -23 -11 -24 26 10 -9 -21 -9 5 7 8 -17 -47 4 -8 12 4 7 -2 5 2 8 1 21 12 7 9 4 15 21 24 23 18 33 58 48
100 88 59 46 83 6 -66 -53 -40 -13 -20 34 -21 -35 -8 16 -8 -18 -14 -10 -17 1 7 8 -1 -19 -17 -23 21 5 6 0 -7 0 16 10 4 6 -2 1 1 1 -1 14 33 22 45 37 58
81 126 151 93 85 7 -12 -7 7 20 142 34 25 -69 -37 -21 -12 -19 3 -5 -11 7 9 11 20 10 -9 -28 -14 12 -16 18 -6 -8 -2 5 6 8 3 -1 5 1 4 -7 -14 11 6 61 57
50 103 104 105 50 67 58 17 60 41 32 40 69 36 -38 -21 -39 -49 -25 -34 -5 -6 12 14 19 16 8 -11 -18 -14 -9 24 23 -1 8 14 13 7 11 2 -1 -4 2 8 10 11 19 5 47
71 45 117 124 59 50 32 43 48 40 31 15 46 51 -17 -52 -53 27 -28 -31 -33 -21 -4 3 15 9 8 3 1 18 25 1 6 9 25 -1 6 -4 34 7 2 4 8 6 14 8 -9 13 11
39 86 46 88 71 96 35 38 30 29 35 9 31 40 3 -5 -63 -29 2 17 -5 -23 -12 -7 6 8 12 11 22 21 20 31 56 55 30 12 11 3 11 -2 -2 -1 6 0 6 -1 11 18 5
115 24 51 71 92 45 35 40 54 26 45 23 27 102 48 41 -30 26 56 36 7 4 26 -2 11 13 13 18 30 29 28 31 13 33 42 46 31 13 24 2 1 2 10 12 7 6 12 3 13
78 90 63 35 41 52 40 22 110 56 50 22 26 46 23 50 25 96 96 90 46 57 87 169 53 22 19 26 26 33 35 32 37 21 31 35 37 23 23 12 11 9 3 11 13 -5 7 1 -3
95 26 21 80 56 61 74 69 58 59 55 43 28 64 50 31 38 108 113 173 156 131 182 154 147 94 35 34 31 23 16 37 37 32 32 40 35 34 39 36 22 17 15 16 10 6 10 8 4

GFSSGP_con_3kmhel_105.txt.gz
Helicity
43 83 90 86 71 99 0 -16 -11 -3 -3 -28 22 41 64 98 108 52 -19 -13 -3 -6 -7 -3 6 7 6 8 9 6 12 12 16 8 8 6 -4 -2 -10 -12 -12 -8 -4 3 0 4 10 5 7
77 42 70 66 31 26 8 -8 -2 -20 -21 -14 9 16 12 38 26 48 -4 -10 2 14 6 -3 -11 -10 10 6 8 10 13 9 13 14 12 3 -4 -6 -7 -6 -2 2 2 10 10 5 3 4 7
79 7 -25 100 120 32 18 -9 -17 -20 0 4 1 47 36 33 15 1 17 -11 78 33 31 21 9 -2 -1 -1 -8 1 -2 4 20 23 14 3 -4 -2 3 2 2 5 1 -2 6 10 12 7 8
30 21 -13 98 23 0 14 -13 -10 -7 24 -6 18 -25 15 35 16 15 -7 56 13 11 61 21 6 9 7 4 9 15 18 26 28 21 -9 -6 1 -9 1 2 13 6 10 9 -4 1 8 2 12
-34 -32 12 83 4 10 0 -4 -1 2 2 -9 6 24 -7 8 31 0 57 7 15 5 29 23 4 7 6 5 7 15 23 27 14 11 6 0 4 13 4 2 9 4 9 17 19 8 9 7 4
16 -12 40 -11 -21 -18 -2 -4 8 -1 13 25 56 51 -14 2 -4 20 68 49 3 26 29 8 7 -1 2 -4 2 11 18 13 8 0 -6 6 9 21 16 8 7 1 5 15 14 8 6 10 5
4 8 72 -15 -22 33 -10 -4 12 -3 2 0 33 45 31 18 8 -5 -19 -26 11 123 49 8 7 5 -10 -4 0 4 14 10 8 9 1 -4 1 10 9 3 1 -3 6 17 21 17 9 6 8
0 -54 57 40 -7 10 -10 17 36 -19 15 18 56 28 82 32 -3 -7 -13 17 88 62 3 -4 -6 -2 -1 6 13 13 0 -7 -8 1 0 11 8 17 17 11 -7 -9 0 13 21 20 19 4 2
28 16 47 -1 -12 16 53 41 85 69 -2 9 20 67 96 5 -3 7 7 18 11 12 3 -7 -15 47 -8 -16 7 5 -2 -5 4 13 14 8 6 10 12 -10 7 9 20 26 31 48 81 64 19
18 27 70 108 33 18 3 26 15 4 -18 6 24 84 99 1 0 8 9 0 -6 23 11 30 -7 -11 0 -18 2 19 15 -1 -7 19 84 56 55 7 -2 16 31 45 54 42 59 71 87 173 73
9 24 56 132 141 16 17 16 -8 20 -14 23 46 67 34 13 2 10 7 22 16 10 37 82 6 -12 9 -35 12 9 -17 -13 -1 21 9 6 10 20 31 37 34 51 81 54 73 125 85 53 57
9 39 75 90 190 33 29 17 7 22 47 21 14 36 37 16 15 5 15 -10 25 -11 -1 -42 -4 20 -43 6 26 16 -3 -29 -2 2 21 34 32 22 46 13 16 28 9 28 49 -22 8 11 96
14 29 28 40 221 24 41 17 86 58 79 23 6 13 20 11 6 2 6 -21 -12 4 -11 -8 -5 47 32 38 5 10 -26 12 -23 23 18 22 23 21 6 25 9 50 21 10 17 -1 6 19 22
48 23 85 162 129 47 54 50 48 45 36 49 -4 0 6 4 -1 -13 -12 -14 -1 -9 -12 -5 14 -5 21 -6 15 12 8 -14 8 -12 10 32 9 29 23 49 25 35 34 13 -1 61 29 6 -9
71 48 70 163 180 144 121 20 60 49 52 42 -2 -13 -3 -5 -8 -12 -13 -8 -2 -8 -5 1 -4 -13 -25 -7 10 23 -9 3 4 -19 9 11 13 34 36 13 39 -15 16 60 67 82 54 10 -9
28 61 77 68 139 136 181 104 89 31 48 31 15 -3 -1 5 11 -12 -11 -5 -6 7 1 8 -1 -2 -4 -25 40 13 3 -28 -19 8 16 9 10 40 53 40 13 11 66 38 42 37 25 26 -1
39 43 75 79 121 112 170 97 63 16 21 5 12 13 -4 18 25 12 -1 -7 -1 18 1 2 -10 -10 -6 8 40 -1 3 9 -5 4 9 7 16 23 85 38 1 64 56 38 28 12 61 41 23
-89 72 73 112 95 125 92 135 104 10 21 53 20 15 2 17 30 20 6 31 9 12 -5 -20 -23 -14 -32 29 30 -11 14 10 1 21 46 1 8 16 51 4 19 50 47 8 40 65 47 68 66
-42 11 105 106 86 163 107 45 133 133 102 49 50 38 21 1 51 26 19 32 36 16 1 -10 -16 -15 -31 -23 22 13 25 20 3 49 -13 1 2 2 20 9 20 85 -9 43 38 60 47 0 37
41 50 96 98 30 23 84 111 94 144 100 81 48 26 6 13 54 41 1 42 34 25 16 -9 -6 -18 4 -10 55 35 15 -11 1 29 -11 9 -5 3 8 23 14 13 -10 16 29 50 65 -15 57
-2 -21 15 67 7 17 3 54 34 114 114 82 76 109 12 14 19 73 -10 12 39 30 21 0 0 -11 6 -5 5 25 52 34 16 28 7 11 3 3 27 10 38 -5 34 -2 31 43 85 31 9
30 -40 -17 56 -54 -74 -93 7 35 22 82 11 31 57 82 -3 91 79 -13 33 28 55 11 22 2 -15 -14 21 -7 3 1 11 7 19 19 29 4 -4 3 -7 2 3 45 30 3 14 95 85 18
57 21 -160 -76 -69 -42 -224 -59 -199 -49 79 -3 -74 27 83 50 75 58 27 9 29 83 22 17 1 -16 -17 -18 27 -4 13 4 26 9 46 21 28 6 0 -6 -9 -13 20 9 42 17 41 94 103
72 80 40 26 -12 -19 -33 -53 -20 111 246 51 -30 -68 -38 52 66 16 -8 56 17 64 48 30 11 -18 -24 -9 2 28 79 50 59 18 1 23 25 -2 0 6 -8 -11 31 -10 -16 -17 6 49 93
43 31 67 67 13 27 80 -14 19 125 68 122 41 1 -59 -1 55 -18 59 45 103 105 62 54 33 6 0 -1 -1 23 47 43 25 25 -7 52 -23 13 31 6 9 -3 -6 -12 -17 -17 0 -12 25
36 32 50 40 70 33 51 14 42 67 49 80 94 81 28 -16 36 8 104 91 47 124 -53 45 66 16 14 16 11 20 39 28 12 7 35 24 27 10 64 15 9 -1 -6 -4 9 -5 -8 -4 -22
1 20 14 31 49 137 -9 58 26 57 65 34 81 119 92 101 -55 8 41 135 -43 53 83 65 66 27 20 22 31 24 26 42 50 48 14 -1 14 32 17 12 3 4 10 3 -3 9 2 2 1
44 4 29 35 85 20 9 -13 117 114 21 16 4 96 227 39 -27 -39 95 104 60 73 47 66 77 28 27 22 31 37 24 40 50 31 24 27 72 58 -62 19 14 6 12 8 4 2 42 1 -2
54 54 42 29 19 45 20 41 21 -37 32 15 -7 -1 195 147 45 -11 160 100 98 56 55 71 103 61 35 35 36 42 49 50 41 40 55 56 36 42 40 17 10 12 -3 5 10 4 24 11 -1
-7 1 19 26 46 40 42 42 98 73 59 33 32 27 103 100 106 203 108 71 57 74 72 127 104 94 59 82 52 46 59 57 42 34 41 46 32 39 31 34 21 14 7 25 14 3 5 8 2

GFSSGP_con_3kmhel_108.txt.gz
Helicity
66 98 117 144 31 28 5 32 -25 -12 -21 26 76 80 96 121 104 48 2 64 -11 13 -1 0 4 2 -6 -1 2 5 6 12 10 3 -7 -13 -10 -4 -1 -2 -3 3 5 5 5 2 0 0 0
61 133 65 53 29 11 16 4 -8 -14 -18 34 201 69 98 85 45 82 -27 19 51 10 13 6 -1 6 7 4 10 8 11 15 9 5 -9 -10 -16 -12 -4 -3 0 2 4 8 8 8 7 0 2
61 92 -33 62 17 -7 51 0 -2 5 18 54 -2 54 53 55 31 50 94 8 161 93 43 22 17 18 15 8 12 5 4 11 -2 -2 1 0 -2 5 4 2 -3 -3 1 -3 3 -1 -5 -6 -3
112 44 1 57 93 16 57 5 -3 -2 -2 44 93 12 28 38 45 34 33 13 127 48 24 18 16 14 12 2 1 -1 -2 -2 -6 -4 -1 10 10 10 11 8 -1 4 -3 -13 -7 -7 -2 -12 -7
-37 -88 22 184 57 79 11 8 8 15 128 57 125 43 56 58 81 47 20 87 50 37 16 16 9 8 0 -2 -6 -3 1 0 -10 -5 -4 6 15 13 6 11 13 4 4 -1 1 -5 -9 -10 2
6 -46 31 37 61 27 11 0 9 77 60 38 35 48 69 11 27 20 29 33 43 38 18 13 4 1 -3 -6 -1 6 3 7 -9 -7 2 17 18 14 5 2 3 1 0 -9 -13 -12 -15 -4 8
21 9 29 45 -25 30 36 22 55 12 6 17 69 50 35 6 18 -34 10 50 294 58 14 10 10 3 7 9 9 0 0 1 -2 0 9 17 20 18 11 0 2 -12 -13 -17 21 -27 11 7 -9
29 34 6 -22 -49 31 31 46 31 101 -3 18 109 35 69 15 5 2 112 54 3 77 36 -8 -2 4 1 5 -2 5 6 12 14 6 8 11 22 23 17 4 11 13 20 -1 29 28 5 -12 -1
30 25 19 22 -2 31 2 124 84 16 20 83 24 89 10 -10 28 37 68 30 56 36 -3 48 -3 -16 15 3 -3 5 14 25 7 -4 -1 -19 -32 7 22 9 25 36 43 43 51 72 65 14 -39
24 -5 75 113 7 3 48 37 28 42 33 16 50 83 1 1 32 41 12 77 0 -11 9 13 -4 -13 -22 -1 -3 8 6 42 36 21 57 17 39 23 25 38 45 46 56 79 89 110 98 91 59
10 64 73 134 34 26 28 8 25 31 30 32 112 56 4 -4 19 17 93 76 3 7 6 -31 -20 -14 -7 -6 7 -26 -34 8 41 19 22 29 31 25 18 36 24 46 55 58 82 126 18 200 87
2 45 13 211 61 12 24 5 37 23 77 136 56 19 17 2 18 20 94 -9 7 28 -19 6 7 -18 8 47 7 6 4 -16 27 51 30 24 21 29 111 62 4 55 107 144 11 53 38 77 173
-2 36 47 125 160 155 15 46 29 119 144 150 27 1 19 3 6 2 51 11 31 32 7 114 10 2 1 38 11 10 -9 25 51 1 59 36 13 25 -21 76 62 57 24 52 37 90 71 93 63
-2 52 65 146 93 214 81 66 51 30 33 95 5 9 8 8 5 -2 -7 29 28 32 81 60 -11 20 78 63 38 -13 -7 7 22 19 84 84 13 45 49 32 9 87 61 31 35 114 77 48 30
22 40 59 200 123 187 133 23 51 48 44 49 3 -1 4 7 -3 -15 6 -1 25 23 53 -5 -3 -13 31 19 -32 6 -30 21 -2 8 85 54 46 20 20 45 45 80 44 97 101 57 38 64 67
26 33 75 90 291 95 159 158 123 18 51 38 12 -6 3 -2 18 -18 -2 37 34 75 22 15 -1 11 -8 -8 12 21 -8 7 -6 -5 -3 28 29 31 11 43 39 40 47 98 141 120 40 39 46
31 59 47 153 216 210 144 141 61 25 39 7 25 14 3 33 45 -4 -15 48 103 66 -10 30 -48 -4 -5 6 29 13 -13 4 10 49 32 19 29 28 9 92 37 34 97 -15 96 41 77 58 23
83 -100 -5 76 155 201 111 77 13 12 41 7 7 32 7 57 48 26 5 67 135 29 -20 16 -27 3 -43 -8 36 20 14 -3 5 63 21 29 10 28 16 70 22 -17 107 -20 76 40 82 64 84
47 -51 -37 212 118 110 129 116 132 124 21 29 17 66 35 75 65 32 27 84 103 29 -17 -20 17 -26 -50 -1 -18 -4 -32 25 -10 -18 15 4 1 -3 37 65 14 41 70 35 86 128 129 69 32
44 -8 88 84 62 151 36 114 148 222 343 104 165 71 35 76 108 33 56 90 66 36 2 23 29 -19 -31 -10 -11 3 -9 16 15 22 13 -1 18 0 34 -13 -42 16 42 32 33 75 120 72 50
38 11 2 16 29 78 71 99 98 122 162 275 187 142 135 124 77 61 79 63 126 92 55 -5 17 -17 -41 54 -31 45 -14 -16 -1 -2 6 0 5 5 -9 3 25 26 30 35 36 62 99 109 49
95 -35 -13 -6 -39 -35 -119 50 111 175 82 100 139 73 61 144 -8 114 116 0 144 146 50 26 -1 -24 -44 35 17 -27 3 17 -10 -15 22 24 17 6 -13 -10 10 4 -6 38 28 48 57 65 133
-44 -24 -49 -55 -44 -17 -157 -18 -120 16 34 58 52 46 51 48 103 126 46 154 -10 135 86 76 47 -10 -32 -46 4 20 -21 -9 -16 23 59 28 33 28 -3 -16 -23 -14 0 -1 42 34 35 80 98
11 31 -2 -18 -14 -38 -73 -82 -129 -133 -266 -71 -33 38 29 23 -4 13 74 121 122 152 114 132 49 4 -14 -14 -29 -10 11 -5 31 34 -29 29 21 -10 3 -1 -10 -10 -6 26 -13 3 37 43 82
5 29 -40 -50 -90 -44 -22 -85 -9 107 41 49 18 -5 26 67 129 143 -41 56 248 158 144 180 108 37 -26 -19 -14 2 5 7 36 11 -2 45 9 40 44 42 -7 -17 -7 20 7 15 20 27 15
4 -3 21 -19 56 28 69 59 53 82 40 68 -41 62 115 -61 -12 44 22 177 191 198 262 195 105 58 10 1 3 26 44 23 19 57 21 42 63 35 14 12 12 4 -19 2 -17 -9 0 2 11
-9 56 9 50 12 62 17 15 14 10 26 21 -3 25 79 88 -45 10 65 199 165 75 108 200 137 74 54 39 34 24 40 86 92 47 7 51 -1 -10 -22 -5 -1 9 -2 0 -11 -2 -2 27 8
49 15 4 28 23 24 61 91 54 -1 74 137 74 49 102 90 8 58 148 183 109 -21 160 219 24 75 59 41 61 45 48 69 52 45 55 58 19 -3 63 52 13 8 5 8 6 -2 11 9 14
61 39 25 26 15 29 -17 19 46 58 53 34 230 178 141 191 74 127 110 137 118 72 217 43 79 76 64 52 71 64 44 51 44 42 53 33 17 22 24 23 21 18 17 17 7 -11 3 6 -11
19 15 11 63 63 77 2 -41 174 276 -10 -56 8 267 231 181 123 174 -12 205 124 178 226 63 159 100 58 38 70 79 47 70 48 43 69 36 48 56 28 18 14 16 2 12 26 0 5 23 26

GFSSGP_con_3kmhel_111.txt.gz
Helicity
13 64 50 130 65 62 21 -19 -14 14 -14 -6 -47 32 69 13 27 4 -8 4 18 -8 -12 -5 -4 -2 -2 1 7 3 -4 -1 -14 -8 1 1 -1 -3 -1 2 3 -1 -5 -6 -8 -9 -10 -14 -5
21 64 120 105 35 13 27 -10 57 3 7 187 97 129 209 130 155 65 -3 31 24 0 -11 -8 5 3 10 15 10 6 8 -1 -9 -8 -8 -9 -7 -10 -4 3 3 0 -3 -5 -6 -15 -19 -9 18
41 6 12 15 42 67 108 41 -10 39 -13 -4 -51 55 -42 27 33 -9 -42 15 1 12 7 3 13 5 13 16 7 -1 1 -6 -9 -3 -10 0 -3 -3 -5 -6 -3 -2 -4 -5 -9 -13 -7 5 18
42 6 37 13 45 65 163 25 -12 82 88 77 118 72 84 22 158 170 98 87 52 24 4 18 23 24 10 5 -2 -8 -11 -9 0 6 14 19 16 8 4 -3 -5 -6 -13 -18 -23 -16 8 5 29
42 -11 81 93 89 50 87 -7 102 -13 64 64 155 152 131 86 125 139 4 106 82 35 8 9 11 11 4 3 -1 -6 -1 1 3 13 31 29 19 16 12 7 -3 -5 -19 -22 -22 -13 18 8 18
31 -22 -42 36 14 91 17 28 74 101 84 91 193 182 6 63 95 5 60 50 22 32 0 -3 11 4 4 6 2 4 2 6 18 21 18 19 12 3 2 -3 -17 -2 16 -3 19 41 26 5 6
41 28 11 146 107 48 24 49 54 21 83 86 141 100 -24 -10 85 47 48 15 3 4 0 -10 -13 3 8 -4 5 -4 6 10 8 15 22 24 11 3 -6 -1 13 3 48 51 46 38 25 12 14
44 -4 15 66 87 -6 99 124 4 30 112 162 102 -16 -13 31 8 106 206 36 -17 -25 -30 -13 -13 -10 -8 9 15 16 10 5 1 8 17 22 20 7 23 29 37 43 41 50 43 9 5 20 35
41 40 31 42 3 107 189 174 49 27 120 71 45 -15 11 17 33 66 56 79 38 -14 -31 -45 -33 -21 -3 1 12 13 14 1 2 3 14 14 -9 15 37 51 62 55 61 69 59 59 40 30 47
25 74 63 93 176 172 30 8 -45 54 174 70 103 -5 -10 179 139 114 60 32 38 5 -19 -19 -37 -4 -13 -16 -15 -12 -2 -15 -4 0 -2 42 34 57 50 61 70 69 69 66 35 26 39 94 100
15 34 36 130 146 103 107 25 -18 42 75 110 63 8 90 43 81 49 74 26 40 35 6 -53 -45 -7 -17 -27 -24 -20 -16 7 52 8 25 37 40 55 29 37 64 66 78 64 2 56 114 93 104
37 62 94 48 117 325 33 -3 3 60 67 143 5 -28 89 32 60 121 104 94 32 9 -10 27 -10 -9 16 -24 -29 -35 -37 -20 28 3 34 32 51 45 19 11 10 119 84 70 68 127 181 191 127
59 17 36 36 151 176 41 92 53 92 220 184 43 40 53 0 156 136 52 54 17 -3 -20 -10 -14 -8 6 31 15 -27 -19 8 36 35 10 17 57 86 1 20 55 92 80 111 70 74 74 108 101
58 68 4 139 81 37 176 100 182 141 229 126 120 31 -29 -16 140 50 13 -5 -36 77 83 16 -21 3 41 1 36 3 5 17 30 8 18 12 26 22 72 83 99 95 84 88 109 92 89 80 51
26 26 5 103 127 225 351 17 6 111 109 41 93 -21 -11 26 18 -13 -54 86 122 101 83 28 -6 7 -2 -25 -23 -4 16 7 -1 35 3 42 58 -3 40 76 84 216 144 56 37 86 76 62 31
34 9 61 137 219 225 254 117 50 70 91 30 19 -47 21 -26 27 38 68 172 163 144 35 -2 4 6 -5 4 11 -12 28 31 8 21 16 36 35 6 15 25 39 76 13 50 101 87 96 153 99
74 37 116 121 111 190 90 74 107 102 117 33 -8 -37 13 45 86 21 98 215 187 94 2 1 -15 -25 -38 -26 24 -13 4 19 12 25 32 28 26 9 16 37 6 26 53 92 124 61 28 96 79
37 40 -25 -39 82 224 195 129 50 99 115 36 22 38 86 114 101 88 191 202 97 66 12 -38 -37 -14 -25 -17 10 -12 30 30 22 66 24 6 21 19 1 -6 -23 21 93 107 85 82 55 79 39
74 22 -6 -1 75 138 210 101 238 279 92 48 49 58 122 133 98 59 200 182 132 96 13 -25 -24 -40 -45 -11 22 -6 48 0 42 38 -9 4 6 6 26 12 7 23 85 115 91 83 85 106 36
45 21 -80 -25 75 126 191 118 115 254 179 234 167 81 123 152 104 77 287 214 150 70 29 68 -1 -15 -37 -17 20 29 36 -15 7 22 6 4 -5 8 11 -4 15 23 60 84 63 84 92 88 79
37 40 1 7 44 23 111 -23 109 219 225 211 230 300 243 153 146 189 253 195 166 71 84 65 11 -19 -42 39 -28 25 52 27 3 12 2 7 -2 -10 -1 -22 -17 24 38 34 75 91 99 96 100
91 208 7 -45 26 -22 -1 38 -26 61 110 153 227 291 193 229 149 184 207 244 210 99 144 105 19 -22 -7 -48 -17 -29 -39 -1 44 35 4 -5 3 -7 -2 -5 -23 -7 7 32 53 51 69 105 105
-18 -82 -143 -99 -23 -46 -142 -28 -79 -128 -24 36 107 134 192 168 145 190 148 256 238 188 152 158 50 -24 -4 -7 -29 -5 22 23 72 28 17 33 6 0 0 -21 -19 -60 -2 23 41 20 45 85 108
-110 -2 -75 -22 7 84 -30 -62 -136 -65 53 87 134 115 174 145 140 148 172 228 258 166 174 136 64 11 12 -11 -29 -23 -15 -5 54 7 48 -5 -10 20 26 -1 -14 -12 -25 24 19 -2 30 65 60
107 37 28 -47 -28 -8 -35 -25 66 32 -117 112 2 3 96 157 161 130 122 105 236 181 191 171 85 16 40 -23 -30 -26 -38 7 -9 26 0 -28 7 30 26 36 4 -16 -15 -2 16 24 14 35 44
24 69 3 27 -11 -3 21 13 17 109 47 -13 4 -39 127 286 165 198 67 114 113 240 229 201 148 57 47 4 -36 16 28 29 -13 17 -16 0 0 8 55 55 6 -9 -7 4 13 22 42 23 23
39 66 0 37 -2 -29 -25 -147 17 78 8 52 30 -30 130 196 224 175 73 148 104 234 249 215 206 95 60 68 17 13 -2 81 46 10 -6 -17 68 95 76 39 14 0 -5 -14 -7 10 28 11 24
39 11 80 95 35 25 -1 -16 -70 -9 42 19 67 76 132 148 206 73 153 139 154 179 370 278 175 165 75 104 107 55 31 104 96 46 29 28 55 8 -6 -10 -20 14 23 2 -5 24 18 6 -9
76 58 97 37 26 39 34 -8 17 109 10 21 -18 41 112 75 217 100 173 190 210 201 269 191 190 188 96 120 106 82 64 84 127 52 38 30 6 -3 -35 -8 20 -6 0 11 21 13 -10 9 5
71 47 35 80 103 30 0 -22 2 -82 87 -2 5 -21 1 119 82 66 61 276 324 279 249 224 160 164 129 117 103 69 51 54 65 58 57 60 24 12 -14 2 -5 11 23 10 16 8 8 0 -6

GFSSGP_con_3kmhel_114.txt.gz
Helicity
-5 14 37 21 31 2 10 -11 -2 -5 29 44 7 17 46 12 22 14 -36 -11 17 15 14 12 12 -1 -8 9 6 1 -7 -9 -2 -9 -11 -6 -1 -2 -8 -8 -12 -12 -20 -13 -8 -10 -2 14 21
-18 5 37 66 45 115 26 16 31 -26 26 80 74 101 40 23 127 24 -25 -1 32 13 -5 6 12 10 6 5 7 2 -11 -12 -11 -12 -8 -8 0 -1 -3 -6 -9 -13 -14 -18 -9 -8 2 23 25
-4 -33 -13 -24 80 113 109 28 77 30 76 109 62 137 34 35 61 -25 -26 5 12 -3 -10 8 21 22 19 15 8 -5 -9 -10 -16 -17 -10 -1 2 -4 -7 -6 -15 -15 -20 -5 -11 -15 15 16 25
-16 -15 59 13 103 78 123 11 116 147 36 137 125 81 9 32 26 -63 -4 10 6 0 -10 20 25 19 12 8 -2 -10 -13 -9 -8 1 4 -3 -7 -8 -12 -13 -20 -25 -7 20 2 4 15 20 24
5 24 57 88 85 65 59 -20 43 62 55 144 130 17 -57 0 16 20 -1 9 54 17 6 5 16 7 9 6 0 -5 0 2 13 19 13 -5 8 21 23 27 33 37 37 33 16 4 15 19 33
24 74 -3 111 34 155 115 157 158 154 124 125 119 33 -34 19 66 3 26 26 28 26 7 -3 8 8 7 7 5 -4 -1 4 10 16 16 10 11 19 16 20 44 47 47 38 34 16 28 45 55
15 42 192 181 -17 151 139 99 134 114 83 52 115 105 -18 -5 16 32 28 29 12 4 -1 -17 -14 2 6 -1 -2 2 7 7 9 14 17 8 -25 -21 13 34 61 64 51 37 24 16 33 55 71
1 130 100 103 90 111 77 23 76 82 -11 104 233 93 -1 -44 -21 5 -16 -24 -22 -11 -11 -17 -9 -8 -16 -2 5 -3 -3 3 10 9 5 -20 -41 23 51 60 79 86 92 74 49 27 27 38 79
21 -7 60 54 134 134 101 71 18 60 62 27 25 72 42 31 36 42 -3 -41 -26 -35 -37 -30 -8 -1 0 6 6 1 10 9 12 -1 7 -14 -30 51 63 75 66 61 49 52 45 40 58 68 77
3 -8 56 122 188 200 171 52 49 114 55 60 172 99 75 113 142 103 38 4 -7 -52 -53 -38 -19 -3 -2 2 -7 -10 -11 -18 -32 -26 -20 -4 47 53 55 59 68 51 58 70 55 60 61 48 64
13 -20 18 86 138 171 72 48 105 192 125 151 300 186 75 52 85 76 72 41 -30 -48 -56 -44 -32 -21 -8 -23 -28 -24 -19 -2 -6 -11 2 1 8 25 36 32 31 33 41 60 73 70 44 81 75
65 70 -13 31 44 70 -42 40 125 187 90 116 240 144 11 57 81 87 50 38 29 -6 -49 -38 -37 -25 2 -30 -33 -25 -17 10 10 15 14 19 15 34 39 19 33 41 111 122 69 106 109 88 90
120 133 85 -24 68 83 98 32 60 50 86 126 178 126 85 99 67 43 80 29 40 15 -35 -38 -21 -10 7 -6 -13 -12 5 33 11 17 21 -1 29 23 50 65 42 68 87 99 116 90 99 130 134
91 56 -9 -23 110 94 56 75 233 82 40 102 126 93 70 92 130 123 93 65 46 18 -31 -26 -18 -14 9 8 9 -4 30 15 14 15 15 29 42 51 98 115 101 118 80 134 149 135 120 112 79
51 35 -37 91 184 125 170 144 136 72 64 91 122 28 88 144 124 147 123 95 47 9 -46 -17 13 1 1 41 -10 6 13 27 48 25 15 27 39 64 65 88 114 103 112 124 116 103 74 37 34
33 34 44 34 108 135 142 80 91 100 113 116 92 131 61 84 43 36 113 80 80 18 19 9 14 -4 -56 -50 -18 3 -3 9 11 13 17 23 16 48 43 54 96 105 134 115 107 79 71 82 69
67 70 64 88 132 250 233 104 29 78 94 76 57 42 39 52 18 99 122 142 69 46 45 4 24 4 -34 -11 -15 6 1 8 0 6 37 21 35 12 -12 0 12 42 62 86 92 83 69 121 118
17 26 -15 24 -12 147 267 160 96 73 90 13 13 -66 74 54 49 167 169 120 34 41 43 16 2 -18 -35 -7 -6 -9 3 29 14 21 16 25 25 -1 -4 3 29 59 44 86 105 70 51 59 84
39 24 30 10 -41 44 75 68 186 292 95 4 2 26 145 102 164 231 221 140 75 73 68 8 -14 -12 -29 -7 -12 3 -11 17 24 20 31 6 -1 -16 -3 25 16 48 26 75 128 91 72 77 42
58 85 41 -11 -45 5 117 108 191 229 192 131 92 75 121 216 266 251 233 192 108 111 42 31 -12 -31 -29 -8 38 22 17 31 2 16 5 -3 -20 -20 -17 10 -2 16 37 67 101 67 70 57 53
-91 -12 -8 -23 20 83 56 135 103 194 137 175 178 207 136 229 312 243 256 184 120 139 72 43 -11 -26 -34 -4 48 54 56 83 27 11 5 -23 -15 -19 -24 -21 -6 10 18 53 70 76 65 78 81
22 -44 -12 -66 -12 45 -58 39 49 104 202 113 134 237 168 178 274 256 218 191 185 125 78 53 -1 -11 -19 22 -14 -14 17 -21 21 3 -6 -15 -15 -25 -35 -20 -3 -7 6 36 57 70 84 63 79
33 -9 -34 3 29 -18 -85 9 74 -8 35 20 64 212 255 230 244 219 201 176 130 119 86 58 35 33 -14 14 14 -1 8 5 21 -6 -6 -11 30 24 -30 -14 -21 -20 4 34 35 67 83 63 45
162 110 128 30 75 78 -36 -67 131 -6 33 44 93 190 304 271 203 190 179 166 139 107 91 66 70 71 48 20 21 -31 -9 -6 2 -23 -4 26 29 29 52 47 -16 -20 -16 23 24 27 36 50 70
126 154 66 -3 36 42 0 -38 -3 -37 29 17 57 136 264 276 299 289 230 154 148 147 80 83 65 75 70 52 40 -24 -21 2 -16 -7 27 42 18 10 1 48 29 12 22 25 27 35 43 52 43
-14 11 41 82 8 11 13 -5 -1 75 60 29 41 119 231 194 222 287 291 228 172 177 122 101 63 59 81 86 51 25 -16 -19 3 26 35 17 25 2 32 48 42 10 -18 19 28 34 40 48 53
24 51 6 28 4 1 -31 -47 -38 -2 14 83 15 158 152 124 213 251 298 256 180 189 135 104 90 50 62 77 72 39 51 15 10 20 12 -24 -7 3 13 43 26 1 8 6 13 25 35 50 51
63 53 52 50 -1 -4 6 62 -14 -36 58 65 121 73 50 144 232 231 244 226 240 194 184 129 113 82 75 63 74 66 76 69 59 15 -5 7 17 37 23 48 39 2 -9 -8 -2 8 30 40 59
83 65 63 47 28 -13 -10 20 -14 -82 45 70 40 72 80 119 225 233 211 251 291 224 237 189 139 120 103 78 70 88 120 92 70 27 -2 7 19 27 -8 23 40 19 9 4 9 -3 -15 25 12
81 57 33 63 81 42 -13 37 -26 19 -50 27 63 76 99 197 170 249 214 264 343 296 277 241 159 136 118 98 101 92 115 120 104 54 16 6 13 12 23 5 10 31 22 12 9 7 9 7 1

GFSSGP_con_3kmhel_117.txt.gz
Helicity
1 15 30 14 3 3 22 9 13 68 14 11 27 57 29 -37 22 15 -57 -41 -38 -16 12 22 9 -9 -6 5 2 5 4 6 2 -7 -8 -12 -16 -19 -18 -14 -4 14 5 9 13 17 17 15 18
-11 17 43 24 20 47 24 -12 61 40 17 48 -0 103 2 7 52 -3 -52 -56 -28 -18 -11 -0 -8 -22 -8 3 3 5 2 2 -13 -7 -6 -8 -11 -16 -17 -5 4 11 15 13 11 22 19 15 19
11 -5 4 19 32 78 54 29 35 62 79 31 31 45 20 34 4 7 -61 -30 -32 -20 -6 12 -3 -0 -0 -2 -0 -2 -4 -2 -9 -10 -10 -4 -3 -9 -12 -2 4 9 11 10 14 20 21 23 36
-14 -85 -25 57 108 76 60 118 88 66 20 15 139 39 81 -9 -4 -32 7 12 -3 -6 2 18 15 8 -0 -11 -15 -10 -11 -9 -5 -8 -10 -12 -14 -1 -9 7 11 15 17 6 13 18 21 29 36
-36 -0 -21 41 50 40 33 53 40 61 23 35 61 65 38 17 -9 32 22 18 32 11 12 13 27 16 9 -0 -7 -10 -7 -2 12 14 15 9 18 26 23 26 32 30 31 23 23 21 20 32 51
-6 92 44 146 44 61 74 103 85 66 52 39 133 143 36 -27 52 -1 -2 17 18 39 18 15 14 8 11 8 -3 -3 9 14 9 -0 6 13 19 28 32 43 48 44 34 30 31 29 43 52 55
38 75 149 176 76 53 34 30 46 62 47 1 92 112 8 -31 -14 -36 -11 20 22 22 14 -3 1 10 11 11 8 4 3 5 13 10 8 4 5 27 41 42 48 40 29 25 29 37 50 59 64
35 94 201 154 54 28 20 -1 28 53 -21 69 112 94 -24 -59 -29 -6 -0 7 -1 1 -2 1 -8 -15 -5 1 9 -1 6 14 9 6 2 3 8 38 51 62 65 47 43 37 36 41 61 63 68
13 187 76 112 49 92 27 56 -2 5 32 11 24 2 -59 -21 -0 3 -12 -13 -18 -14 -17 -4 -8 -8 -1 -3 -2 -0 8 9 3 3 19 40 53 61 69 83 72 66 54 52 56 57 67 78 84
23 66 70 146 137 127 33 126 93 83 53 68 93 1 -14 12 22 16 -1 -21 -26 -27 -23 -5 -6 3 4 -5 -20 -23 -8 -10 -11 -6 8 39 51 56 60 54 55 55 50 58 82 84 81 90 101
1 -14 -121 121 81 170 103 36 47 166 92 177 142 68 9 45 3 28 -4 -20 -37 -37 -25 -16 -14 -3 -3 -7 -13 4 -2 -1 -5 6 18 22 33 43 42 48 51 56 40 55 48 59 51 83 103
54 -10 -82 71 103 75 79 93 27 164 62 179 199 77 51 48 34 46 20 -21 -27 -53 -37 -22 -16 -7 4 -18 -17 -10 12 9 12 21 24 21 38 36 43 48 60 80 102 116 90 79 89 95 95
47 57 14 69 112 109 132 107 52 93 182 179 167 124 63 61 33 25 32 26 -29 -58 -53 -29 -17 -14 -8 -6 -8 7 23 16 31 29 22 25 44 47 42 28 63 57 83 85 93 112 126 131 128
41 132 123 -10 68 111 103 55 46 50 235 158 135 86 80 105 68 61 94 58 2 -46 -46 -36 -26 -14 -6 9 -4 2 14 20 13 19 41 68 66 73 98 88 110 99 120 119 108 126 111 100 95
61 75 74 5 98 117 86 20 3 180 177 154 64 42 68 70 108 147 99 64 20 -8 -14 -15 -7 -16 2 -3 10 16 15 15 23 21 33 52 40 65 69 79 96 116 112 101 112 120 81 68 97
24 16 33 26 113 77 109 60 81 180 156 98 65 48 58 37 119 74 78 28 -52 -43 -5 -13 -14 -1 -3 2 1 17 7 54 38 54 31 34 19 26 30 70 93 92 93 98 107 91 61 50 59
35 -25 39 132 51 48 93 78 45 69 150 72 77 51 41 61 36 83 73 32 -21 -3 42 33 7 -13 -29 -23 -13 4 8 25 20 39 28 14 6 16 46 60 77 62 90 95 102 92 66 69 95
30 1 -8 18 50 140 140 158 122 54 35 120 128 127 83 108 106 108 95 55 -13 12 56 25 8 -15 -25 -24 -11 8 -1 9 12 20 34 18 9 17 9 21 42 57 74 70 85 86 68 57 86
47 25 23 -17 -49 78 217 263 70 116 51 73 125 154 118 91 59 98 135 83 -3 19 69 55 25 1 -24 -0 4 5 -3 6 10 23 39 5 10 17 10 -13 16 25 35 42 60 59 67 63 75
29 -1 -3 -14 -18 -15 11 73 242 160 102 116 95 73 86 85 112 99 124 135 40 32 68 86 60 7 -13 3 11 23 18 11 -0 7 10 3 4 -8 -34 -22 -10 11 17 54 60 73 58 58 60
28 -52 -135 24 14 46 20 36 83 145 131 98 40 96 109 181 172 150 180 162 46 50 67 78 68 7 -12 -17 25 69 53 43 23 6 -3 2 -5 -20 -11 -22 -28 13 6 42 61 62 38 24 74
30 14 -57 9 -6 25 39 8 -36 95 68 74 55 56 126 153 230 226 214 134 83 64 73 36 -20 5 -5 -6 -10 -3 5 -1 16 -10 -13 -4 -11 -7 -10 -49 -43 17 18 41 58 54 52 28 30
21 80 50 3 31 -3 -0 37 26 98 120 120 101 -6 134 176 214 227 207 171 115 87 76 57 3 20 -4 10 -4 -16 -12 -4 34 -18 -24 -20 20 -8 -7 -4 -36 -35 -8 37 17 40 60 58 48
131 168 49 57 51 25 31 32 6 128 3 46 38 15 120 219 202 202 184 138 107 69 55 40 52 22 36 37 11 17 2 -6 9 -13 -5 -10 24 40 36 -21 -29 -37 -41 -9 -30 -47 25 53 59
111 106 93 85 58 60 23 20 -31 12 84 -36 -27 123 124 175 262 205 182 152 95 89 51 56 72 32 31 54 28 29 -0 16 8 8 -4 5 24 38 21 18 -12 -17 3 -25 34 40 28 -1 40
45 63 10 30 75 57 11 5 -73 -0 -8 1 102 235 208 198 268 273 207 189 129 97 64 72 61 29 45 56 46 37 30 4 12 -7 -9 -5 14 10 41 -4 -0 7 35 47 44 44 19 61 24
1 -9 19 -6 22 35 -5 -17 -28 -61 15 40 21 134 340 279 247 273 233 213 163 131 94 78 81 56 34 49 49 40 41 13 7 5 3 -2 -2 10 10 3 -4 18 29 45 32 33 16 33 29
45 21 37 47 4 27 12 73 50 11 45 19 -35 43 293 327 299 269 244 214 152 180 115 94 79 101 62 37 42 31 36 44 27 19 36 10 3 24 44 30 10 20 16 37 19 7 28 36 46
102 71 60 40 34 21 22 25 13 -13 -11 9 -35 76 211 319 258 221 231 221 193 194 145 113 120 85 84 65 44 48 46 38 53 33 39 32 44 33 28 7 17 34 37 20 20 -6 -26 -21 29
115 64 48 59 69 54 33 47 30 82 97 74 52 -37 -77 268 147 228 269 280 244 230 166 162 146 126 89 113 86 69 50 64 72 58 42 55 37 37 -20 3 16 25 26 24 5 15 11 14 -12

GFSSGP_con_3kmhel_120.txt.gz
Helicity
12 31 35 13 1 -1 9 18 62 39 15 15 36 40 8 -18 41 -48 0 -54 -85 -17 34 33 16 4 3 -1 -4 1 7 9 -2 -3 -13 -14 -9 0 12 17 23 8 18 14 11 14 12 8 13
-3 35 31 16 11 7 27 8 21 22 -14 55 25 34 17 42 39 -9 -61 -36 -49 -16 17 22 16 6 13 7 1 5 1 3 -1 -12 -14 -8 0 10 12 14 15 17 17 6 12 11 11 21 23
-5 47 37 5 12 22 37 17 52 40 73 47 20 13 28 21 10 -20 -37 -48 -51 -40 -7 7 -2 -12 -3 -6 -4 1 -2 -3 -4 -8 -8 -4 1 9 15 14 14 15 22 24 23 21 21 32 30
-10 16 30 -6 26 32 66 57 146 92 48 9 103 18 51 -3 20 -16 -22 -27 -26 -28 -6 8 -9 -11 -12 -12 -8 -3 -3 -5 -3 -5 -7 -2 0 8 11 17 20 17 24 26 32 32 38 34 25
-31 30 44 80 28 27 18 74 89 59 48 54 47 39 58 49 -61 -15 -12 -13 -1 -12 9 11 6 1 -2 -3 -2 8 7 6 7 7 6 9 16 18 20 25 30 22 23 28 35 39 47 49 42
15 39 65 84 12 77 20 28 61 72 114 62 142 132 52 -24 -20 -19 -25 -9 -1 7 11 22 22 18 8 3 0 2 3 12 5 4 4 13 13 11 16 22 25 18 18 24 28 41 61 60 46
30 94 118 95 21 55 -3 -10 20 21 61 19 159 179 48 5 -21 -24 -16 -6 2 5 10 17 20 27 20 5 0 3 5 5 -3 19 25 24 21 27 29 28 23 20 19 19 29 44 63 65 54
45 50 117 81 29 27 -12 -19 9 34 8 34 101 122 56 -38 -35 -11 -14 -2 10 18 15 19 15 15 11 15 -3 3 6 8 5 27 29 34 39 40 41 55 40 36 36 31 36 50 54 63 55
19 40 165 134 20 26 12 36 27 20 53 1 0 49 -40 -17 13 1 -3 -2 2 13 14 3 14 14 11 7 9 2 1 4 8 30 29 48 64 66 70 60 52 42 40 44 41 39 57 67 81
25 54 172 186 126 65 8 44 22 38 14 0 94 25 6 -12 -10 -10 -3 -5 -8 -9 -6 6 6 9 7 -5 -12 -13 -16 -8 5 25 36 56 65 85 68 69 53 62 60 69 76 73 78 79 100
1 -23 151 187 145 127 71 -14 -15 117 -9 22 141 88 -49 -5 -33 -10 -21 -2 -11 -21 -13 -7 -2 10 1 -5 -4 11 -1 -1 17 16 29 53 63 72 62 51 50 50 53 78 75 98 88 86 101
23 1 71 145 144 159 105 76 -8 36 -15 75 134 77 1 1 -13 -3 1 -26 -30 -26 -17 -11 0 7 11 3 9 18 8 10 15 21 25 38 46 56 51 47 62 72 83 87 101 96 95 103 111
68 17 96 64 106 146 96 43 43 15 61 115 64 20 13 -6 7 19 30 -15 -19 -20 -20 -9 -6 1 9 0 8 10 15 18 21 27 36 32 37 44 43 44 80 75 87 90 100 101 100 109 107
43 45 79 183 97 123 50 40 38 50 91 95 100 53 18 29 48 9 36 15 -15 -22 -15 -14 -6 0 -3 -5 16 15 21 14 22 19 37 33 32 37 56 70 81 84 94 87 90 88 87 96 90
1 43 67 93 62 131 105 38 40 109 135 102 69 45 2 1 61 68 68 33 -1 -23 -21 -17 -19 -11 -7 5 20 20 12 8 22 30 41 35 57 68 61 69 59 75 81 75 66 62 62 64 66
32 8 -50 67 102 129 54 22 26 120 149 86 61 43 9 0 46 44 49 25 15 -5 -14 -28 -21 -20 -11 5 24 24 18 20 28 23 22 26 45 47 34 36 50 82 75 86 82 67 62 47 56
34 -10 -34 24 125 121 5 38 67 114 135 101 56 65 17 -13 -8 10 35 13 -3 -17 -22 -25 -33 -13 -3 4 7 11 30 39 14 13 15 26 29 19 37 46 66 75 78 88 84 68 64 70 74
11 -10 -26 6 39 109 94 34 63 57 67 94 39 46 46 32 26 35 41 8 5 -16 -5 -2 -19 -16 -13 -24 -10 2 19 27 18 20 4 29 21 26 40 51 42 66 59 86 58 50 55 50 70
7 -9 -14 -51 23 86 61 92 98 122 89 6 6 38 58 55 37 41 27 21 21 19 28 -3 -11 -4 1 12 1 -5 1 6 15 21 24 9 12 -4 -3 6 22 46 42 63 54 42 60 69 53
47 -15 -70 -103 46 15 59 84 147 209 139 99 27 35 56 21 -12 22 48 37 43 44 55 25 18 19 12 5 0 -1 -1 -3 -2 2 6 12 15 25 -3 -31 7 10 16 50 49 42 40 57 64
33 -7 -18 7 12 22 2 24 117 71 150 135 108 52 27 111 57 52 90 81 30 49 93 62 39 7 -3 9 23 48 52 24 4 0 -4 -2 -4 2 -6 -31 -34 -18 0 19 45 42 32 39 63
0 39 32 -2 4 5 50 15 24 44 43 93 93 112 58 28 91 115 115 88 55 46 81 61 36 -12 -18 -14 -14 3 -4 -7 -3 -12 -6 -11 -10 -2 -9 2 -15 -39 -8 34 36 40 33 20 42
48 23 28 28 5 -2 9 21 44 99 23 -30 60 78 50 15 81 140 157 155 68 59 111 62 30 -9 -23 -14 -22 -15 -19 -23 -6 -9 -13 -21 -14 -10 -18 -33 -27 -7 11 5 25 50 52 54 39
56 82 57 14 9 49 19 38 61 60 59 -20 16 74 36 17 31 113 152 113 65 37 60 78 34 0 -15 -12 -13 0 -3 -9 -2 -3 -6 -12 -21 -21 -28 -21 -11 -26 -16 -5 -2 19 40 50 53
119 134 38 28 59 51 36 28 -18 -22 34 107 -31 91 55 7 59 83 101 75 69 57 65 75 72 14 -19 1 21 17 1 3 9 8 0 -4 10 0 0 -13 -1 -6 -38 -17 13 -5 -10 19 39
108 53 9 -32 -11 103 52 59 -30 -57 -37 54 72 94 138 123 84 91 122 116 118 81 72 94 97 56 21 -18 6 17 17 9 4 -1 1 -12 4 5 -7 -12 -26 -10 17 40 38 21 -25 21 36
56 33 14 32 54 136 52 -8 -29 -18 -49 -91 -79 -25 216 241 192 124 125 134 122 86 93 82 85 62 54 30 -22 -3 33 21 11 10 -7 -2 -11 -24 -27 -23 -26 -22 -22 -5 -8 -7 -19 -9 21
29 70 61 47 45 89 37 76 7 47 30 24 27 4 76 140 203 173 136 154 130 117 108 94 80 102 93 62 28 -10 3 27 17 10 -2 1 -22 -12 20 16 -6 -34 -29 -13 -9 -27 -9 -31 32
69 71 46 21 23 25 9 9 21 81 38 20 65 99 101 266 272 227 171 146 172 135 139 125 92 76 77 86 71 33 -4 -33 -9 17 17 22 33 29 19 46 71 -27 -27 -27 -19 -20 -15 -38 -19
65 49 22 39 60 43 27 12 27 70 76 46 23 38 104 287 244 186 179 180 191 177 137 143 125 95 76 74 90 83 52 30 6 5 12 36 34 43 38 30 23 45 24 27 -6 5 19 12 6

GFSSGP_con_3kmhel_123.txt.gz
Helicity
35 32 28 33 32 16 -11 18 18 33 19 28 58 35 46 31 52 -35 -21 -15 -13 5 51 41 40 27 25 12 11 12 16 10 7 3 6 8 14 15 11 16 5 10 16 15 14 15 16 21 16
13 29 28 23 8 2 -1 4 36 47 21 49 18 36 45 24 57 -9 -37 -41 -30 -14 -2 8 17 13 10 1 3 9 3 4 13 15 17 14 14 13 11 11 16 17 14 16 20 22 19 13 9
-6 37 31 8 -6 8 6 15 66 51 80 39 8 7 38 2 -16 -21 -31 -15 -4 -7 1 3 5 2 5 5 4 7 9 13 14 18 18 17 22 23 22 20 20 25 25 33 24 34 36 16 8
-16 32 26 15 -7 18 10 49 116 109 80 5 46 17 73 3 -5 -27 -5 1 -0 4 4 -4 -1 1 9 4 3 -5 7 16 20 27 25 17 21 19 17 15 15 24 28 34 33 36 38 25 18
8 27 5 6 10 23 7 64 84 124 85 37 24 21 34 20 -42 -8 6 8 11 9 -3 -6 -9 1 8 9 7 8 5 10 14 16 18 19 19 20 23 25 13 21 23 24 28 40 46 24 30
20 38 28 4 18 11 16 38 64 71 83 52 23 88 29 11 -33 -11 -13 -9 -11 -9 -15 1 7 16 15 11 10 7 2 9 10 19 28 33 31 21 23 20 17 19 19 21 34 44 46 32 38
19 53 19 31 28 2 15 19 34 60 64 26 86 101 18 -8 -25 -21 -17 -17 -10 -10 -1 14 20 30 18 6 3 -2 -3 -4 13 18 20 9 17 25 23 28 25 25 28 34 43 46 49 45 49
38 24 40 19 25 -5 -0 18 53 41 12 41 61 105 90 -6 -21 -17 -11 -10 2 13 20 27 28 27 27 13 3 5 4 11 23 20 17 27 24 27 35 19 27 26 24 32 49 48 51 49 52
45 17 65 83 8 -0 -8 36 17 15 107 13 -15 25 29 9 -6 -0 -0 1 14 15 27 30 32 39 24 8 -4 -4 -6 9 19 24 36 40 44 38 34 32 26 32 33 29 43 58 59 59 68
46 48 66 140 65 19 -4 26 32 12 53 28 13 28 23 3 4 11 14 9 14 18 24 26 29 24 16 -4 -8 -2 -9 1 17 28 41 54 51 46 40 35 29 42 54 64 67 66 63 81 91
36 100 146 174 117 62 3 -1 -13 32 21 43 123 60 41 -2 -11 6 11 14 17 15 17 20 19 23 12 11 9 7 13 14 19 25 40 44 48 50 45 42 38 56 66 70 67 63 63 79 97
25 29 118 114 158 115 51 55 37 37 8 30 34 13 6 -1 -0 9 8 2 6 11 11 6 9 11 12 15 15 8 10 9 11 20 40 45 42 38 42 42 37 45 61 70 80 74 78 80 75
27 -3 71 119 135 136 90 11 -10 10 15 69 43 4 18 8 -2 6 10 2 1 11 7 5 6 10 12 11 18 20 19 20 16 24 39 41 34 32 38 45 49 69 76 75 75 71 68 70 71
29 29 62 75 105 126 93 36 -14 -6 65 75 74 36 5 11 5 9 10 12 9 8 9 4 11 6 6 7 19 26 27 20 32 38 40 27 32 28 40 64 66 75 73 68 63 62 62 62 59
6 41 43 86 124 67 109 13 7 42 73 81 60 24 9 10 18 58 45 33 16 11 6 9 9 1 5 10 21 34 38 30 27 34 28 33 40 36 57 56 53 59 59 56 36 36 31 25 34
27 21 4 4 82 37 73 -30 20 34 76 92 61 27 -2 9 29 54 63 34 29 15 4 2 5 8 9 11 16 24 21 24 22 23 23 34 54 53 53 44 56 57 64 54 43 33 31 38 35
22 6 -7 -5 54 106 34 27 39 3 46 69 57 24 4 2 1 45 68 53 36 15 10 4 -4 -0 7 9 14 13 17 12 11 21 28 40 35 35 44 43 55 67 68 64 53 34 27 16 -10
14 -12 -14 -50 -10 150 54 59 47 10 1 44 47 9 8 -3 1 36 40 37 27 13 7 8 5 1 4 6 8 10 9 9 3 14 19 32 37 39 37 42 49 60 64 66 59 55 46 36 8
5 3 -13 -37 -73 95 64 65 -11 53 -27 -29 2 7 -3 2 4 19 21 23 12 7 7 -0 7 3 -0 -7 -4 -3 1 2 5 16 15 25 38 43 48 41 38 40 41 59 50 36 41 30 19
18 15 -8 -18 -69 50 85 66 72 90 27 -8 -8 10 -6 -4 -16 3 21 33 32 35 23 -3 -1 2 3 11 5 8 -0 -3 2 8 13 10 7 22 28 29 16 33 34 37 41 42 38 38 29
32 38 23 2 -1 -40 -8 65 68 125 117 45 -36 17 8 1 -0 1 27 34 34 40 55 34 9 2 7 7 15 12 2 1 -0 5 -4 8 5 -0 9 10 11 5 17 34 43 45 37 37 43
35 43 20 9 -11 21 30 73 36 77 25 60 27 -25 -0 8 6 15 29 44 43 48 53 47 25 1 -0 7 5 5 11 7 3 1 -3 -8 -5 -5 -10 -14 -11 2 5 8 12 45 46 33 32
46 -3 7 17 13 -4 9 -5 36 67 -21 7 49 -5 1 -4 4 18 35 72 32 33 70 66 39 13 -3 4 3 -9 -4 -2 -0 4 -3 -7 -17 -7 -7 -9 -23 -17 -11 -9 15 38 52 55 45
22 5 23 14 10 10 -4 -2 12 35 73 72 44 19 -5 -12 -8 23 68 41 12 11 42 59 52 30 -14 -19 -2 2 -6 -4 -4 3 1 8 -4 -11 -15 -19 -23 -18 -31 -21 3 22 32 50 59
16 -3 29 10 12 37 -8 15 8 9 -5 47 134 31 -25 -24 4 -15 -11 24 15 23 45 62 55 36 -2 -19 -16 -10 -12 -1 -3 6 -0 6 6 -1 -8 -15 -24 -25 -31 -9 25 25 12 22 23
27 11 32 54 21 19 7 76 50 20 -27 -23 21 74 32 -17 -11 -7 4 33 32 56 36 60 86 35 2 -5 -12 -11 -10 -9 -12 -4 5 9 -0 -12 -15 -8 -20 -23 -24 25 31 31 24 36 7
36 35 71 45 18 29 51 22 -15 77 31 -16 2 17 -5 1 -55 -34 2 27 15 19 39 50 86 75 37 19 1 -8 -10 -13 -5 4 -6 -15 -9 -19 -11 -7 -20 -26 -23 -26 32 5 22 28 20
48 64 49 23 59 79 181 72 24 32 54 -44 -99 -35 48 51 58 35 58 2 -9 -8 13 21 44 87 71 43 11 -8 -12 -16 -20 -28 -18 -9 -19 -6 -2 -6 -5 -20 -19 -16 -25 -11 19 24 21
62 39 52 44 47 43 71 24 13 25 73 -0 -42 -37 -58 -59 22 66 96 65 33 7 16 12 26 44 64 59 33 17 3 -8 -30 -32 -30 -30 -31 8 8 6 -6 5 -0 -9 -20 -29 11 28 32
54 48 24 38 48 58 35 -13 2 -7 31 57 24 -22 -3 31 112 148 128 104 88 46 28 30 18 25 37 47 54 48 27 -4 -6 -15 -12 29 30 30 23 17 7 11 25 12 5 -9 -7 2 -14

GFSSGP_con_3kmhel_126.txt.gz
Helicity
78 68 35 58 73 26 10 19 15 20 23 -1 27 44 9 50 37 9 8 -23 -21 2 46 39 65 36 11 24 17 6 8 16 4 7 7 8 7 7 2 5 13 15 17 23 19 16 16 4 2
49 32 40 46 51 12 -0 31 29 28 -2 16 -3 58 24 -2 -0 13 -22 2 10 9 13 14 28 25 31 24 15 6 1 -1 4 7 10 8 4 6 17 19 21 24 24 22 17 13 -0 7 9
27 36 42 33 48 -5 4 35 38 37 20 27 -27 6 43 -9 10 -6 -9 6 4 -2 -5 -2 14 19 19 8 8 1 -0 2 4 10 4 11 7 13 15 19 26 22 12 21 22 16 -5 1 7
37 48 57 31 -18 7 -2 36 66 61 30 29 -0 -4 10 -17 -22 -11 14 14 5 8 24 3 9 -0 12 5 5 8 6 9 15 17 14 13 12 9 9 17 22 18 16 13 18 15 2 6 8
30 35 18 24 45 -9 8 41 50 55 25 10 22 19 30 22 -32 13 8 3 2 9 19 12 11 12 9 7 14 11 13 17 18 21 20 16 19 19 19 17 21 22 19 20 24 18 10 14 17
40 26 13 12 46 10 12 32 45 51 23 -12 9 77 33 -27 5 -0 1 1 3 -0 11 4 6 16 7 6 8 4 12 21 30 28 22 19 11 17 15 20 19 18 14 17 20 24 16 22 19
10 -7 17 3 32 15 14 16 48 49 24 -2 31 61 39 10 -10 -6 -2 -3 -1 -10 -2 -4 -0 7 14 2 6 2 10 12 14 16 14 14 14 11 13 17 17 11 10 21 25 19 19 29 35
10 -9 5 -9 -2 23 31 10 9 20 6 -11 -8 34 100 34 -4 2 2 -5 -11 -8 2 13 23 16 5 3 1 10 19 15 12 16 15 8 12 9 -1 -15 21 15 21 35 35 35 35 36 34
21 9 2 17 -2 11 26 30 -25 -39 50 12 -2 10 74 37 14 21 11 -5 -7 5 13 19 16 22 11 -2 -6 8 12 11 12 2 15 52 14 5 7 37 21 25 30 37 42 45 46 67 61
22 12 36 118 72 -4 6 22 20 21 36 9 3 34 62 28 12 14 15 12 10 8 5 22 6 -24 9 6 -6 8 11 4 16 15 15 21 26 40 26 26 37 41 56 54 62 62 81 121 47
14 20 77 165 86 2 20 12 14 21 29 27 54 74 29 14 4 3 7 3 4 -1 -2 11 18 23 17 1 2 8 11 15 21 26 42 35 36 29 28 26 41 52 75 69 64 69 62 47 62
13 74 100 178 93 32 4 -22 -14 13 17 -5 30 64 36 10 4 5 4 -3 -1 -0 3 8 2 17 14 3 12 7 9 18 21 19 36 37 31 27 33 27 36 62 61 60 63 36 52 54 49
23 43 133 159 108 56 26 -31 5 -4 14 27 16 26 22 4 3 -11 -6 -11 2 6 6 2 3 10 3 7 3 -0 3 15 11 24 26 33 27 16 13 19 43 55 56 40 42 38 35 37 27
33 51 61 108 109 46 40 -14 3 3 46 47 29 33 16 -2 -5 -18 -5 -12 -3 3 6 -3 8 4 2 -0 11 3 11 7 21 20 19 27 33 12 17 32 47 49 56 42 38 35 26 23 12
29 37 43 -3 50 22 70 -16 -0 41 37 66 41 25 6 -2 -6 -2 -9 -10 -5 5 3 -1 2 -1 5 2 12 10 11 4 8 7 11 16 29 18 47 42 54 47 43 44 28 29 25 12 11
16 -5 5 -2 -36 41 112 -24 24 31 53 76 61 27 24 8 -2 16 1 -0 -2 -1 1 4 2 -7 3 -4 11 11 10 8 2 -1 3 27 31 44 55 45 48 49 50 34 21 23 17 14 3
16 22 22 9 -5 11 58 58 33 5 33 64 55 37 30 13 -1 23 4 9 -8 -10 -9 2 8 5 2 1 5 7 -4 9 4 15 21 30 41 37 50 55 49 71 45 33 16 19 14 4 4
69 18 -0 1 -21 7 70 15 33 -10 8 41 35 33 35 24 10 16 20 1 -12 -19 -11 2 12 3 13 3 9 9 -5 6 8 9 17 25 20 35 55 47 59 75 37 27 31 26 16 13 10
55 46 21 18 -28 29 98 8 48 19 -13 55 4 22 24 14 1 5 9 4 1 -2 -6 -2 11 3 12 10 13 5 20 1 -1 7 8 15 28 37 51 51 48 56 41 52 39 15 10 2 4
43 21 30 6 -10 -13 129 178 91 37 39 37 -6 4 10 1 10 -9 8 16 24 23 15 11 7 12 19 17 15 14 14 6 -1 4 9 17 19 43 39 43 36 43 36 37 40 42 23 15 10
23 32 20 12 -11 -37 -1 72 50 53 46 39 4 -6 -4 -4 1 -1 3 10 16 27 23 20 8 11 15 26 2 5 10 9 15 2 10 6 11 17 22 28 34 44 51 27 37 43 46 32 26
9 42 29 -11 -44 3 -10 123 50 38 34 52 -7 -17 -5 -12 -5 1 4 13 15 19 17 10 10 -0 1 5 11 14 16 8 2 9 4 7 14 6 -1 10 16 25 25 21 15 27 52 43 30
59 22 16 5 -2 -17 -42 10 17 62 23 3 13 -17 -8 -17 -9 -3 1 27 14 4 12 11 1 -5 -0 -12 2 6 30 -2 1 2 1 12 1 8 5 -12 -18 -3 1 3 18 12 60 47 47
58 9 -5 -11 -8 22 6 -42 -22 19 58 28 29 17 -14 -8 -16 -10 11 9 -0 -8 -6 2 12 -0 -11 -11 -11 3 18 17 14 4 -4 -6 2 -3 1 4 6 -1 2 -13 -14 -1 16 59 55
6 -2 4 17 14 39 12 3 51 22 -6 28 9 -4 -20 -17 -20 -20 -6 -15 -16 -5 3 10 32 20 3 -9 -14 -6 -6 3 -0 4 7 4 -10 -12 -14 -4 -12 -20 -21 -3 2 -12 -0 -24 -8
-2 12 42 51 58 40 3 29 55 28 32 3 -2 10 31 12 10 -0 31 30 16 11 15 13 30 25 12 3 -3 -11 -17 -14 -10 -9 9 -7 8 11 -14 -10 -15 -22 -16 -24 -22 -24 -23 -2 -34
45 28 45 32 -15 27 -3 21 12 -1 20 10 7 13 -5 11 32 42 46 33 19 21 29 32 33 24 17 3 -7 -17 -20 -10 -6 7 -13 -4 2 -3 -19 -9 -6 -11 -11 -14 -7 -20 -23 -23 -36
79 55 9 14 35 58 55 40 41 20 46 29 58 64 23 -22 45 51 45 37 24 5 3 13 9 22 30 3 -10 -12 -16 -14 -17 -24 -9 -5 -4 8 3 -19 -23 -4 -5 -13 -15 -20 25 6 -16
37 4 38 57 40 47 84 95 25 13 50 22 -65 27 -54 14 32 27 54 41 20 6 12 8 4 -2 -5 1 20 6 -13 -12 -15 -14 -31 -22 -13 -14 -5 5 -16 -21 25 2 -27 -22 1 -1 14
87 64 3 25 41 37 8 13 1 -9 -1 9 -12 -17 89 74 7 -7 78 53 38 18 16 24 9 3 -3 -9 -16 -2 17 18 13 8 6 7 4 2 7 27 19 -17 6 11 -10 11 10 25 -9

GFSSGP_con_3kmhel_129.txt.gz
Helicity
87 125 69 34 51 22 14 -1 10 -10 12 18 18 9 19 36 -2 42 16 -30 -46 -61 53 59 82 43 -29 -13 -9 -11 1 1 3 6 9 3 10 9 12 8 9 11 11 4 -1 -1 -4 -6 -7
111 32 50 14 13 35 9 8 -3 19 8 -1 20 47 10 28 44 21 -18 -40 16 36 54 30 29 31 3 1 -10 0 13 17 13 9 8 8 11 18 7 7 7 2 5 -2 -2 5 -3 -1 -4
104 51 62 66 70 26 30 18 -1 19 -10 7 -3 55 28 28 -3 -14 -3 10 20 -5 31 2 22 26 14 15 1 -1 2 3 3 -1 2 2 11 12 10 3 2 10 12 7 -6 -9 -10 -3 4
77 93 76 86 43 32 21 32 16 9 11 5 53 24 22 1 25 12 15 29 17 19 41 6 -2 8 -6 -8 5 -2 -8 -10 -5 9 5 4 3 9 10 14 14 0 9 18 6 -2 -8 0 -4
74 64 49 28 24 23 19 12 13 23 17 8 59 50 28 20 38 0 21 16 12 27 33 18 -1 3 -6 -2 1 3 2 5 8 -4 1 6 11 7 9 5 7 4 7 13 0 10 -2 9 14
55 19 -27 41 40 12 10 0 7 26 -16 0 63 26 29 20 4 -4 21 13 33 86 16 20 4 3 -4 -3 -1 9 9 8 5 5 4 5 7 10 9 5 6 3 10 10 1 2 14 11 22
58 -6 4 84 37 43 2 21 27 14 23 6 24 44 29 11 4 0 21 28 29 54 29 17 9 -4 6 3 8 8 7 6 10 5 5 3 6 6 2 4 2 6 14 15 12 22 24 29 35
45 -29 -2 27 37 58 10 16 -27 0 14 11 50 16 39 32 -3 -4 2 12 6 34 0 32 6 0 0 0 0 5 4 10 2 -6 -6 -11 -23 -19 -8 -14 5 12 26 22 26 27 41 43 55
22 -14 7 -7 60 55 12 20 -11 -4 6 -3 41 31 33 18 1 7 11 7 13 -1 18 55 1 9 23 9 5 3 -3 3 -8 10 40 54 -14 -12 -18 29 11 19 24 31 36 53 83 93 85
25 -11 46 159 5 44 18 14 20 17 3 -2 14 64 62 9 10 3 7 13 4 5 75 21 -11 10 4 3 12 15 22 24 0 25 76 72 84 28 3 0 14 26 42 51 59 93 124 162 167
20 8 29 231 98 22 68 13 -1 20 23 7 7 38 32 13 11 2 13 12 8 -7 13 81 7 -17 1 14 -15 27 -14 2 9 48 38 11 4 6 52 5 48 25 82 84 83 147 128 24 58
33 29 59 138 122 27 19 62 55 57 44 16 2 32 15 13 13 9 0 -1 -1 4 -10 17 -14 7 -6 -1 -5 8 -5 -8 12 19 19 20 9 43 61 37 25 38 17 42 122 19 40 46 71
43 63 65 138 105 70 53 60 1 21 30 32 18 16 15 12 -1 -5 -22 -10 -10 -1 6 1 -17 18 28 62 17 35 27 17 51 15 43 47 8 21 12 36 44 51 58 4 37 44 34 54 42
54 52 46 72 132 53 54 17 24 28 41 21 15 8 6 -4 -10 -29 -19 -11 -8 -7 0 11 -10 -9 -3 10 17 20 46 37 20 -3 12 17 31 41 9 40 -2 27 38 17 11 48 42 32 12
69 31 38 -5 101 84 60 14 14 50 41 32 10 14 -4 -7 -11 -17 -12 -18 -7 -6 -13 -11 -17 -5 3 -12 2 33 11 11 6 18 8 20 26 30 54 36 58 6 13 38 41 70 50 19 -3
26 63 7 19 -91 35 51 -1 45 54 35 26 11 1 10 -9 16 3 -13 -5 -14 -11 -11 -3 -11 -8 -1 -18 19 18 21 19 7 -19 -8 16 11 44 93 71 14 10 50 33 -4 51 31 16 4
76 17 -25 30 1 -30 47 53 60 11 13 19 2 8 16 12 26 44 -6 -13 33 21 -17 -1 -16 -10 -1 -8 26 16 21 26 6 -7 -8 30 38 43 89 32 -4 58 29 28 16 5 34 19 10
41 91 81 16 42 26 38 13 74 14 -1 3 11 10 14 7 31 11 6 19 -7 13 2 -8 -1 14 -9 6 11 2 27 25 1 7 14 29 18 35 98 12 66 23 129 27 72 59 27 27 33
32 0 47 63 39 5 32 17 24 40 2 -16 41 4 19 11 25 26 4 16 7 2 -12 -12 49 -16 5 11 31 -4 -6 5 5 9 0 5 25 25 64 49 68 101 -57 62 32 25 8 6 13
28 6 52 39 14 -9 29 126 135 96 -14 82 6 3 -10 25 40 41 8 -3 19 7 -7 -14 18 10 22 21 29 18 40 -11 -3 8 -17 24 20 37 45 65 44 5 44 16 32 35 81 2 10
-8 54 43 43 32 25 6 72 104 55 -15 58 5 -11 22 12 39 54 2 23 1 20 12 -5 -4 -8 13 30 25 2 9 24 17 -1 -2 9 24 33 39 37 41 69 69 32 28 33 31 -41 21
0 55 11 18 -3 -20 -11 13 37 28 61 62 11 -12 38 6 4 51 25 -8 6 50 12 21 1 -1 -2 16 20 -7 16 19 3 7 11 -9 17 20 22 18 15 35 62 36 23 16 43 37 51
49 37 -1 5 -17 133 -12 -28 86 9 61 28 -10 -12 1 8 -6 58 14 15 18 43 29 22 13 -6 5 -9 50 -2 20 13 -22 5 26 22 -19 23 12 0 2 12 21 23 25 34 28 44 35
21 10 -7 -27 -35 4 46 -64 -8 56 1 28 20 43 27 -10 42 26 32 49 6 47 29 38 43 17 21 14 10 17 32 18 52 11 5 10 1 -3 -1 -5 -2 21 28 -2 -7 15 -5 11 54
10 -14 2 -24 4 15 5 -109 -17 -88 -7 23 79 14 1 44 33 33 17 17 10 59 37 44 65 28 7 4 -15 -14 7 17 31 25 12 -2 4 -2 111 9 14 -8 -28 6 18 -6 -2 -1 -7
16 -3 28 71 9 10 18 12 -1 15 5 -9 82 49 44 47 63 39 40 26 53 47 61 22 66 31 15 -2 -10 -22 -17 -19 -4 -4 22 33 27 40 95 21 -16 -17 -18 -16 -23 -11 -5 -6 -28
10 29 64 -6 18 59 -13 58 114 -9 29 -5 10 51 12 38 36 28 49 42 60 24 62 27 44 34 16 -1 -9 -12 -17 -13 -16 39 -5 -17 24 33 26 20 0 0 -15 -17 21 -4 -14 -7 -35
58 98 38 17 17 72 11 66 60 73 58 55 48 10 28 184 35 14 43 47 52 27 40 16 18 37 17 -5 6 -10 -9 -11 -4 35 8 26 18 49 34 24 -7 -21 -3 3 10 -15 -12 39 -23
41 44 19 21 50 49 38 56 70 21 50 16 45 130 165 145 -80 55 25 47 53 30 32 34 11 16 11 13 20 12 6 -10 -14 -4 -2 -3 5 1 6 -20 -22 -14 9 22 13 -31 -14 20 -26
12 51 217 83 128 52 28 42 20 26 -1 38 -5 92 82 213 166 74 51 35 48 54 38 53 32 21 17 10 19 22 17 26 32 27 3 -5 -18 -9 -6 -4 6 22 25 14 36 29 4 31 -12